<?xml version="1.0" encoding="UTF-8" standalone="no" ?>
<gpx xmlns="http://www.topografix.com/GPX/1/1" xmlns:xsi="http://www.w3.org/2001/XMLSchema-instance" xsi:schemaLocation="http://www.topografix.com/GPX/1/1 http://www.topografix.com/GPX/1/1/gpx.xsd" version="1.1" creator="VisuGPX - https://www.visugpx.com">
  <metadata>
    <name>Montseveroux</name>
    <desc><![CDATA[2009-06-27_Montseveroux Dist.99Km Asc.880m 4h35.gpx]]></desc>
  </metadata>
  <trk>
    <name><![CDATA[Montseveroux]]></name>
    <cmt><![CDATA[Montseverroux]]></cmt>
    <trkseg>
      <trkpt lat="45.1158" lon="4.96508">
        <ele>276.06500244141</ele>
        <time>2009-06-27T11:23:09Z</time>
      </trkpt>
      <trkpt lat="45.11589" lon="4.96529">
        <ele>276.14300537109</ele>
        <time>2009-06-27T11:23:12Z</time>
      </trkpt>
      <trkpt lat="45.11596" lon="4.96543">
        <ele>276.37298583984</ele>
        <time>2009-06-27T11:23:14Z</time>
      </trkpt>
      <trkpt lat="45.11599" lon="4.9655">
        <ele>276.52398681641</ele>
        <time>2009-06-27T11:23:15Z</time>
      </trkpt>
      <trkpt lat="45.11652" lon="4.96685">
        <ele>277.65600585938</ele>
        <time>2009-06-27T11:23:34Z</time>
      </trkpt>
      <trkpt lat="45.11687" lon="4.96761">
        <ele>278.70700073242</ele>
        <time>2009-06-27T11:23:45Z</time>
      </trkpt>
      <trkpt lat="45.11702" lon="4.96786">
        <ele>278.91799926758</ele>
        <time>2009-06-27T11:23:49Z</time>
      </trkpt>
      <trkpt lat="45.11734" lon="4.96827">
        <ele>279.28601074219</ele>
        <time>2009-06-27T11:23:57Z</time>
      </trkpt>
      <trkpt lat="45.11737" lon="4.96831">
        <ele>279.81500244141</ele>
        <time>2009-06-27T11:24:01Z</time>
      </trkpt>
      <trkpt lat="45.11831" lon="4.96986">
        <ele>280.49099731445</ele>
        <time>2009-06-27T11:24:22Z</time>
      </trkpt>
      <trkpt lat="45.11852" lon="4.97017">
        <ele>280.73400878906</ele>
        <time>2009-06-27T11:24:27Z</time>
      </trkpt>
      <trkpt lat="45.11876" lon="4.97052">
        <ele>280.08200073242</ele>
        <time>2009-06-27T11:24:33Z</time>
      </trkpt>
      <trkpt lat="45.11882" lon="4.97102">
        <ele>279.63101196289</ele>
        <time>2009-06-27T11:24:37Z</time>
      </trkpt>
      <trkpt lat="45.11879" lon="4.97174">
        <ele>278.59600830078</ele>
        <time>2009-06-27T11:24:45Z</time>
      </trkpt>
      <trkpt lat="45.11906" lon="4.97332">
        <ele>277.58999633789</ele>
        <time>2009-06-27T11:25:04Z</time>
      </trkpt>
      <trkpt lat="45.11913" lon="4.97371">
        <ele>277.52301025391</ele>
        <time>2009-06-27T11:25:09Z</time>
      </trkpt>
      <trkpt lat="45.11934" lon="4.97488">
        <ele>278.04998779297</ele>
        <time>2009-06-27T11:25:24Z</time>
      </trkpt>
      <trkpt lat="45.11948" lon="4.97565">
        <ele>278.79501342773</ele>
        <time>2009-06-27T11:25:34Z</time>
      </trkpt>
      <trkpt lat="45.11952" lon="4.97587">
        <ele>278.87100219727</ele>
        <time>2009-06-27T11:25:37Z</time>
      </trkpt>
      <trkpt lat="45.11957" lon="4.97616">
        <ele>278.82998657227</ele>
        <time>2009-06-27T11:25:41Z</time>
      </trkpt>
      <trkpt lat="45.1199" lon="4.97797">
        <ele>278.74798583984</ele>
        <time>2009-06-27T11:26:04Z</time>
      </trkpt>
      <trkpt lat="45.1202" lon="4.97954">
        <ele>278.82598876953</ele>
        <time>2009-06-27T11:26:25Z</time>
      </trkpt>
      <trkpt lat="45.1204" lon="4.98051">
        <ele>279.38000488281</ele>
        <time>2009-06-27T11:26:38Z</time>
      </trkpt>
      <trkpt lat="45.12043" lon="4.98066">
        <ele>279.39898681641</ele>
        <time>2009-06-27T11:26:40Z</time>
      </trkpt>
      <trkpt lat="45.12062" lon="4.98154">
        <ele>279.35501098633</ele>
        <time>2009-06-27T11:26:52Z</time>
      </trkpt>
      <trkpt lat="45.12064" lon="4.98162">
        <ele>279.4880065918</ele>
        <time>2009-06-27T11:26:53Z</time>
      </trkpt>
      <trkpt lat="45.12064" lon="4.9817">
        <ele>279.21200561523</ele>
        <time>2009-06-27T11:26:54Z</time>
      </trkpt>
      <trkpt lat="45.12057" lon="4.98315">
        <ele>279.32299804688</ele>
        <time>2009-06-27T11:27:12Z</time>
      </trkpt>
      <trkpt lat="45.12048" lon="4.98381">
        <ele>280.47399902344</ele>
        <time>2009-06-27T11:27:21Z</time>
      </trkpt>
      <trkpt lat="45.12015" lon="4.98403">
        <ele>279.38900756836</ele>
        <time>2009-06-27T11:27:28Z</time>
      </trkpt>
      <trkpt lat="45.11998" lon="4.98395">
        <ele>278.31600952148</ele>
        <time>2009-06-27T11:27:31Z</time>
      </trkpt>
      <trkpt lat="45.11978" lon="4.98388">
        <ele>277.97299194336</ele>
        <time>2009-06-27T11:27:38Z</time>
      </trkpt>
      <trkpt lat="45.11982" lon="4.98387">
        <ele>278.26599121094</ele>
        <time>2009-06-27T11:27:43Z</time>
      </trkpt>
      <trkpt lat="45.11987" lon="4.98389">
        <ele>278.14801025391</ele>
        <time>2009-06-27T11:27:45Z</time>
      </trkpt>
      <trkpt lat="45.12003" lon="4.98397">
        <ele>278.02398681641</ele>
        <time>2009-06-27T11:27:52Z</time>
      </trkpt>
      <trkpt lat="45.12021" lon="4.98406">
        <ele>278.32998657227</ele>
        <time>2009-06-27T11:28:04Z</time>
      </trkpt>
      <trkpt lat="45.12025" lon="4.98408">
        <ele>278.78799438477</ele>
        <time>2009-06-27T11:28:16Z</time>
      </trkpt>
      <trkpt lat="45.12025" lon="4.98408">
        <ele>278.46200561523</ele>
        <time>2009-06-27T11:28:19Z</time>
      </trkpt>
      <trkpt lat="45.12029" lon="4.9841">
        <ele>278.4880065918</ele>
        <time>2009-06-27T11:28:23Z</time>
      </trkpt>
      <trkpt lat="45.1204" lon="4.98433">
        <ele>278.20401000977</ele>
        <time>2009-06-27T11:28:28Z</time>
      </trkpt>
      <trkpt lat="45.12073" lon="4.9841">
        <ele>278.05899047852</ele>
        <time>2009-06-27T11:28:39Z</time>
      </trkpt>
      <trkpt lat="45.12082" lon="4.9841">
        <ele>277.79699707031</ele>
        <time>2009-06-27T11:28:43Z</time>
      </trkpt>
      <trkpt lat="45.1209" lon="4.9841">
        <ele>277.61700439453</ele>
        <time>2009-06-27T11:28:48Z</time>
      </trkpt>
      <trkpt lat="45.12095" lon="4.9841">
        <ele>277.11700439453</ele>
        <time>2009-06-27T11:28:57Z</time>
      </trkpt>
      <trkpt lat="45.12097" lon="4.9841">
        <ele>262.7200012207</ele>
        <time>2009-06-27T11:36:23Z</time>
      </trkpt>
      <trkpt lat="45.12097" lon="4.9841">
        <ele>262.54800415039</ele>
        <time>2009-06-27T11:36:24Z</time>
      </trkpt>
      <trkpt lat="45.12088" lon="4.9841">
        <ele>262.15100097656</ele>
        <time>2009-06-27T11:36:31Z</time>
      </trkpt>
      <trkpt lat="45.12082" lon="4.9841">
        <ele>262.25201416016</ele>
        <time>2009-06-27T11:36:32Z</time>
      </trkpt>
      <trkpt lat="45.12059" lon="4.9841">
        <ele>262.33599853516</ele>
        <time>2009-06-27T11:36:36Z</time>
      </trkpt>
      <trkpt lat="45.12046" lon="4.98389">
        <ele>262.66598510742</ele>
        <time>2009-06-27T11:36:40Z</time>
      </trkpt>
      <trkpt lat="45.1203" lon="4.9841">
        <ele>261.62899780273</ele>
        <time>2009-06-27T11:36:46Z</time>
      </trkpt>
      <trkpt lat="45.12029" lon="4.9841">
        <ele>261.50299072266</ele>
        <time>2009-06-27T11:36:47Z</time>
      </trkpt>
      <trkpt lat="45.12052" lon="4.98429">
        <ele>261.84799194336</ele>
        <time>2009-06-27T11:36:54Z</time>
      </trkpt>
      <trkpt lat="45.12076" lon="4.9841">
        <ele>261.64199829102</ele>
        <time>2009-06-27T11:37:00Z</time>
      </trkpt>
      <trkpt lat="45.12088" lon="4.9841">
        <ele>261.65600585938</ele>
        <time>2009-06-27T11:37:03Z</time>
      </trkpt>
      <trkpt lat="45.12096" lon="4.9841">
        <ele>261.35501098633</ele>
        <time>2009-06-27T11:37:10Z</time>
      </trkpt>
      <trkpt lat="45.12104" lon="4.9841">
        <ele>246.44700622559</ele>
        <time>2009-06-27T11:47:50Z</time>
      </trkpt>
      <trkpt lat="45.12105" lon="4.9841">
        <ele>246.34599304199</ele>
        <time>2009-06-27T11:47:52Z</time>
      </trkpt>
      <trkpt lat="45.12107" lon="4.9841">
        <ele>246.5359954834</ele>
        <time>2009-06-27T11:48:01Z</time>
      </trkpt>
      <trkpt lat="45.12125" lon="4.9841">
        <ele>246.27699279785</ele>
        <time>2009-06-27T11:48:13Z</time>
      </trkpt>
      <trkpt lat="45.12162" lon="4.9841">
        <ele>246.06799316406</ele>
        <time>2009-06-27T11:48:26Z</time>
      </trkpt>
      <trkpt lat="45.12184" lon="4.9841">
        <ele>245.90899658203</ele>
        <time>2009-06-27T11:48:35Z</time>
      </trkpt>
      <trkpt lat="45.12222" lon="4.98415">
        <ele>246.28100585938</ele>
        <time>2009-06-27T11:48:42Z</time>
      </trkpt>
      <trkpt lat="45.12222" lon="4.98415">
        <ele>246.30200195312</ele>
        <time>2009-06-27T11:48:43Z</time>
      </trkpt>
      <trkpt lat="45.12279" lon="4.98415">
        <ele>246.96000671387</ele>
        <time>2009-06-27T11:48:55Z</time>
      </trkpt>
      <trkpt lat="45.1231" lon="4.98417">
        <ele>246.9940032959</ele>
        <time>2009-06-27T11:49:02Z</time>
      </trkpt>
      <trkpt lat="45.12333" lon="4.98415">
        <ele>247.64199829102</ele>
        <time>2009-06-27T11:49:07Z</time>
      </trkpt>
      <trkpt lat="45.12346" lon="4.98405">
        <ele>247.67799377441</ele>
        <time>2009-06-27T11:49:10Z</time>
      </trkpt>
      <trkpt lat="45.12351" lon="4.98397">
        <ele>247.71600341797</ele>
        <time>2009-06-27T11:49:14Z</time>
      </trkpt>
      <trkpt lat="45.12374" lon="4.98366">
        <ele>247.98399353027</ele>
        <time>2009-06-27T11:49:19Z</time>
      </trkpt>
      <trkpt lat="45.12398" lon="4.9835">
        <ele>247.86599731445</ele>
        <time>2009-06-27T11:49:25Z</time>
      </trkpt>
      <trkpt lat="45.1242" lon="4.98337">
        <ele>248.33500671387</ele>
        <time>2009-06-27T11:49:30Z</time>
      </trkpt>
      <trkpt lat="45.12436" lon="4.98327">
        <ele>248.26100158691</ele>
        <time>2009-06-27T11:49:34Z</time>
      </trkpt>
      <trkpt lat="45.12465" lon="4.98311">
        <ele>248.72700500488</ele>
        <time>2009-06-27T11:49:41Z</time>
      </trkpt>
      <trkpt lat="45.12555" lon="4.98275">
        <ele>250.75100708008</ele>
        <time>2009-06-27T11:50:01Z</time>
      </trkpt>
      <trkpt lat="45.12617" lon="4.98257">
        <ele>252.33299255371</ele>
        <time>2009-06-27T11:50:16Z</time>
      </trkpt>
      <trkpt lat="45.12663" lon="4.98243">
        <ele>253.40600585938</ele>
        <time>2009-06-27T11:50:27Z</time>
      </trkpt>
      <trkpt lat="45.12696" lon="4.98243">
        <ele>254.73300170898</ele>
        <time>2009-06-27T11:50:35Z</time>
      </trkpt>
      <trkpt lat="45.12786" lon="4.98253">
        <ele>256.60501098633</ele>
        <time>2009-06-27T11:50:56Z</time>
      </trkpt>
      <trkpt lat="45.12873" lon="4.98275">
        <ele>258.08700561523</ele>
        <time>2009-06-27T11:51:16Z</time>
      </trkpt>
      <trkpt lat="45.12977" lon="4.9831">
        <ele>258.74499511719</ele>
        <time>2009-06-27T11:51:37Z</time>
      </trkpt>
      <trkpt lat="45.13066" lon="4.98295">
        <ele>258.0719909668</ele>
        <time>2009-06-27T11:51:53Z</time>
      </trkpt>
      <trkpt lat="45.13176" lon="4.98234">
        <ele>258.85198974609</ele>
        <time>2009-06-27T11:52:14Z</time>
      </trkpt>
      <trkpt lat="45.13211" lon="4.98221">
        <ele>259.32800292969</ele>
        <time>2009-06-27T11:52:21Z</time>
      </trkpt>
      <trkpt lat="45.13282" lon="4.98197">
        <ele>259.73199462891</ele>
        <time>2009-06-27T11:52:34Z</time>
      </trkpt>
      <trkpt lat="45.13376" lon="4.98173">
        <ele>260.11401367188</ele>
        <time>2009-06-27T11:52:51Z</time>
      </trkpt>
      <trkpt lat="45.13435" lon="4.98157">
        <ele>261.09201049805</ele>
        <time>2009-06-27T11:53:02Z</time>
      </trkpt>
      <trkpt lat="45.13523" lon="4.98131">
        <ele>261.64898681641</ele>
        <time>2009-06-27T11:53:18Z</time>
      </trkpt>
      <trkpt lat="45.1362" lon="4.98083">
        <ele>262.98999023438</ele>
        <time>2009-06-27T11:53:36Z</time>
      </trkpt>
      <trkpt lat="45.13705" lon="4.98026">
        <ele>263.51501464844</ele>
        <time>2009-06-27T11:53:52Z</time>
      </trkpt>
      <trkpt lat="45.13797" lon="4.97985">
        <ele>264.60000610352</ele>
        <time>2009-06-27T11:54:09Z</time>
      </trkpt>
      <trkpt lat="45.13888" lon="4.97943">
        <ele>265.1969909668</ele>
        <time>2009-06-27T11:54:26Z</time>
      </trkpt>
      <trkpt lat="45.13995" lon="4.97895">
        <ele>265.82699584961</ele>
        <time>2009-06-27T11:54:48Z</time>
      </trkpt>
      <trkpt lat="45.1413" lon="4.97832">
        <ele>267.4460144043</ele>
        <time>2009-06-27T11:55:11Z</time>
      </trkpt>
      <trkpt lat="45.14256" lon="4.97771">
        <ele>268.36599731445</ele>
        <time>2009-06-27T11:55:35Z</time>
      </trkpt>
      <trkpt lat="45.14338" lon="4.97725">
        <ele>269.06698608398</ele>
        <time>2009-06-27T11:55:51Z</time>
      </trkpt>
      <trkpt lat="45.14403" lon="4.97667">
        <ele>268.7200012207</ele>
        <time>2009-06-27T11:56:05Z</time>
      </trkpt>
      <trkpt lat="45.14513" lon="4.97573">
        <ele>272.01998901367</ele>
        <time>2009-06-27T11:56:28Z</time>
      </trkpt>
      <trkpt lat="45.14615" lon="4.9751">
        <ele>272.63400268555</ele>
        <time>2009-06-27T11:56:48Z</time>
      </trkpt>
      <trkpt lat="45.14679" lon="4.97485">
        <ele>274.53601074219</ele>
        <time>2009-06-27T11:57:00Z</time>
      </trkpt>
      <trkpt lat="45.14736" lon="4.97464">
        <ele>274.52301025391</ele>
        <time>2009-06-27T11:57:10Z</time>
      </trkpt>
      <trkpt lat="45.14796" lon="4.97452">
        <ele>275.06900024414</ele>
        <time>2009-06-27T11:57:24Z</time>
      </trkpt>
      <trkpt lat="45.14875" lon="4.9745">
        <ele>277.06298828125</ele>
        <time>2009-06-27T11:57:40Z</time>
      </trkpt>
      <trkpt lat="45.14948" lon="4.9745">
        <ele>277.25299072266</ele>
        <time>2009-06-27T11:57:54Z</time>
      </trkpt>
      <trkpt lat="45.15006" lon="4.97448">
        <ele>277.14999389648</ele>
        <time>2009-06-27T11:58:05Z</time>
      </trkpt>
      <trkpt lat="45.15065" lon="4.97428">
        <ele>278.18200683594</ele>
        <time>2009-06-27T11:58:16Z</time>
      </trkpt>
      <trkpt lat="45.15139" lon="4.97387">
        <ele>278.04901123047</ele>
        <time>2009-06-27T11:58:31Z</time>
      </trkpt>
      <trkpt lat="45.15242" lon="4.97324">
        <ele>279.18200683594</ele>
        <time>2009-06-27T11:58:52Z</time>
      </trkpt>
      <trkpt lat="45.15335" lon="4.9727">
        <ele>281.02899169922</ele>
        <time>2009-06-27T11:59:12Z</time>
      </trkpt>
      <trkpt lat="45.15372" lon="4.9725">
        <ele>282.9469909668</ele>
        <time>2009-06-27T11:59:21Z</time>
      </trkpt>
      <trkpt lat="45.15444" lon="4.97217">
        <ele>287.01501464844</ele>
        <time>2009-06-27T11:59:39Z</time>
      </trkpt>
      <trkpt lat="45.15485" lon="4.97215">
        <ele>289.35000610352</ele>
        <time>2009-06-27T11:59:50Z</time>
      </trkpt>
      <trkpt lat="45.15516" lon="4.97213">
        <ele>291.20401000977</ele>
        <time>2009-06-27T11:59:58Z</time>
      </trkpt>
      <trkpt lat="45.1554" lon="4.97202">
        <ele>292.4880065918</ele>
        <time>2009-06-27T12:00:04Z</time>
      </trkpt>
      <trkpt lat="45.15544" lon="4.972">
        <ele>292.55801391602</ele>
        <time>2009-06-27T12:00:05Z</time>
      </trkpt>
      <trkpt lat="45.15558" lon="4.97186">
        <ele>293.39300537109</ele>
        <time>2009-06-27T12:00:09Z</time>
      </trkpt>
      <trkpt lat="45.15569" lon="4.9717">
        <ele>294.36700439453</ele>
        <time>2009-06-27T12:00:13Z</time>
      </trkpt>
      <trkpt lat="45.15603" lon="4.97065">
        <ele>297.67401123047</ele>
        <time>2009-06-27T12:00:32Z</time>
      </trkpt>
      <trkpt lat="45.15643" lon="4.9695">
        <ele>300.60900878906</ele>
        <time>2009-06-27T12:00:54Z</time>
      </trkpt>
      <trkpt lat="45.157" lon="4.96881">
        <ele>302.09100341797</ele>
        <time>2009-06-27T12:01:10Z</time>
      </trkpt>
      <trkpt lat="45.15783" lon="4.96798">
        <ele>304.18200683594</ele>
        <time>2009-06-27T12:01:30Z</time>
      </trkpt>
      <trkpt lat="45.15851" lon="4.96752">
        <ele>305.04299926758</ele>
        <time>2009-06-27T12:01:46Z</time>
      </trkpt>
      <trkpt lat="45.15931" lon="4.96723">
        <ele>306.68301391602</ele>
        <time>2009-06-27T12:02:03Z</time>
      </trkpt>
      <trkpt lat="45.15985" lon="4.96706">
        <ele>308.60900878906</ele>
        <time>2009-06-27T12:02:15Z</time>
      </trkpt>
      <trkpt lat="45.16008" lon="4.96702">
        <ele>309.6780090332</ele>
        <time>2009-06-27T12:02:20Z</time>
      </trkpt>
      <trkpt lat="45.16021" lon="4.96702">
        <ele>310.56900024414</ele>
        <time>2009-06-27T12:02:23Z</time>
      </trkpt>
      <trkpt lat="45.1603" lon="4.96702">
        <ele>310.59698486328</ele>
        <time>2009-06-27T12:02:25Z</time>
      </trkpt>
      <trkpt lat="45.16091" lon="4.96726">
        <ele>313.03298950195</ele>
        <time>2009-06-27T12:02:39Z</time>
      </trkpt>
      <trkpt lat="45.16144" lon="4.9674">
        <ele>314.29098510742</ele>
        <time>2009-06-27T12:02:51Z</time>
      </trkpt>
      <trkpt lat="45.1623" lon="4.96691">
        <ele>316.4469909668</ele>
        <time>2009-06-27T12:03:10Z</time>
      </trkpt>
      <trkpt lat="45.1626" lon="4.96671">
        <ele>317.28799438477</ele>
        <time>2009-06-27T12:03:17Z</time>
      </trkpt>
      <trkpt lat="45.16282" lon="4.96629">
        <ele>319.63500976562</ele>
        <time>2009-06-27T12:03:26Z</time>
      </trkpt>
      <trkpt lat="45.16289" lon="4.96528">
        <ele>321.51300048828</ele>
        <time>2009-06-27T12:03:41Z</time>
      </trkpt>
      <trkpt lat="45.16324" lon="4.96483">
        <ele>322.32598876953</ele>
        <time>2009-06-27T12:03:50Z</time>
      </trkpt>
      <trkpt lat="45.16335" lon="4.96483">
        <ele>322.37399291992</ele>
        <time>2009-06-27T12:03:52Z</time>
      </trkpt>
      <trkpt lat="45.16418" lon="4.96499">
        <ele>327.17199707031</ele>
        <time>2009-06-27T12:04:10Z</time>
      </trkpt>
      <trkpt lat="45.16477" lon="4.96499">
        <ele>330.28298950195</ele>
        <time>2009-06-27T12:04:23Z</time>
      </trkpt>
      <trkpt lat="45.1649" lon="4.96502">
        <ele>330.83200073242</ele>
        <time>2009-06-27T12:04:26Z</time>
      </trkpt>
      <trkpt lat="45.16523" lon="4.96527">
        <ele>332.83898925781</ele>
        <time>2009-06-27T12:04:35Z</time>
      </trkpt>
      <trkpt lat="45.1655" lon="4.96614">
        <ele>337.22500610352</ele>
        <time>2009-06-27T12:04:50Z</time>
      </trkpt>
      <trkpt lat="45.16585" lon="4.96691">
        <ele>339.69400024414</ele>
        <time>2009-06-27T12:05:04Z</time>
      </trkpt>
      <trkpt lat="45.16607" lon="4.96709">
        <ele>339.63800048828</ele>
        <time>2009-06-27T12:05:09Z</time>
      </trkpt>
      <trkpt lat="45.16636" lon="4.96711">
        <ele>339.33700561523</ele>
        <time>2009-06-27T12:05:15Z</time>
      </trkpt>
      <trkpt lat="45.16654" lon="4.96711">
        <ele>338.64300537109</ele>
        <time>2009-06-27T12:05:18Z</time>
      </trkpt>
      <trkpt lat="45.16691" lon="4.96743">
        <ele>337.71200561523</ele>
        <time>2009-06-27T12:05:26Z</time>
      </trkpt>
      <trkpt lat="45.16722" lon="4.9679">
        <ele>337.95599365234</ele>
        <time>2009-06-27T12:05:34Z</time>
      </trkpt>
      <trkpt lat="45.16754" lon="4.96838">
        <ele>338.09399414062</ele>
        <time>2009-06-27T12:05:42Z</time>
      </trkpt>
      <trkpt lat="45.16779" lon="4.9687">
        <ele>337.85699462891</ele>
        <time>2009-06-27T12:05:48Z</time>
      </trkpt>
      <trkpt lat="45.16826" lon="4.96878">
        <ele>338.10900878906</ele>
        <time>2009-06-27T12:05:57Z</time>
      </trkpt>
      <trkpt lat="45.16909" lon="4.96826">
        <ele>339.21600341797</ele>
        <time>2009-06-27T12:06:15Z</time>
      </trkpt>
      <trkpt lat="45.1693" lon="4.96772">
        <ele>341.33999633789</ele>
        <time>2009-06-27T12:06:25Z</time>
      </trkpt>
      <trkpt lat="45.16924" lon="4.96748">
        <ele>342.37600708008</ele>
        <time>2009-06-27T12:06:29Z</time>
      </trkpt>
      <trkpt lat="45.16918" lon="4.96725">
        <ele>343.60800170898</ele>
        <time>2009-06-27T12:06:33Z</time>
      </trkpt>
      <trkpt lat="45.16915" lon="4.96713">
        <ele>344.07400512695</ele>
        <time>2009-06-27T12:06:35Z</time>
      </trkpt>
      <trkpt lat="45.1693" lon="4.96642">
        <ele>347.28201293945</ele>
        <time>2009-06-27T12:06:48Z</time>
      </trkpt>
      <trkpt lat="45.16961" lon="4.966">
        <ele>350.87200927734</ele>
        <time>2009-06-27T12:06:58Z</time>
      </trkpt>
      <trkpt lat="45.16965" lon="4.96589">
        <ele>351.16101074219</ele>
        <time>2009-06-27T12:07:00Z</time>
      </trkpt>
      <trkpt lat="45.16989" lon="4.9651">
        <ele>353.88400268555</ele>
        <time>2009-06-27T12:07:13Z</time>
      </trkpt>
      <trkpt lat="45.17002" lon="4.9645">
        <ele>355.30599975586</ele>
        <time>2009-06-27T12:07:22Z</time>
      </trkpt>
      <trkpt lat="45.16999" lon="4.96355">
        <ele>354.79598999023</ele>
        <time>2009-06-27T12:07:37Z</time>
      </trkpt>
      <trkpt lat="45.16996" lon="4.96283">
        <ele>354.60501098633</ele>
        <time>2009-06-27T12:07:48Z</time>
      </trkpt>
      <trkpt lat="45.16994" lon="4.96263">
        <ele>353.74398803711</ele>
        <time>2009-06-27T12:07:51Z</time>
      </trkpt>
      <trkpt lat="45.16988" lon="4.96237">
        <ele>352.76300048828</ele>
        <time>2009-06-27T12:07:55Z</time>
      </trkpt>
      <trkpt lat="45.16975" lon="4.9621">
        <ele>351.74200439453</ele>
        <time>2009-06-27T12:08:00Z</time>
      </trkpt>
      <trkpt lat="45.16968" lon="4.96197">
        <ele>351.24499511719</ele>
        <time>2009-06-27T12:08:02Z</time>
      </trkpt>
      <trkpt lat="45.1696" lon="4.96183">
        <ele>350.58999633789</ele>
        <time>2009-06-27T12:08:04Z</time>
      </trkpt>
      <trkpt lat="45.16965" lon="4.9614">
        <ele>348.80099487305</ele>
        <time>2009-06-27T12:08:09Z</time>
      </trkpt>
      <trkpt lat="45.16976" lon="4.96128">
        <ele>347.30599975586</ele>
        <time>2009-06-27T12:08:11Z</time>
      </trkpt>
      <trkpt lat="45.16999" lon="4.96116">
        <ele>345.96200561523</ele>
        <time>2009-06-27T12:08:14Z</time>
      </trkpt>
      <trkpt lat="45.17048" lon="4.96091">
        <ele>343.00900268555</ele>
        <time>2009-06-27T12:08:20Z</time>
      </trkpt>
      <trkpt lat="45.17074" lon="4.96077">
        <ele>341.38500976562</ele>
        <time>2009-06-27T12:08:23Z</time>
      </trkpt>
      <trkpt lat="45.17152" lon="4.96038">
        <ele>336.62600708008</ele>
        <time>2009-06-27T12:08:32Z</time>
      </trkpt>
      <trkpt lat="45.1717" lon="4.9603">
        <ele>335.36199951172</ele>
        <time>2009-06-27T12:08:34Z</time>
      </trkpt>
      <trkpt lat="45.17234" lon="4.95999">
        <ele>331.75500488281</ele>
        <time>2009-06-27T12:08:41Z</time>
      </trkpt>
      <trkpt lat="45.17262" lon="4.95987">
        <ele>329.88101196289</ele>
        <time>2009-06-27T12:08:44Z</time>
      </trkpt>
      <trkpt lat="45.17313" lon="4.95971">
        <ele>326.30599975586</ele>
        <time>2009-06-27T12:08:49Z</time>
      </trkpt>
      <trkpt lat="45.17355" lon="4.95957">
        <ele>323.95700073242</ele>
        <time>2009-06-27T12:08:53Z</time>
      </trkpt>
      <trkpt lat="45.17398" lon="4.95944">
        <ele>321.03298950195</ele>
        <time>2009-06-27T12:08:57Z</time>
      </trkpt>
      <trkpt lat="45.17451" lon="4.95884">
        <ele>313.87600708008</ele>
        <time>2009-06-27T12:09:04Z</time>
      </trkpt>
      <trkpt lat="45.17455" lon="4.95869">
        <ele>312.85699462891</ele>
        <time>2009-06-27T12:09:05Z</time>
      </trkpt>
      <trkpt lat="45.1747" lon="4.95809">
        <ele>309.89001464844</ele>
        <time>2009-06-27T12:09:09Z</time>
      </trkpt>
      <trkpt lat="45.17517" lon="4.95735">
        <ele>304.90100097656</ele>
        <time>2009-06-27T12:09:15Z</time>
      </trkpt>
      <trkpt lat="45.17604" lon="4.95697">
        <ele>298.98001098633</ele>
        <time>2009-06-27T12:09:22Z</time>
      </trkpt>
      <trkpt lat="45.17748" lon="4.95642">
        <ele>291</ele>
        <time>2009-06-27T12:09:34Z</time>
      </trkpt>
      <trkpt lat="45.17842" lon="4.95633">
        <ele>287.80999755859</ele>
        <time>2009-06-27T12:09:43Z</time>
      </trkpt>
      <trkpt lat="45.17885" lon="4.95629">
        <ele>286.10900878906</ele>
        <time>2009-06-27T12:09:47Z</time>
      </trkpt>
      <trkpt lat="45.18002" lon="4.95618">
        <ele>283.44799804688</ele>
        <time>2009-06-27T12:09:59Z</time>
      </trkpt>
      <trkpt lat="45.18124" lon="4.95606">
        <ele>280.96099853516</ele>
        <time>2009-06-27T12:10:14Z</time>
      </trkpt>
      <trkpt lat="45.18155" lon="4.95603">
        <ele>280.79800415039</ele>
        <time>2009-06-27T12:10:18Z</time>
      </trkpt>
      <trkpt lat="45.18299" lon="4.95581">
        <ele>278.82998657227</ele>
        <time>2009-06-27T12:10:38Z</time>
      </trkpt>
      <trkpt lat="45.18446" lon="4.95554">
        <ele>276.78298950195</ele>
        <time>2009-06-27T12:10:59Z</time>
      </trkpt>
      <trkpt lat="45.18533" lon="4.95538">
        <ele>278.51000976562</ele>
        <time>2009-06-27T12:11:12Z</time>
      </trkpt>
      <trkpt lat="45.18579" lon="4.95529">
        <ele>278.8869934082</ele>
        <time>2009-06-27T12:11:19Z</time>
      </trkpt>
      <trkpt lat="45.18634" lon="4.95513">
        <ele>279.27899169922</ele>
        <time>2009-06-27T12:11:28Z</time>
      </trkpt>
      <trkpt lat="45.18736" lon="4.95477">
        <ele>280.69900512695</ele>
        <time>2009-06-27T12:11:45Z</time>
      </trkpt>
      <trkpt lat="45.18851" lon="4.95453">
        <ele>281.62100219727</ele>
        <time>2009-06-27T12:12:03Z</time>
      </trkpt>
      <trkpt lat="45.18994" lon="4.9542">
        <ele>280.26501464844</ele>
        <time>2009-06-27T12:12:24Z</time>
      </trkpt>
      <trkpt lat="45.1913" lon="4.95399">
        <ele>279.08401489258</ele>
        <time>2009-06-27T12:12:44Z</time>
      </trkpt>
      <trkpt lat="45.19245" lon="4.95379">
        <ele>279.32598876953</ele>
        <time>2009-06-27T12:13:02Z</time>
      </trkpt>
      <trkpt lat="45.19353" lon="4.95344">
        <ele>280.02499389648</ele>
        <time>2009-06-27T12:13:19Z</time>
      </trkpt>
      <trkpt lat="45.19469" lon="4.95275">
        <ele>281.34298706055</ele>
        <time>2009-06-27T12:13:39Z</time>
      </trkpt>
      <trkpt lat="45.19603" lon="4.95194">
        <ele>282.33401489258</ele>
        <time>2009-06-27T12:14:02Z</time>
      </trkpt>
      <trkpt lat="45.19707" lon="4.95161">
        <ele>276.60998535156</ele>
        <time>2009-06-27T12:14:15Z</time>
      </trkpt>
      <trkpt lat="45.19771" lon="4.9515">
        <ele>274.68099975586</ele>
        <time>2009-06-27T12:14:22Z</time>
      </trkpt>
      <trkpt lat="45.19789" lon="4.95147">
        <ele>273.41598510742</ele>
        <time>2009-06-27T12:14:24Z</time>
      </trkpt>
      <trkpt lat="45.19842" lon="4.9514">
        <ele>272.51000976562</ele>
        <time>2009-06-27T12:14:30Z</time>
      </trkpt>
      <trkpt lat="45.19936" lon="4.95149">
        <ele>271.0119934082</ele>
        <time>2009-06-27T12:14:42Z</time>
      </trkpt>
      <trkpt lat="45.19981" lon="4.95154">
        <ele>270.47698974609</ele>
        <time>2009-06-27T12:14:48Z</time>
      </trkpt>
      <trkpt lat="45.2014" lon="4.9517">
        <ele>270.5719909668</ele>
        <time>2009-06-27T12:15:10Z</time>
      </trkpt>
      <trkpt lat="45.20321" lon="4.95188">
        <ele>270.43600463867</ele>
        <time>2009-06-27T12:15:36Z</time>
      </trkpt>
      <trkpt lat="45.20443" lon="4.95197">
        <ele>270.23599243164</ele>
        <time>2009-06-27T12:15:54Z</time>
      </trkpt>
      <trkpt lat="45.20515" lon="4.95202">
        <ele>269.59399414062</ele>
        <time>2009-06-27T12:16:04Z</time>
      </trkpt>
      <trkpt lat="45.20685" lon="4.95213">
        <ele>266.23098754883</ele>
        <time>2009-06-27T12:16:25Z</time>
      </trkpt>
      <trkpt lat="45.20826" lon="4.9524">
        <ele>262.36801147461</ele>
        <time>2009-06-27T12:16:42Z</time>
      </trkpt>
      <trkpt lat="45.20964" lon="4.9525">
        <ele>259.76501464844</ele>
        <time>2009-06-27T12:16:59Z</time>
      </trkpt>
      <trkpt lat="45.21033" lon="4.95255">
        <ele>259.22900390625</ele>
        <time>2009-06-27T12:17:08Z</time>
      </trkpt>
      <trkpt lat="45.21072" lon="4.95285">
        <ele>261.1549987793</ele>
        <time>2009-06-27T12:17:16Z</time>
      </trkpt>
      <trkpt lat="45.21074" lon="4.95293">
        <ele>261.37298583984</ele>
        <time>2009-06-27T12:17:17Z</time>
      </trkpt>
      <trkpt lat="45.21089" lon="4.95352">
        <ele>263.81500244141</ele>
        <time>2009-06-27T12:17:25Z</time>
      </trkpt>
      <trkpt lat="45.21101" lon="4.95401">
        <ele>265.95199584961</ele>
        <time>2009-06-27T12:17:32Z</time>
      </trkpt>
      <trkpt lat="45.21103" lon="4.95408">
        <ele>266.21499633789</ele>
        <time>2009-06-27T12:17:33Z</time>
      </trkpt>
      <trkpt lat="45.21134" lon="4.95436">
        <ele>268.64498901367</ele>
        <time>2009-06-27T12:17:41Z</time>
      </trkpt>
      <trkpt lat="45.21193" lon="4.95426">
        <ele>268.74600219727</ele>
        <time>2009-06-27T12:17:52Z</time>
      </trkpt>
      <trkpt lat="45.21256" lon="4.95422">
        <ele>269.57598876953</ele>
        <time>2009-06-27T12:18:02Z</time>
      </trkpt>
      <trkpt lat="45.21378" lon="4.95457">
        <ele>268.11801147461</ele>
        <time>2009-06-27T12:18:20Z</time>
      </trkpt>
      <trkpt lat="45.21458" lon="4.95476">
        <ele>268.31900024414</ele>
        <time>2009-06-27T12:18:31Z</time>
      </trkpt>
      <trkpt lat="45.21588" lon="4.95535">
        <ele>267.73001098633</ele>
        <time>2009-06-27T12:18:50Z</time>
      </trkpt>
      <trkpt lat="45.21722" lon="4.95642">
        <ele>270.4289855957</ele>
        <time>2009-06-27T12:19:14Z</time>
      </trkpt>
      <trkpt lat="45.21845" lon="4.95739">
        <ele>269.62899780273</ele>
        <time>2009-06-27T12:19:36Z</time>
      </trkpt>
      <trkpt lat="45.21962" lon="4.95832">
        <ele>271.23999023438</ele>
        <time>2009-06-27T12:19:58Z</time>
      </trkpt>
      <trkpt lat="45.22083" lon="4.95927">
        <ele>272.96499633789</ele>
        <time>2009-06-27T12:20:22Z</time>
      </trkpt>
      <trkpt lat="45.22208" lon="4.96025">
        <ele>272.37799072266</ele>
        <time>2009-06-27T12:20:46Z</time>
      </trkpt>
      <trkpt lat="45.22321" lon="4.96114">
        <ele>272.60299682617</ele>
        <time>2009-06-27T12:21:06Z</time>
      </trkpt>
      <trkpt lat="45.22462" lon="4.96214">
        <ele>272.66000366211</ele>
        <time>2009-06-27T12:21:31Z</time>
      </trkpt>
      <trkpt lat="45.22586" lon="4.96285">
        <ele>270.66799926758</ele>
        <time>2009-06-27T12:21:52Z</time>
      </trkpt>
      <trkpt lat="45.22614" lon="4.96296">
        <ele>269.24798583984</ele>
        <time>2009-06-27T12:21:56Z</time>
      </trkpt>
      <trkpt lat="45.22628" lon="4.96299">
        <ele>268.29400634766</ele>
        <time>2009-06-27T12:21:58Z</time>
      </trkpt>
      <trkpt lat="45.22676" lon="4.96273">
        <ele>266.00698852539</ele>
        <time>2009-06-27T12:22:05Z</time>
      </trkpt>
      <trkpt lat="45.22753" lon="4.96165">
        <ele>263.48498535156</ele>
        <time>2009-06-27T12:22:19Z</time>
      </trkpt>
      <trkpt lat="45.22773" lon="4.96137">
        <ele>263.33700561523</ele>
        <time>2009-06-27T12:22:23Z</time>
      </trkpt>
      <trkpt lat="45.2282" lon="4.96006">
        <ele>265.0419921875</ele>
        <time>2009-06-27T12:22:39Z</time>
      </trkpt>
      <trkpt lat="45.22874" lon="4.95913">
        <ele>267.54000854492</ele>
        <time>2009-06-27T12:22:53Z</time>
      </trkpt>
      <trkpt lat="45.22923" lon="4.95835">
        <ele>267.75601196289</ele>
        <time>2009-06-27T12:23:06Z</time>
      </trkpt>
      <trkpt lat="45.22958" lon="4.95786">
        <ele>268.76699829102</ele>
        <time>2009-06-27T12:23:15Z</time>
      </trkpt>
      <trkpt lat="45.22971" lon="4.95769">
        <ele>268.90701293945</ele>
        <time>2009-06-27T12:23:18Z</time>
      </trkpt>
      <trkpt lat="45.23027" lon="4.95696">
        <ele>270.7080078125</ele>
        <time>2009-06-27T12:23:35Z</time>
      </trkpt>
      <trkpt lat="45.23029" lon="4.95688">
        <ele>271.00100708008</ele>
        <time>2009-06-27T12:23:38Z</time>
      </trkpt>
      <trkpt lat="45.23048" lon="4.95657">
        <ele>272.41500854492</ele>
        <time>2009-06-27T12:23:43Z</time>
      </trkpt>
      <trkpt lat="45.23069" lon="4.95643">
        <ele>272.64001464844</ele>
        <time>2009-06-27T12:23:49Z</time>
      </trkpt>
      <trkpt lat="45.2308" lon="4.95634">
        <ele>272.8330078125</ele>
        <time>2009-06-27T12:23:52Z</time>
      </trkpt>
      <trkpt lat="45.23096" lon="4.95623">
        <ele>273.88198852539</ele>
        <time>2009-06-27T12:23:55Z</time>
      </trkpt>
      <trkpt lat="45.23106" lon="4.95616">
        <ele>274.91299438477</ele>
        <time>2009-06-27T12:23:57Z</time>
      </trkpt>
      <trkpt lat="45.23127" lon="4.95601">
        <ele>276.6780090332</ele>
        <time>2009-06-27T12:24:02Z</time>
      </trkpt>
      <trkpt lat="45.23131" lon="4.95598">
        <ele>276.97399902344</ele>
        <time>2009-06-27T12:24:03Z</time>
      </trkpt>
      <trkpt lat="45.23146" lon="4.95587">
        <ele>277.08700561523</ele>
        <time>2009-06-27T12:24:07Z</time>
      </trkpt>
      <trkpt lat="45.23194" lon="4.95558">
        <ele>280.37701416016</ele>
        <time>2009-06-27T12:24:20Z</time>
      </trkpt>
      <trkpt lat="45.23232" lon="4.95562">
        <ele>284.05200195312</ele>
        <time>2009-06-27T12:24:31Z</time>
      </trkpt>
      <trkpt lat="45.23256" lon="4.95579">
        <ele>286.48098754883</ele>
        <time>2009-06-27T12:24:38Z</time>
      </trkpt>
      <trkpt lat="45.23277" lon="4.95597">
        <ele>288.30700683594</ele>
        <time>2009-06-27T12:24:45Z</time>
      </trkpt>
      <trkpt lat="45.23288" lon="4.95606">
        <ele>289.99600219727</ele>
        <time>2009-06-27T12:24:49Z</time>
      </trkpt>
      <trkpt lat="45.23311" lon="4.9562">
        <ele>293.45599365234</ele>
        <time>2009-06-27T12:25:00Z</time>
      </trkpt>
      <trkpt lat="45.23345" lon="4.95635">
        <ele>296.37899780273</ele>
        <time>2009-06-27T12:25:12Z</time>
      </trkpt>
      <trkpt lat="45.23382" lon="4.95621">
        <ele>299.09298706055</ele>
        <time>2009-06-27T12:25:25Z</time>
      </trkpt>
      <trkpt lat="45.23418" lon="4.95602">
        <ele>301.88598632812</ele>
        <time>2009-06-27T12:25:38Z</time>
      </trkpt>
      <trkpt lat="45.2344" lon="4.95572">
        <ele>304.80700683594</ele>
        <time>2009-06-27T12:25:51Z</time>
      </trkpt>
      <trkpt lat="45.23421" lon="4.95553">
        <ele>306.77099609375</ele>
        <time>2009-06-27T12:26:02Z</time>
      </trkpt>
      <trkpt lat="45.23399" lon="4.95549">
        <ele>308.4169921875</ele>
        <time>2009-06-27T12:26:09Z</time>
      </trkpt>
      <trkpt lat="45.2339" lon="4.95541">
        <ele>309.7380065918</ele>
        <time>2009-06-27T12:26:12Z</time>
      </trkpt>
      <trkpt lat="45.23407" lon="4.95523">
        <ele>310.54400634766</ele>
        <time>2009-06-27T12:26:17Z</time>
      </trkpt>
      <trkpt lat="45.23467" lon="4.95527">
        <ele>314.85000610352</ele>
        <time>2009-06-27T12:26:36Z</time>
      </trkpt>
      <trkpt lat="45.23513" lon="4.95515">
        <ele>318.42599487305</ele>
        <time>2009-06-27T12:26:51Z</time>
      </trkpt>
      <trkpt lat="45.23567" lon="4.9554">
        <ele>322.8450012207</ele>
        <time>2009-06-27T12:27:08Z</time>
      </trkpt>
      <trkpt lat="45.23605" lon="4.95599">
        <ele>326.92599487305</ele>
        <time>2009-06-27T12:27:24Z</time>
      </trkpt>
      <trkpt lat="45.23652" lon="4.95661">
        <ele>331.57598876953</ele>
        <time>2009-06-27T12:27:43Z</time>
      </trkpt>
      <trkpt lat="45.23702" lon="4.95681">
        <ele>335.32800292969</ele>
        <time>2009-06-27T12:27:59Z</time>
      </trkpt>
      <trkpt lat="45.23761" lon="4.95711">
        <ele>339.75698852539</ele>
        <time>2009-06-27T12:28:15Z</time>
      </trkpt>
      <trkpt lat="45.23808" lon="4.95711">
        <ele>343.33599853516</ele>
        <time>2009-06-27T12:28:29Z</time>
      </trkpt>
      <trkpt lat="45.23828" lon="4.95656">
        <ele>346.54098510742</ele>
        <time>2009-06-27T12:28:42Z</time>
      </trkpt>
      <trkpt lat="45.2384" lon="4.95587">
        <ele>350.68798828125</ele>
        <time>2009-06-27T12:28:56Z</time>
      </trkpt>
      <trkpt lat="45.23831" lon="4.9557">
        <ele>352.01599121094</ele>
        <time>2009-06-27T12:29:00Z</time>
      </trkpt>
      <trkpt lat="45.23808" lon="4.95572">
        <ele>353.01599121094</ele>
        <time>2009-06-27T12:29:06Z</time>
      </trkpt>
      <trkpt lat="45.23776" lon="4.9555">
        <ele>355.79699707031</ele>
        <time>2009-06-27T12:29:14Z</time>
      </trkpt>
      <trkpt lat="45.23772" lon="4.95535">
        <ele>356.90600585938</ele>
        <time>2009-06-27T12:29:16Z</time>
      </trkpt>
      <trkpt lat="45.23769" lon="4.95521">
        <ele>357.60800170898</ele>
        <time>2009-06-27T12:29:18Z</time>
      </trkpt>
      <trkpt lat="45.23766" lon="4.95507">
        <ele>358.39898681641</ele>
        <time>2009-06-27T12:29:20Z</time>
      </trkpt>
      <trkpt lat="45.23762" lon="4.95374">
        <ele>365.82901000977</ele>
        <time>2009-06-27T12:29:38Z</time>
      </trkpt>
      <trkpt lat="45.2375" lon="4.95295">
        <ele>370.49600219727</ele>
        <time>2009-06-27T12:29:49Z</time>
      </trkpt>
      <trkpt lat="45.23702" lon="4.95182">
        <ele>375.46899414062</ele>
        <time>2009-06-27T12:30:07Z</time>
      </trkpt>
      <trkpt lat="45.23697" lon="4.9517">
        <ele>375.88400268555</ele>
        <time>2009-06-27T12:30:09Z</time>
      </trkpt>
      <trkpt lat="45.23681" lon="4.95089">
        <ele>380.36700439453</ele>
        <time>2009-06-27T12:30:22Z</time>
      </trkpt>
      <trkpt lat="45.23665" lon="4.94987">
        <ele>384.98599243164</ele>
        <time>2009-06-27T12:30:38Z</time>
      </trkpt>
      <trkpt lat="45.23681" lon="4.94951">
        <ele>388.15701293945</ele>
        <time>2009-06-27T12:30:47Z</time>
      </trkpt>
      <trkpt lat="45.23689" lon="4.94947">
        <ele>388.62100219727</ele>
        <time>2009-06-27T12:30:49Z</time>
      </trkpt>
      <trkpt lat="45.23752" lon="4.94976">
        <ele>392.28698730469</ele>
        <time>2009-06-27T12:31:02Z</time>
      </trkpt>
      <trkpt lat="45.23792" lon="4.94994">
        <ele>394.78601074219</ele>
        <time>2009-06-27T12:31:17Z</time>
      </trkpt>
      <trkpt lat="45.23867" lon="4.9502">
        <ele>396.54400634766</ele>
        <time>2009-06-27T12:31:34Z</time>
      </trkpt>
      <trkpt lat="45.23906" lon="4.95005">
        <ele>396.40200805664</ele>
        <time>2009-06-27T12:31:47Z</time>
      </trkpt>
      <trkpt lat="45.23947" lon="4.94981">
        <ele>396.07299804688</ele>
        <time>2009-06-27T12:31:59Z</time>
      </trkpt>
      <trkpt lat="45.23977" lon="4.94963">
        <ele>395.06600952148</ele>
        <time>2009-06-27T12:32:08Z</time>
      </trkpt>
      <trkpt lat="45.23997" lon="4.94951">
        <ele>393.99600219727</ele>
        <time>2009-06-27T12:32:15Z</time>
      </trkpt>
      <trkpt lat="45.24011" lon="4.94971">
        <ele>393.98001098633</ele>
        <time>2009-06-27T12:32:21Z</time>
      </trkpt>
      <trkpt lat="45.24015" lon="4.94975">
        <ele>393.96398925781</ele>
        <time>2009-06-27T12:32:24Z</time>
      </trkpt>
      <trkpt lat="45.24009" lon="4.94945">
        <ele>394.06698608398</ele>
        <time>2009-06-27T12:32:32Z</time>
      </trkpt>
      <trkpt lat="45.24007" lon="4.94968">
        <ele>394.02398681641</ele>
        <time>2009-06-27T12:32:40Z</time>
      </trkpt>
      <trkpt lat="45.24" lon="4.94963">
        <ele>393.92999267578</ele>
        <time>2009-06-27T12:32:48Z</time>
      </trkpt>
      <trkpt lat="45.24" lon="4.94963">
        <ele>394.17098999023</ele>
        <time>2009-06-27T12:32:49Z</time>
      </trkpt>
      <trkpt lat="45.23997" lon="4.94952">
        <ele>393.58599853516</ele>
        <time>2009-06-27T12:34:40Z</time>
      </trkpt>
      <trkpt lat="45.24012" lon="4.94943">
        <ele>392.99398803711</ele>
        <time>2009-06-27T12:34:47Z</time>
      </trkpt>
      <trkpt lat="45.24079" lon="4.94907">
        <ele>388.53799438477</ele>
        <time>2009-06-27T12:35:01Z</time>
      </trkpt>
      <trkpt lat="45.24118" lon="4.94893">
        <ele>385.97698974609</ele>
        <time>2009-06-27T12:35:08Z</time>
      </trkpt>
      <trkpt lat="45.24136" lon="4.94891">
        <ele>384.64700317383</ele>
        <time>2009-06-27T12:35:11Z</time>
      </trkpt>
      <trkpt lat="45.24235" lon="4.94902">
        <ele>378.95098876953</ele>
        <time>2009-06-27T12:35:24Z</time>
      </trkpt>
      <trkpt lat="45.2428" lon="4.94889">
        <ele>376.03698730469</ele>
        <time>2009-06-27T12:35:29Z</time>
      </trkpt>
      <trkpt lat="45.24434" lon="4.94832">
        <ele>367.08499145508</ele>
        <time>2009-06-27T12:35:44Z</time>
      </trkpt>
      <trkpt lat="45.24482" lon="4.94819">
        <ele>365.22299194336</ele>
        <time>2009-06-27T12:35:48Z</time>
      </trkpt>
      <trkpt lat="45.2452" lon="4.94807">
        <ele>362.76501464844</ele>
        <time>2009-06-27T12:35:51Z</time>
      </trkpt>
      <trkpt lat="45.24533" lon="4.94803">
        <ele>361.96499633789</ele>
        <time>2009-06-27T12:35:52Z</time>
      </trkpt>
      <trkpt lat="45.24546" lon="4.94799">
        <ele>359.86999511719</ele>
        <time>2009-06-27T12:35:53Z</time>
      </trkpt>
      <trkpt lat="45.24588" lon="4.94786">
        <ele>358.01998901367</ele>
        <time>2009-06-27T12:35:56Z</time>
      </trkpt>
      <trkpt lat="45.24629" lon="4.94768">
        <ele>355.35501098633</ele>
        <time>2009-06-27T12:35:59Z</time>
      </trkpt>
      <trkpt lat="45.24657" lon="4.94755">
        <ele>353.86499023438</ele>
        <time>2009-06-27T12:36:01Z</time>
      </trkpt>
      <trkpt lat="45.247" lon="4.94735">
        <ele>350.4580078125</ele>
        <time>2009-06-27T12:36:04Z</time>
      </trkpt>
      <trkpt lat="45.24757" lon="4.94713">
        <ele>346.9880065918</ele>
        <time>2009-06-27T12:36:08Z</time>
      </trkpt>
      <trkpt lat="45.24817" lon="4.94705">
        <ele>343.14300537109</ele>
        <time>2009-06-27T12:36:12Z</time>
      </trkpt>
      <trkpt lat="45.24832" lon="4.94703">
        <ele>343.03601074219</ele>
        <time>2009-06-27T12:36:13Z</time>
      </trkpt>
      <trkpt lat="45.24874" lon="4.94697">
        <ele>341.46899414062</ele>
        <time>2009-06-27T12:36:16Z</time>
      </trkpt>
      <trkpt lat="45.24945" lon="4.94729">
        <ele>336.22299194336</ele>
        <time>2009-06-27T12:36:22Z</time>
      </trkpt>
      <trkpt lat="45.24965" lon="4.94751">
        <ele>335.19400024414</ele>
        <time>2009-06-27T12:36:24Z</time>
      </trkpt>
      <trkpt lat="45.25006" lon="4.9479">
        <ele>331.61801147461</ele>
        <time>2009-06-27T12:36:28Z</time>
      </trkpt>
      <trkpt lat="45.2509" lon="4.94815">
        <ele>327.70300292969</ele>
        <time>2009-06-27T12:36:35Z</time>
      </trkpt>
      <trkpt lat="45.25185" lon="4.94843">
        <ele>322.0830078125</ele>
        <time>2009-06-27T12:36:43Z</time>
      </trkpt>
      <trkpt lat="45.25252" lon="4.94874">
        <ele>318.63198852539</ele>
        <time>2009-06-27T12:36:49Z</time>
      </trkpt>
      <trkpt lat="45.25284" lon="4.94888">
        <ele>317.99700927734</ele>
        <time>2009-06-27T12:36:52Z</time>
      </trkpt>
      <trkpt lat="45.25359" lon="4.9496">
        <ele>316.29299926758</ele>
        <time>2009-06-27T12:37:03Z</time>
      </trkpt>
      <trkpt lat="45.25385" lon="4.94998">
        <ele>315.68301391602</ele>
        <time>2009-06-27T12:37:06Z</time>
      </trkpt>
      <trkpt lat="45.25401" lon="4.95029">
        <ele>314.31298828125</ele>
        <time>2009-06-27T12:37:09Z</time>
      </trkpt>
      <trkpt lat="45.25419" lon="4.95067">
        <ele>312.55200195312</ele>
        <time>2009-06-27T12:37:14Z</time>
      </trkpt>
      <trkpt lat="45.25419" lon="4.95067">
        <ele>312.25900268555</ele>
        <time>2009-06-27T12:37:15Z</time>
      </trkpt>
      <trkpt lat="45.25447" lon="4.95129">
        <ele>310.50299072266</ele>
        <time>2009-06-27T12:37:18Z</time>
      </trkpt>
      <trkpt lat="45.25471" lon="4.95151">
        <ele>308.44400024414</ele>
        <time>2009-06-27T12:37:21Z</time>
      </trkpt>
      <trkpt lat="45.25531" lon="4.95173">
        <ele>303.6789855957</ele>
        <time>2009-06-27T12:37:27Z</time>
      </trkpt>
      <trkpt lat="45.25549" lon="4.95183">
        <ele>302.3219909668</ele>
        <time>2009-06-27T12:37:29Z</time>
      </trkpt>
      <trkpt lat="45.25563" lon="4.95192">
        <ele>301.58898925781</ele>
        <time>2009-06-27T12:37:31Z</time>
      </trkpt>
      <trkpt lat="45.25582" lon="4.95203">
        <ele>299.9580078125</ele>
        <time>2009-06-27T12:37:37Z</time>
      </trkpt>
      <trkpt lat="45.25592" lon="4.95157">
        <ele>299</ele>
        <time>2009-06-27T12:37:49Z</time>
      </trkpt>
      <trkpt lat="45.25609" lon="4.95072">
        <ele>297.05200195312</ele>
        <time>2009-06-27T12:38:01Z</time>
      </trkpt>
      <trkpt lat="45.25643" lon="4.94904">
        <ele>294.20498657227</ele>
        <time>2009-06-27T12:38:16Z</time>
      </trkpt>
      <trkpt lat="45.25665" lon="4.94801">
        <ele>291.43301391602</ele>
        <time>2009-06-27T12:38:24Z</time>
      </trkpt>
      <trkpt lat="45.25732" lon="4.94524">
        <ele>288.52700805664</ele>
        <time>2009-06-27T12:38:46Z</time>
      </trkpt>
      <trkpt lat="45.25777" lon="4.9434">
        <ele>285.05801391602</ele>
        <time>2009-06-27T12:39:01Z</time>
      </trkpt>
      <trkpt lat="45.2577" lon="4.9426">
        <ele>284.0719909668</ele>
        <time>2009-06-27T12:39:08Z</time>
      </trkpt>
      <trkpt lat="45.25759" lon="4.94244">
        <ele>284.8210144043</ele>
        <time>2009-06-27T12:39:10Z</time>
      </trkpt>
      <trkpt lat="45.25703" lon="4.94162">
        <ele>286.18499755859</ele>
        <time>2009-06-27T12:39:21Z</time>
      </trkpt>
      <trkpt lat="45.25679" lon="4.94125">
        <ele>286.10198974609</ele>
        <time>2009-06-27T12:39:26Z</time>
      </trkpt>
      <trkpt lat="45.25662" lon="4.94057">
        <ele>285.30599975586</ele>
        <time>2009-06-27T12:39:33Z</time>
      </trkpt>
      <trkpt lat="45.25657" lon="4.93899">
        <ele>282.9880065918</ele>
        <time>2009-06-27T12:39:47Z</time>
      </trkpt>
      <trkpt lat="45.25624" lon="4.93798">
        <ele>279.7799987793</ele>
        <time>2009-06-27T12:39:56Z</time>
      </trkpt>
      <trkpt lat="45.25556" lon="4.93618">
        <ele>275.17199707031</ele>
        <time>2009-06-27T12:40:10Z</time>
      </trkpt>
      <trkpt lat="45.25512" lon="4.93435">
        <ele>271.97299194336</ele>
        <time>2009-06-27T12:40:23Z</time>
      </trkpt>
      <trkpt lat="45.25484" lon="4.93378">
        <ele>271.85198974609</ele>
        <time>2009-06-27T12:40:28Z</time>
      </trkpt>
      <trkpt lat="45.25378" lon="4.93294">
        <ele>273.59298706055</ele>
        <time>2009-06-27T12:40:42Z</time>
      </trkpt>
      <trkpt lat="45.25301" lon="4.93226">
        <ele>274.35598754883</ele>
        <time>2009-06-27T12:40:53Z</time>
      </trkpt>
      <trkpt lat="45.25237" lon="4.93129">
        <ele>275.51998901367</ele>
        <time>2009-06-27T12:41:04Z</time>
      </trkpt>
      <trkpt lat="45.25197" lon="4.93064">
        <ele>276.33099365234</ele>
        <time>2009-06-27T12:41:11Z</time>
      </trkpt>
      <trkpt lat="45.25145" lon="4.9298">
        <ele>277.55200195312</ele>
        <time>2009-06-27T12:41:20Z</time>
      </trkpt>
      <trkpt lat="45.25127" lon="4.92952">
        <ele>277.76000976562</ele>
        <time>2009-06-27T12:41:23Z</time>
      </trkpt>
      <trkpt lat="45.25082" lon="4.92799">
        <ele>275.11898803711</ele>
        <time>2009-06-27T12:41:35Z</time>
      </trkpt>
      <trkpt lat="45.25063" lon="4.92715">
        <ele>274.93600463867</ele>
        <time>2009-06-27T12:41:41Z</time>
      </trkpt>
      <trkpt lat="45.25069" lon="4.92645">
        <ele>274.36898803711</ele>
        <time>2009-06-27T12:41:46Z</time>
      </trkpt>
      <trkpt lat="45.25118" lon="4.92475">
        <ele>271.33200073242</ele>
        <time>2009-06-27T12:41:58Z</time>
      </trkpt>
      <trkpt lat="45.25127" lon="4.92338">
        <ele>267.75799560547</ele>
        <time>2009-06-27T12:42:07Z</time>
      </trkpt>
      <trkpt lat="45.25127" lon="4.92322">
        <ele>267.50399780273</ele>
        <time>2009-06-27T12:42:08Z</time>
      </trkpt>
      <trkpt lat="45.25127" lon="4.92261">
        <ele>266.04098510742</ele>
        <time>2009-06-27T12:42:12Z</time>
      </trkpt>
      <trkpt lat="45.25127" lon="4.92209">
        <ele>264.9469909668</ele>
        <time>2009-06-27T12:42:17Z</time>
      </trkpt>
      <trkpt lat="45.25145" lon="4.92206">
        <ele>264.41900634766</ele>
        <time>2009-06-27T12:42:24Z</time>
      </trkpt>
      <trkpt lat="45.25217" lon="4.92158">
        <ele>262.10900878906</ele>
        <time>2009-06-27T12:42:34Z</time>
      </trkpt>
      <trkpt lat="45.25279" lon="4.92113">
        <ele>259.10101318359</ele>
        <time>2009-06-27T12:42:42Z</time>
      </trkpt>
      <trkpt lat="45.2533" lon="4.92075">
        <ele>256.10900878906</ele>
        <time>2009-06-27T12:42:48Z</time>
      </trkpt>
      <trkpt lat="45.25381" lon="4.92035">
        <ele>255.86099243164</ele>
        <time>2009-06-27T12:42:54Z</time>
      </trkpt>
      <trkpt lat="45.25405" lon="4.92004">
        <ele>257.5950012207</ele>
        <time>2009-06-27T12:42:58Z</time>
      </trkpt>
      <trkpt lat="45.2541" lon="4.91959">
        <ele>258.83999633789</ele>
        <time>2009-06-27T12:43:03Z</time>
      </trkpt>
      <trkpt lat="45.25407" lon="4.91888">
        <ele>260.16000366211</ele>
        <time>2009-06-27T12:43:11Z</time>
      </trkpt>
      <trkpt lat="45.25388" lon="4.91776">
        <ele>262.56698608398</ele>
        <time>2009-06-27T12:43:25Z</time>
      </trkpt>
      <trkpt lat="45.25377" lon="4.91743">
        <ele>264.06500244141</ele>
        <time>2009-06-27T12:43:30Z</time>
      </trkpt>
      <trkpt lat="45.25349" lon="4.91706">
        <ele>267.40600585938</ele>
        <time>2009-06-27T12:43:40Z</time>
      </trkpt>
      <trkpt lat="45.25325" lon="4.91683">
        <ele>269.85699462891</ele>
        <time>2009-06-27T12:43:48Z</time>
      </trkpt>
      <trkpt lat="45.25315" lon="4.9167">
        <ele>271.27801513672</ele>
        <time>2009-06-27T12:43:52Z</time>
      </trkpt>
      <trkpt lat="45.253" lon="4.91621">
        <ele>274.85101318359</ele>
        <time>2009-06-27T12:44:03Z</time>
      </trkpt>
      <trkpt lat="45.25306" lon="4.91557">
        <ele>278.91598510742</ele>
        <time>2009-06-27T12:44:15Z</time>
      </trkpt>
      <trkpt lat="45.25292" lon="4.91492">
        <ele>282.6369934082</ele>
        <time>2009-06-27T12:44:28Z</time>
      </trkpt>
      <trkpt lat="45.2527" lon="4.91454">
        <ele>284.8869934082</ele>
        <time>2009-06-27T12:44:38Z</time>
      </trkpt>
      <trkpt lat="45.25247" lon="4.91395">
        <ele>288.79299926758</ele>
        <time>2009-06-27T12:44:52Z</time>
      </trkpt>
      <trkpt lat="45.25263" lon="4.9135">
        <ele>291.72299194336</ele>
        <time>2009-06-27T12:45:03Z</time>
      </trkpt>
      <trkpt lat="45.25313" lon="4.91314">
        <ele>295.22601318359</ele>
        <time>2009-06-27T12:45:17Z</time>
      </trkpt>
      <trkpt lat="45.2536" lon="4.91262">
        <ele>299.48599243164</ele>
        <time>2009-06-27T12:45:32Z</time>
      </trkpt>
      <trkpt lat="45.25412" lon="4.91222">
        <ele>304.14401245117</ele>
        <time>2009-06-27T12:45:48Z</time>
      </trkpt>
      <trkpt lat="45.25415" lon="4.91221">
        <ele>304.28399658203</ele>
        <time>2009-06-27T12:45:49Z</time>
      </trkpt>
      <trkpt lat="45.25431" lon="4.91218">
        <ele>305.78100585938</ele>
        <time>2009-06-27T12:45:53Z</time>
      </trkpt>
      <trkpt lat="45.25485" lon="4.91244">
        <ele>310.41299438477</ele>
        <time>2009-06-27T12:46:08Z</time>
      </trkpt>
      <trkpt lat="45.25494" lon="4.91249">
        <ele>311.52801513672</ele>
        <time>2009-06-27T12:46:11Z</time>
      </trkpt>
      <trkpt lat="45.25513" lon="4.91234">
        <ele>313.08200073242</ele>
        <time>2009-06-27T12:46:17Z</time>
      </trkpt>
      <trkpt lat="45.25511" lon="4.91187">
        <ele>315.82800292969</ele>
        <time>2009-06-27T12:46:27Z</time>
      </trkpt>
      <trkpt lat="45.25492" lon="4.91128">
        <ele>320.01000976562</ele>
        <time>2009-06-27T12:46:39Z</time>
      </trkpt>
      <trkpt lat="45.25459" lon="4.91083">
        <ele>322.88198852539</ele>
        <time>2009-06-27T12:46:51Z</time>
      </trkpt>
      <trkpt lat="45.25416" lon="4.91029">
        <ele>327.34100341797</ele>
        <time>2009-06-27T12:47:06Z</time>
      </trkpt>
      <trkpt lat="45.25389" lon="4.90969">
        <ele>331.25500488281</ele>
        <time>2009-06-27T12:47:21Z</time>
      </trkpt>
      <trkpt lat="45.254" lon="4.90904">
        <ele>335.67401123047</ele>
        <time>2009-06-27T12:47:35Z</time>
      </trkpt>
      <trkpt lat="45.25415" lon="4.90863">
        <ele>338.42001342773</ele>
        <time>2009-06-27T12:47:44Z</time>
      </trkpt>
      <trkpt lat="45.25436" lon="4.90791">
        <ele>342.5419921875</ele>
        <time>2009-06-27T12:47:58Z</time>
      </trkpt>
      <trkpt lat="45.25424" lon="4.90723">
        <ele>346.28298950195</ele>
        <time>2009-06-27T12:48:11Z</time>
      </trkpt>
      <trkpt lat="45.25411" lon="4.9067">
        <ele>349.96200561523</ele>
        <time>2009-06-27T12:48:22Z</time>
      </trkpt>
      <trkpt lat="45.25395" lon="4.90613">
        <ele>353.26599121094</ele>
        <time>2009-06-27T12:48:34Z</time>
      </trkpt>
      <trkpt lat="45.25375" lon="4.90568">
        <ele>356.04901123047</ele>
        <time>2009-06-27T12:48:45Z</time>
      </trkpt>
      <trkpt lat="45.25345" lon="4.90517">
        <ele>359.75</ele>
        <time>2009-06-27T12:48:59Z</time>
      </trkpt>
      <trkpt lat="45.25328" lon="4.90486">
        <ele>361.88198852539</ele>
        <time>2009-06-27T12:49:09Z</time>
      </trkpt>
      <trkpt lat="45.25309" lon="4.90453">
        <ele>364.54501342773</ele>
        <time>2009-06-27T12:49:21Z</time>
      </trkpt>
      <trkpt lat="45.2532" lon="4.90404">
        <ele>366.87701416016</ele>
        <time>2009-06-27T12:49:36Z</time>
      </trkpt>
      <trkpt lat="45.25341" lon="4.90394">
        <ele>366.71701049805</ele>
        <time>2009-06-27T12:49:48Z</time>
      </trkpt>
      <trkpt lat="45.25373" lon="4.90424">
        <ele>366.65600585938</ele>
        <time>2009-06-27T12:49:58Z</time>
      </trkpt>
      <trkpt lat="45.25389" lon="4.90439">
        <ele>365.93301391602</ele>
        <time>2009-06-27T12:50:05Z</time>
      </trkpt>
      <trkpt lat="45.2539" lon="4.9044">
        <ele>365.7919921875</ele>
        <time>2009-06-27T12:50:08Z</time>
      </trkpt>
      <trkpt lat="45.25393" lon="4.90442">
        <ele>365.8869934082</ele>
        <time>2009-06-27T12:50:24Z</time>
      </trkpt>
      <trkpt lat="45.25394" lon="4.90443">
        <ele>365.92999267578</ele>
        <time>2009-06-27T12:50:25Z</time>
      </trkpt>
      <trkpt lat="45.25419" lon="4.90467">
        <ele>364.97601318359</ele>
        <time>2009-06-27T12:50:37Z</time>
      </trkpt>
      <trkpt lat="45.25428" lon="4.90471">
        <ele>364.77899169922</ele>
        <time>2009-06-27T12:50:40Z</time>
      </trkpt>
      <trkpt lat="45.25435" lon="4.90475">
        <ele>364.31298828125</ele>
        <time>2009-06-27T12:50:42Z</time>
      </trkpt>
      <trkpt lat="45.25451" lon="4.90472">
        <ele>363.36199951172</ele>
        <time>2009-06-27T12:50:46Z</time>
      </trkpt>
      <trkpt lat="45.25475" lon="4.90441">
        <ele>362.46499633789</ele>
        <time>2009-06-27T12:50:52Z</time>
      </trkpt>
      <trkpt lat="45.25498" lon="4.90425">
        <ele>361.68600463867</ele>
        <time>2009-06-27T12:50:59Z</time>
      </trkpt>
      <trkpt lat="45.25536" lon="4.90424">
        <ele>360.78100585938</ele>
        <time>2009-06-27T12:51:12Z</time>
      </trkpt>
      <trkpt lat="45.25583" lon="4.90436">
        <ele>360.76699829102</ele>
        <time>2009-06-27T12:51:22Z</time>
      </trkpt>
      <trkpt lat="45.25639" lon="4.90482">
        <ele>354.64898681641</ele>
        <time>2009-06-27T12:51:33Z</time>
      </trkpt>
      <trkpt lat="45.25647" lon="4.90493">
        <ele>354.64700317383</ele>
        <time>2009-06-27T12:51:35Z</time>
      </trkpt>
      <trkpt lat="45.25665" lon="4.90522">
        <ele>352.0950012207</ele>
        <time>2009-06-27T12:51:41Z</time>
      </trkpt>
      <trkpt lat="45.2567" lon="4.90509">
        <ele>352.08200073242</ele>
        <time>2009-06-27T12:51:45Z</time>
      </trkpt>
      <trkpt lat="45.25658" lon="4.90404">
        <ele>352.04699707031</ele>
        <time>2009-06-27T12:51:57Z</time>
      </trkpt>
      <trkpt lat="45.25656" lon="4.90371">
        <ele>352.02899169922</ele>
        <time>2009-06-27T12:52:00Z</time>
      </trkpt>
      <trkpt lat="45.25653" lon="4.9033">
        <ele>342.42300415039</ele>
        <time>2009-06-27T12:52:04Z</time>
      </trkpt>
      <trkpt lat="45.25646" lon="4.90301">
        <ele>342.40399169922</ele>
        <time>2009-06-27T12:52:07Z</time>
      </trkpt>
      <trkpt lat="45.25628" lon="4.90217">
        <ele>337.7380065918</ele>
        <time>2009-06-27T12:52:15Z</time>
      </trkpt>
      <trkpt lat="45.25623" lon="4.90187">
        <ele>337.57299804688</ele>
        <time>2009-06-27T12:52:18Z</time>
      </trkpt>
      <trkpt lat="45.25623" lon="4.90048">
        <ele>337.52301025391</ele>
        <time>2009-06-27T12:52:31Z</time>
      </trkpt>
      <trkpt lat="45.25624" lon="4.90037">
        <ele>337.51699829102</ele>
        <time>2009-06-27T12:52:32Z</time>
      </trkpt>
      <trkpt lat="45.25669" lon="4.89897">
        <ele>323.51998901367</ele>
        <time>2009-06-27T12:52:44Z</time>
      </trkpt>
      <trkpt lat="45.25674" lon="4.89885">
        <ele>323.51998901367</ele>
        <time>2009-06-27T12:52:45Z</time>
      </trkpt>
      <trkpt lat="45.25748" lon="4.89732">
        <ele>313.92700195312</ele>
        <time>2009-06-27T12:52:57Z</time>
      </trkpt>
      <trkpt lat="45.25769" lon="4.8967">
        <ele>310.41400146484</ele>
        <time>2009-06-27T12:53:01Z</time>
      </trkpt>
      <trkpt lat="45.25768" lon="4.89593">
        <ele>305.29501342773</ele>
        <time>2009-06-27T12:53:06Z</time>
      </trkpt>
      <trkpt lat="45.25748" lon="4.89577">
        <ele>304.02600097656</ele>
        <time>2009-06-27T12:53:08Z</time>
      </trkpt>
      <trkpt lat="45.25731" lon="4.89563">
        <ele>303.08099365234</ele>
        <time>2009-06-27T12:53:10Z</time>
      </trkpt>
      <trkpt lat="45.25727" lon="4.89523">
        <ele>300.04699707031</ele>
        <time>2009-06-27T12:53:14Z</time>
      </trkpt>
      <trkpt lat="45.2577" lon="4.89475">
        <ele>296.67599487305</ele>
        <time>2009-06-27T12:53:19Z</time>
      </trkpt>
      <trkpt lat="45.25776" lon="4.89392">
        <ele>293.05599975586</ele>
        <time>2009-06-27T12:53:24Z</time>
      </trkpt>
      <trkpt lat="45.25784" lon="4.89381">
        <ele>290.3039855957</ele>
        <time>2009-06-27T12:53:28Z</time>
      </trkpt>
      <trkpt lat="45.25792" lon="4.89403">
        <ele>289.51998901367</ele>
        <time>2009-06-27T12:53:30Z</time>
      </trkpt>
      <trkpt lat="45.25801" lon="4.8944">
        <ele>287.73699951172</ele>
        <time>2009-06-27T12:53:33Z</time>
      </trkpt>
      <trkpt lat="45.25816" lon="4.89494">
        <ele>284.21899414062</ele>
        <time>2009-06-27T12:53:37Z</time>
      </trkpt>
      <trkpt lat="45.25863" lon="4.89529">
        <ele>280.34899902344</ele>
        <time>2009-06-27T12:53:42Z</time>
      </trkpt>
      <trkpt lat="45.25932" lon="4.89544">
        <ele>276.03298950195</ele>
        <time>2009-06-27T12:53:48Z</time>
      </trkpt>
      <trkpt lat="45.25994" lon="4.89591">
        <ele>271.4049987793</ele>
        <time>2009-06-27T12:53:54Z</time>
      </trkpt>
      <trkpt lat="45.26052" lon="4.89657">
        <ele>265.56698608398</ele>
        <time>2009-06-27T12:54:00Z</time>
      </trkpt>
      <trkpt lat="45.2606" lon="4.8967">
        <ele>265.51501464844</ele>
        <time>2009-06-27T12:54:01Z</time>
      </trkpt>
      <trkpt lat="45.2614" lon="4.8982">
        <ele>256.66500854492</ele>
        <time>2009-06-27T12:54:12Z</time>
      </trkpt>
      <trkpt lat="45.26173" lon="4.89866">
        <ele>253.55000305176</ele>
        <time>2009-06-27T12:54:16Z</time>
      </trkpt>
      <trkpt lat="45.26194" lon="4.89884">
        <ele>251.72500610352</ele>
        <time>2009-06-27T12:54:18Z</time>
      </trkpt>
      <trkpt lat="45.26237" lon="4.89886">
        <ele>246.82000732422</ele>
        <time>2009-06-27T12:54:23Z</time>
      </trkpt>
      <trkpt lat="45.26252" lon="4.89863">
        <ele>245.17700195312</ele>
        <time>2009-06-27T12:54:25Z</time>
      </trkpt>
      <trkpt lat="45.26277" lon="4.89797">
        <ele>240.65100097656</ele>
        <time>2009-06-27T12:54:30Z</time>
      </trkpt>
      <trkpt lat="45.26345" lon="4.89758">
        <ele>236.70799255371</ele>
        <time>2009-06-27T12:54:36Z</time>
      </trkpt>
      <trkpt lat="45.26467" lon="4.89723">
        <ele>226.10099792481</ele>
        <time>2009-06-27T12:54:46Z</time>
      </trkpt>
      <trkpt lat="45.26492" lon="4.89719">
        <ele>225.34599304199</ele>
        <time>2009-06-27T12:54:48Z</time>
      </trkpt>
      <trkpt lat="45.26529" lon="4.89712">
        <ele>223.24699401856</ele>
        <time>2009-06-27T12:54:51Z</time>
      </trkpt>
      <trkpt lat="45.26593" lon="4.89677">
        <ele>219.51699829102</ele>
        <time>2009-06-27T12:54:57Z</time>
      </trkpt>
      <trkpt lat="45.26605" lon="4.89649">
        <ele>218.36099243164</ele>
        <time>2009-06-27T12:54:59Z</time>
      </trkpt>
      <trkpt lat="45.26617" lon="4.89622">
        <ele>217.31799316406</ele>
        <time>2009-06-27T12:55:01Z</time>
      </trkpt>
      <trkpt lat="45.26628" lon="4.89594">
        <ele>216.86700439453</ele>
        <time>2009-06-27T12:55:03Z</time>
      </trkpt>
      <trkpt lat="45.26645" lon="4.89553">
        <ele>215.28399658203</ele>
        <time>2009-06-27T12:55:06Z</time>
      </trkpt>
      <trkpt lat="45.26675" lon="4.89528">
        <ele>212.26100158691</ele>
        <time>2009-06-27T12:55:09Z</time>
      </trkpt>
      <trkpt lat="45.26841" lon="4.89438">
        <ele>208.60299682617</ele>
        <time>2009-06-27T12:55:25Z</time>
      </trkpt>
      <trkpt lat="45.26884" lon="4.89416">
        <ele>208.37100219727</ele>
        <time>2009-06-27T12:55:30Z</time>
      </trkpt>
      <trkpt lat="45.26912" lon="4.89384">
        <ele>207.61999511719</ele>
        <time>2009-06-27T12:55:34Z</time>
      </trkpt>
      <trkpt lat="45.26943" lon="4.89368">
        <ele>206.80000305176</ele>
        <time>2009-06-27T12:55:38Z</time>
      </trkpt>
      <trkpt lat="45.27015" lon="4.89351">
        <ele>210.41299438477</ele>
        <time>2009-06-27T12:55:50Z</time>
      </trkpt>
      <trkpt lat="45.27062" lon="4.89336">
        <ele>212.85400390625</ele>
        <time>2009-06-27T12:56:01Z</time>
      </trkpt>
      <trkpt lat="45.2709" lon="4.89323">
        <ele>214.55799865723</ele>
        <time>2009-06-27T12:56:08Z</time>
      </trkpt>
      <trkpt lat="45.2711" lon="4.89313">
        <ele>215.91000366211</ele>
        <time>2009-06-27T12:56:14Z</time>
      </trkpt>
      <trkpt lat="45.2715" lon="4.89285">
        <ele>219.03300476074</ele>
        <time>2009-06-27T12:56:26Z</time>
      </trkpt>
      <trkpt lat="45.27164" lon="4.89275">
        <ele>220.51100158691</ele>
        <time>2009-06-27T12:56:31Z</time>
      </trkpt>
      <trkpt lat="45.2718" lon="4.89271">
        <ele>221.53399658203</ele>
        <time>2009-06-27T12:56:34Z</time>
      </trkpt>
      <trkpt lat="45.27183" lon="4.89279">
        <ele>221.97300720215</ele>
        <time>2009-06-27T12:56:38Z</time>
      </trkpt>
      <trkpt lat="45.2719" lon="4.89302">
        <ele>222.17399597168</ele>
        <time>2009-06-27T12:56:51Z</time>
      </trkpt>
      <trkpt lat="45.27195" lon="4.89316">
        <ele>222.3690032959</ele>
        <time>2009-06-27T12:56:59Z</time>
      </trkpt>
      <trkpt lat="45.27206" lon="4.89351">
        <ele>222.57499694824</ele>
        <time>2009-06-27T12:57:10Z</time>
      </trkpt>
      <trkpt lat="45.27217" lon="4.89385">
        <ele>222.81399536133</ele>
        <time>2009-06-27T12:57:17Z</time>
      </trkpt>
      <trkpt lat="45.27248" lon="4.89464">
        <ele>223.15199279785</ele>
        <time>2009-06-27T12:57:32Z</time>
      </trkpt>
      <trkpt lat="45.2729" lon="4.89574">
        <ele>224.03100585938</ele>
        <time>2009-06-27T12:57:51Z</time>
      </trkpt>
      <trkpt lat="45.27311" lon="4.89634">
        <ele>224.12199401856</ele>
        <time>2009-06-27T12:58:01Z</time>
      </trkpt>
      <trkpt lat="45.27334" lon="4.8969">
        <ele>224.20500183106</ele>
        <time>2009-06-27T12:58:12Z</time>
      </trkpt>
      <trkpt lat="45.27338" lon="4.89697">
        <ele>224.22599792481</ele>
        <time>2009-06-27T12:58:14Z</time>
      </trkpt>
      <trkpt lat="45.27357" lon="4.89698">
        <ele>224.50100708008</ele>
        <time>2009-06-27T12:58:21Z</time>
      </trkpt>
      <trkpt lat="45.27428" lon="4.89688">
        <ele>224.18800354004</ele>
        <time>2009-06-27T12:58:36Z</time>
      </trkpt>
      <trkpt lat="45.27433" lon="4.89689">
        <ele>224.18699645996</ele>
        <time>2009-06-27T12:58:37Z</time>
      </trkpt>
      <trkpt lat="45.27453" lon="4.89693">
        <ele>224.03500366211</ele>
        <time>2009-06-27T12:58:41Z</time>
      </trkpt>
      <trkpt lat="45.27504" lon="4.89741">
        <ele>224.86399841309</ele>
        <time>2009-06-27T12:58:53Z</time>
      </trkpt>
      <trkpt lat="45.2756" lon="4.89794">
        <ele>225.39999389648</ele>
        <time>2009-06-27T12:59:06Z</time>
      </trkpt>
      <trkpt lat="45.27649" lon="4.89886">
        <ele>226.12600708008</ele>
        <time>2009-06-27T12:59:26Z</time>
      </trkpt>
      <trkpt lat="45.27692" lon="4.89947">
        <ele>226.48599243164</ele>
        <time>2009-06-27T12:59:37Z</time>
      </trkpt>
      <trkpt lat="45.27776" lon="4.90063">
        <ele>225.68699645996</ele>
        <time>2009-06-27T12:59:57Z</time>
      </trkpt>
      <trkpt lat="45.27807" lon="4.90091">
        <ele>223.45899963379</ele>
        <time>2009-06-27T13:00:02Z</time>
      </trkpt>
      <trkpt lat="45.27843" lon="4.90121">
        <ele>220.28999328613</ele>
        <time>2009-06-27T13:00:07Z</time>
      </trkpt>
      <trkpt lat="45.27869" lon="4.90157">
        <ele>217.60099792481</ele>
        <time>2009-06-27T13:00:11Z</time>
      </trkpt>
      <trkpt lat="45.27898" lon="4.90215">
        <ele>213.89500427246</ele>
        <time>2009-06-27T13:00:16Z</time>
      </trkpt>
      <trkpt lat="45.27904" lon="4.90227">
        <ele>213.38600158691</ele>
        <time>2009-06-27T13:00:17Z</time>
      </trkpt>
      <trkpt lat="45.27925" lon="4.90259">
        <ele>211.56399536133</ele>
        <time>2009-06-27T13:00:20Z</time>
      </trkpt>
      <trkpt lat="45.27952" lon="4.90281">
        <ele>208.67799377441</ele>
        <time>2009-06-27T13:00:23Z</time>
      </trkpt>
      <trkpt lat="45.28011" lon="4.90311">
        <ele>205.8869934082</ele>
        <time>2009-06-27T13:00:29Z</time>
      </trkpt>
      <trkpt lat="45.2802" lon="4.90316">
        <ele>205.40299987793</ele>
        <time>2009-06-27T13:00:30Z</time>
      </trkpt>
      <trkpt lat="45.28048" lon="4.90334">
        <ele>203.44900512695</ele>
        <time>2009-06-27T13:00:33Z</time>
      </trkpt>
      <trkpt lat="45.28056" lon="4.90341">
        <ele>203.32000732422</ele>
        <time>2009-06-27T13:00:34Z</time>
      </trkpt>
      <trkpt lat="45.28123" lon="4.90454">
        <ele>203.48300170898</ele>
        <time>2009-06-27T13:00:47Z</time>
      </trkpt>
      <trkpt lat="45.28167" lon="4.90503">
        <ele>203.53999328613</ele>
        <time>2009-06-27T13:00:55Z</time>
      </trkpt>
      <trkpt lat="45.28237" lon="4.9058">
        <ele>204.33000183106</ele>
        <time>2009-06-27T13:01:08Z</time>
      </trkpt>
      <trkpt lat="45.28284" lon="4.90614">
        <ele>203.92300415039</ele>
        <time>2009-06-27T13:01:16Z</time>
      </trkpt>
      <trkpt lat="45.28341" lon="4.90642">
        <ele>204.11199951172</ele>
        <time>2009-06-27T13:01:25Z</time>
      </trkpt>
      <trkpt lat="45.28406" lon="4.90674">
        <ele>204.14599609375</ele>
        <time>2009-06-27T13:01:35Z</time>
      </trkpt>
      <trkpt lat="45.28464" lon="4.90702">
        <ele>204.39300537109</ele>
        <time>2009-06-27T13:01:44Z</time>
      </trkpt>
      <trkpt lat="45.28515" lon="4.90727">
        <ele>204.57800292969</ele>
        <time>2009-06-27T13:01:52Z</time>
      </trkpt>
      <trkpt lat="45.28583" lon="4.90812">
        <ele>205.05000305176</ele>
        <time>2009-06-27T13:02:06Z</time>
      </trkpt>
      <trkpt lat="45.28651" lon="4.9094">
        <ele>204.73699951172</ele>
        <time>2009-06-27T13:02:24Z</time>
      </trkpt>
      <trkpt lat="45.28715" lon="4.91102">
        <ele>206.03399658203</ele>
        <time>2009-06-27T13:02:44Z</time>
      </trkpt>
      <trkpt lat="45.28787" lon="4.9121">
        <ele>206.40199279785</ele>
        <time>2009-06-27T13:02:59Z</time>
      </trkpt>
      <trkpt lat="45.2886" lon="4.91236">
        <ele>206.44799804688</ele>
        <time>2009-06-27T13:03:10Z</time>
      </trkpt>
      <trkpt lat="45.28868" lon="4.91237">
        <ele>206.45899963379</ele>
        <time>2009-06-27T13:03:11Z</time>
      </trkpt>
      <trkpt lat="45.28913" lon="4.91265">
        <ele>206.10000610352</ele>
        <time>2009-06-27T13:03:18Z</time>
      </trkpt>
      <trkpt lat="45.28988" lon="4.91383">
        <ele>205.80000305176</ele>
        <time>2009-06-27T13:03:34Z</time>
      </trkpt>
      <trkpt lat="45.29065" lon="4.91511">
        <ele>206.19099426269</ele>
        <time>2009-06-27T13:03:50Z</time>
      </trkpt>
      <trkpt lat="45.2916" lon="4.91642">
        <ele>206.9940032959</ele>
        <time>2009-06-27T13:04:08Z</time>
      </trkpt>
      <trkpt lat="45.29278" lon="4.91763">
        <ele>207.13000488281</ele>
        <time>2009-06-27T13:04:28Z</time>
      </trkpt>
      <trkpt lat="45.29359" lon="4.91803">
        <ele>207.44900512695</ele>
        <time>2009-06-27T13:04:40Z</time>
      </trkpt>
      <trkpt lat="45.29461" lon="4.91844">
        <ele>207.0950012207</ele>
        <time>2009-06-27T13:04:55Z</time>
      </trkpt>
      <trkpt lat="45.29491" lon="4.91867">
        <ele>207.57200622559</ele>
        <time>2009-06-27T13:05:00Z</time>
      </trkpt>
      <trkpt lat="45.29576" lon="4.91928">
        <ele>208.14700317383</ele>
        <time>2009-06-27T13:05:14Z</time>
      </trkpt>
      <trkpt lat="45.29673" lon="4.92">
        <ele>207.65600585938</ele>
        <time>2009-06-27T13:05:30Z</time>
      </trkpt>
      <trkpt lat="45.29783" lon="4.92129">
        <ele>209.24099731445</ele>
        <time>2009-06-27T13:05:49Z</time>
      </trkpt>
      <trkpt lat="45.29834" lon="4.92183">
        <ele>209.66200256348</ele>
        <time>2009-06-27T13:05:58Z</time>
      </trkpt>
      <trkpt lat="45.29934" lon="4.92197">
        <ele>210.01899719238</ele>
        <time>2009-06-27T13:06:12Z</time>
      </trkpt>
      <trkpt lat="45.30059" lon="4.92207">
        <ele>209.17500305176</ele>
        <time>2009-06-27T13:06:28Z</time>
      </trkpt>
      <trkpt lat="45.30166" lon="4.92217">
        <ele>209.59599304199</ele>
        <time>2009-06-27T13:06:42Z</time>
      </trkpt>
      <trkpt lat="45.30312" lon="4.92239">
        <ele>210.96600341797</ele>
        <time>2009-06-27T13:07:02Z</time>
      </trkpt>
      <trkpt lat="45.30347" lon="4.92254">
        <ele>210.02400207519</ele>
        <time>2009-06-27T13:07:07Z</time>
      </trkpt>
      <trkpt lat="45.30482" lon="4.92322">
        <ele>210.30000305176</ele>
        <time>2009-06-27T13:07:26Z</time>
      </trkpt>
      <trkpt lat="45.3059" lon="4.92389">
        <ele>210.83500671387</ele>
        <time>2009-06-27T13:07:42Z</time>
      </trkpt>
      <trkpt lat="45.30627" lon="4.92428">
        <ele>210.84399414062</ele>
        <time>2009-06-27T13:07:48Z</time>
      </trkpt>
      <trkpt lat="45.30659" lon="4.92481">
        <ele>211.6130065918</ele>
        <time>2009-06-27T13:07:55Z</time>
      </trkpt>
      <trkpt lat="45.30701" lon="4.92522">
        <ele>211.63299560547</ele>
        <time>2009-06-27T13:08:02Z</time>
      </trkpt>
      <trkpt lat="45.30817" lon="4.9253">
        <ele>211.21499633789</ele>
        <time>2009-06-27T13:08:17Z</time>
      </trkpt>
      <trkpt lat="45.30872" lon="4.92531">
        <ele>211.32200622559</ele>
        <time>2009-06-27T13:08:25Z</time>
      </trkpt>
      <trkpt lat="45.30911" lon="4.92531">
        <ele>211.60000610352</ele>
        <time>2009-06-27T13:08:33Z</time>
      </trkpt>
      <trkpt lat="45.30919" lon="4.92531">
        <ele>211.76699829102</ele>
        <time>2009-06-27T13:08:36Z</time>
      </trkpt>
      <trkpt lat="45.30926" lon="4.92562">
        <ele>212.27600097656</ele>
        <time>2009-06-27T13:08:44Z</time>
      </trkpt>
      <trkpt lat="45.30922" lon="4.92597">
        <ele>212.33599853516</ele>
        <time>2009-06-27T13:08:50Z</time>
      </trkpt>
      <trkpt lat="45.30912" lon="4.92691">
        <ele>214.84199523926</ele>
        <time>2009-06-27T13:09:04Z</time>
      </trkpt>
      <trkpt lat="45.3091" lon="4.92759">
        <ele>216.42700195312</ele>
        <time>2009-06-27T13:09:14Z</time>
      </trkpt>
      <trkpt lat="45.30913" lon="4.92807">
        <ele>217.12300109863</ele>
        <time>2009-06-27T13:09:21Z</time>
      </trkpt>
      <trkpt lat="45.30926" lon="4.92907">
        <ele>218.77799987793</ele>
        <time>2009-06-27T13:09:35Z</time>
      </trkpt>
      <trkpt lat="45.30936" lon="4.93018">
        <ele>220.24200439453</ele>
        <time>2009-06-27T13:09:50Z</time>
      </trkpt>
      <trkpt lat="45.30928" lon="4.93068">
        <ele>219.66799926758</ele>
        <time>2009-06-27T13:09:58Z</time>
      </trkpt>
      <trkpt lat="45.30939" lon="4.931">
        <ele>220.05299377441</ele>
        <time>2009-06-27T13:10:04Z</time>
      </trkpt>
      <trkpt lat="45.3102" lon="4.93183">
        <ele>223.89700317383</ele>
        <time>2009-06-27T13:10:25Z</time>
      </trkpt>
      <trkpt lat="45.31075" lon="4.93245">
        <ele>226.85600280762</ele>
        <time>2009-06-27T13:10:39Z</time>
      </trkpt>
      <trkpt lat="45.31084" lon="4.9332">
        <ele>228.52099609375</ele>
        <time>2009-06-27T13:10:50Z</time>
      </trkpt>
      <trkpt lat="45.31081" lon="4.93336">
        <ele>229.18600463867</ele>
        <time>2009-06-27T13:10:55Z</time>
      </trkpt>
      <trkpt lat="45.311" lon="4.93362">
        <ele>230.76400756836</ele>
        <time>2009-06-27T13:11:01Z</time>
      </trkpt>
      <trkpt lat="45.31185" lon="4.93432">
        <ele>234.52299499512</ele>
        <time>2009-06-27T13:11:21Z</time>
      </trkpt>
      <trkpt lat="45.31258" lon="4.9349">
        <ele>235.47799682617</ele>
        <time>2009-06-27T13:11:38Z</time>
      </trkpt>
      <trkpt lat="45.3135" lon="4.93528">
        <ele>234.39500427246</ele>
        <time>2009-06-27T13:11:54Z</time>
      </trkpt>
      <trkpt lat="45.31451" lon="4.9356">
        <ele>235.21899414062</ele>
        <time>2009-06-27T13:12:10Z</time>
      </trkpt>
      <trkpt lat="45.31596" lon="4.93605">
        <ele>235.24200439453</ele>
        <time>2009-06-27T13:12:32Z</time>
      </trkpt>
      <trkpt lat="45.31722" lon="4.93652">
        <ele>235.39799499512</ele>
        <time>2009-06-27T13:12:51Z</time>
      </trkpt>
      <trkpt lat="45.31786" lon="4.93723">
        <ele>235.43800354004</ele>
        <time>2009-06-27T13:13:03Z</time>
      </trkpt>
      <trkpt lat="45.3187" lon="4.93893">
        <ele>236.06900024414</ele>
        <time>2009-06-27T13:13:24Z</time>
      </trkpt>
      <trkpt lat="45.31948" lon="4.94092">
        <ele>237.21600341797</ele>
        <time>2009-06-27T13:13:47Z</time>
      </trkpt>
      <trkpt lat="45.32024" lon="4.94201">
        <ele>238.0950012207</ele>
        <time>2009-06-27T13:14:03Z</time>
      </trkpt>
      <trkpt lat="45.32161" lon="4.94338">
        <ele>238.77099609375</ele>
        <time>2009-06-27T13:14:27Z</time>
      </trkpt>
      <trkpt lat="45.32307" lon="4.94484">
        <ele>238.92799377441</ele>
        <time>2009-06-27T13:14:52Z</time>
      </trkpt>
      <trkpt lat="45.32455" lon="4.94631">
        <ele>239.42700195312</ele>
        <time>2009-06-27T13:15:17Z</time>
      </trkpt>
      <trkpt lat="45.32614" lon="4.94786">
        <ele>238.32499694824</ele>
        <time>2009-06-27T13:15:42Z</time>
      </trkpt>
      <trkpt lat="45.32652" lon="4.94803">
        <ele>236.72300720215</ele>
        <time>2009-06-27T13:15:47Z</time>
      </trkpt>
      <trkpt lat="45.32782" lon="4.94817">
        <ele>233.67700195312</ele>
        <time>2009-06-27T13:16:02Z</time>
      </trkpt>
      <trkpt lat="45.32808" lon="4.94816">
        <ele>233.94799804688</ele>
        <time>2009-06-27T13:16:05Z</time>
      </trkpt>
      <trkpt lat="45.32895" lon="4.94813">
        <ele>233.47599792481</ele>
        <time>2009-06-27T13:16:16Z</time>
      </trkpt>
      <trkpt lat="45.33023" lon="4.9481">
        <ele>237.35600280762</ele>
        <time>2009-06-27T13:16:35Z</time>
      </trkpt>
      <trkpt lat="45.33093" lon="4.9481">
        <ele>238.58599853516</ele>
        <time>2009-06-27T13:16:47Z</time>
      </trkpt>
      <trkpt lat="45.33176" lon="4.94792">
        <ele>239.20399475098</ele>
        <time>2009-06-27T13:17:00Z</time>
      </trkpt>
      <trkpt lat="45.33222" lon="4.94772">
        <ele>239.21299743652</ele>
        <time>2009-06-27T13:17:07Z</time>
      </trkpt>
      <trkpt lat="45.33302" lon="4.94739">
        <ele>238.28500366211</ele>
        <time>2009-06-27T13:17:21Z</time>
      </trkpt>
      <trkpt lat="45.33323" lon="4.94729">
        <ele>238.16799926758</ele>
        <time>2009-06-27T13:17:25Z</time>
      </trkpt>
      <trkpt lat="45.33354" lon="4.94717">
        <ele>237.46000671387</ele>
        <time>2009-06-27T13:17:32Z</time>
      </trkpt>
      <trkpt lat="45.33361" lon="4.94714">
        <ele>237.48500061035</ele>
        <time>2009-06-27T13:17:35Z</time>
      </trkpt>
      <trkpt lat="45.33398" lon="4.94698">
        <ele>238.38800048828</ele>
        <time>2009-06-27T13:17:43Z</time>
      </trkpt>
      <trkpt lat="45.33461" lon="4.94664">
        <ele>238.09700012207</ele>
        <time>2009-06-27T13:17:54Z</time>
      </trkpt>
      <trkpt lat="45.33495" lon="4.94664">
        <ele>237.84800720215</ele>
        <time>2009-06-27T13:18:01Z</time>
      </trkpt>
      <trkpt lat="45.33497" lon="4.94672">
        <ele>237.7859954834</ele>
        <time>2009-06-27T13:18:02Z</time>
      </trkpt>
      <trkpt lat="45.33517" lon="4.94762">
        <ele>238.03999328613</ele>
        <time>2009-06-27T13:18:14Z</time>
      </trkpt>
      <trkpt lat="45.33537" lon="4.94788">
        <ele>238.5059967041</ele>
        <time>2009-06-27T13:18:19Z</time>
      </trkpt>
      <trkpt lat="45.33584" lon="4.94816">
        <ele>238.58999633789</ele>
        <time>2009-06-27T13:18:29Z</time>
      </trkpt>
      <trkpt lat="45.3361" lon="4.94832">
        <ele>238.85499572754</ele>
        <time>2009-06-27T13:18:34Z</time>
      </trkpt>
      <trkpt lat="45.33652" lon="4.94878">
        <ele>239.35699462891</ele>
        <time>2009-06-27T13:18:42Z</time>
      </trkpt>
      <trkpt lat="45.33677" lon="4.94915">
        <ele>239.45700073242</ele>
        <time>2009-06-27T13:18:48Z</time>
      </trkpt>
      <trkpt lat="45.33702" lon="4.94927">
        <ele>239.84800720215</ele>
        <time>2009-06-27T13:18:54Z</time>
      </trkpt>
      <trkpt lat="45.33784" lon="4.94888">
        <ele>240.62100219727</ele>
        <time>2009-06-27T13:19:08Z</time>
      </trkpt>
      <trkpt lat="45.33859" lon="4.94894">
        <ele>241.88900756836</ele>
        <time>2009-06-27T13:19:20Z</time>
      </trkpt>
      <trkpt lat="45.33985" lon="4.94924">
        <ele>241.75300598144</ele>
        <time>2009-06-27T13:19:41Z</time>
      </trkpt>
      <trkpt lat="45.34024" lon="4.94936">
        <ele>242.59300231934</ele>
        <time>2009-06-27T13:19:50Z</time>
      </trkpt>
      <trkpt lat="45.34087" lon="4.94955">
        <ele>243.73500061035</ele>
        <time>2009-06-27T13:20:03Z</time>
      </trkpt>
      <trkpt lat="45.34173" lon="4.94962">
        <ele>245.51300048828</ele>
        <time>2009-06-27T13:20:17Z</time>
      </trkpt>
      <trkpt lat="45.34274" lon="4.94934">
        <ele>244.84599304199</ele>
        <time>2009-06-27T13:20:34Z</time>
      </trkpt>
      <trkpt lat="45.34372" lon="4.94938">
        <ele>245.8809967041</ele>
        <time>2009-06-27T13:20:50Z</time>
      </trkpt>
      <trkpt lat="45.34377" lon="4.94937">
        <ele>246.45399475098</ele>
        <time>2009-06-27T13:20:51Z</time>
      </trkpt>
      <trkpt lat="45.34496" lon="4.94899">
        <ele>246.66900634766</ele>
        <time>2009-06-27T13:21:11Z</time>
      </trkpt>
      <trkpt lat="45.34553" lon="4.9488">
        <ele>245.84700012207</ele>
        <time>2009-06-27T13:21:20Z</time>
      </trkpt>
      <trkpt lat="45.34676" lon="4.94841">
        <ele>245.00100708008</ele>
        <time>2009-06-27T13:21:39Z</time>
      </trkpt>
      <trkpt lat="45.34682" lon="4.9484">
        <ele>244.81599426269</ele>
        <time>2009-06-27T13:21:40Z</time>
      </trkpt>
      <trkpt lat="45.34696" lon="4.94841">
        <ele>244.69299316406</ele>
        <time>2009-06-27T13:21:42Z</time>
      </trkpt>
      <trkpt lat="45.34736" lon="4.94858">
        <ele>244.37800598144</ele>
        <time>2009-06-27T13:21:48Z</time>
      </trkpt>
      <trkpt lat="45.34821" lon="4.94957">
        <ele>243.40299987793</ele>
        <time>2009-06-27T13:22:03Z</time>
      </trkpt>
      <trkpt lat="45.34865" lon="4.95039">
        <ele>243.72200012207</ele>
        <time>2009-06-27T13:22:13Z</time>
      </trkpt>
      <trkpt lat="45.34928" lon="4.95156">
        <ele>244.30099487305</ele>
        <time>2009-06-27T13:22:27Z</time>
      </trkpt>
      <trkpt lat="45.34978" lon="4.95183">
        <ele>244.81599426269</ele>
        <time>2009-06-27T13:22:35Z</time>
      </trkpt>
      <trkpt lat="45.35076" lon="4.95169">
        <ele>245.92300415039</ele>
        <time>2009-06-27T13:22:50Z</time>
      </trkpt>
      <trkpt lat="45.35195" lon="4.95152">
        <ele>247.46800231934</ele>
        <time>2009-06-27T13:23:08Z</time>
      </trkpt>
      <trkpt lat="45.35286" lon="4.95142">
        <ele>247.35600280762</ele>
        <time>2009-06-27T13:23:22Z</time>
      </trkpt>
      <trkpt lat="45.35305" lon="4.95147">
        <ele>247.66799926758</ele>
        <time>2009-06-27T13:23:25Z</time>
      </trkpt>
      <trkpt lat="45.3539" lon="4.95202">
        <ele>249.03399658203</ele>
        <time>2009-06-27T13:23:39Z</time>
      </trkpt>
      <trkpt lat="45.35492" lon="4.95282">
        <ele>250.56900024414</ele>
        <time>2009-06-27T13:23:58Z</time>
      </trkpt>
      <trkpt lat="45.35583" lon="4.95346">
        <ele>253.26899719238</ele>
        <time>2009-06-27T13:24:16Z</time>
      </trkpt>
      <trkpt lat="45.35649" lon="4.95361">
        <ele>255.86399841309</ele>
        <time>2009-06-27T13:24:32Z</time>
      </trkpt>
      <trkpt lat="45.35701" lon="4.95375">
        <ele>258.97100830078</ele>
        <time>2009-06-27T13:24:47Z</time>
      </trkpt>
      <trkpt lat="45.35743" lon="4.95398">
        <ele>262.49200439453</ele>
        <time>2009-06-27T13:24:59Z</time>
      </trkpt>
      <trkpt lat="45.35767" lon="4.9541">
        <ele>264.34698486328</ele>
        <time>2009-06-27T13:25:05Z</time>
      </trkpt>
      <trkpt lat="45.35783" lon="4.95411">
        <ele>265.61599731445</ele>
        <time>2009-06-27T13:25:09Z</time>
      </trkpt>
      <trkpt lat="45.35828" lon="4.95414">
        <ele>268.13500976562</ele>
        <time>2009-06-27T13:25:20Z</time>
      </trkpt>
      <trkpt lat="45.35883" lon="4.95417">
        <ele>270.34100341797</ele>
        <time>2009-06-27T13:25:32Z</time>
      </trkpt>
      <trkpt lat="45.35981" lon="4.95422">
        <ele>269.97100830078</ele>
        <time>2009-06-27T13:25:49Z</time>
      </trkpt>
      <trkpt lat="45.3606" lon="4.95423">
        <ele>271.20001220703</ele>
        <time>2009-06-27T13:26:02Z</time>
      </trkpt>
      <trkpt lat="45.36163" lon="4.95414">
        <ele>273.8039855957</ele>
        <time>2009-06-27T13:26:21Z</time>
      </trkpt>
      <trkpt lat="45.36252" lon="4.95397">
        <ele>276.68701171875</ele>
        <time>2009-06-27T13:26:39Z</time>
      </trkpt>
      <trkpt lat="45.36335" lon="4.95379">
        <ele>277.66400146484</ele>
        <time>2009-06-27T13:26:56Z</time>
      </trkpt>
      <trkpt lat="45.36412" lon="4.95365">
        <ele>277.44900512695</ele>
        <time>2009-06-27T13:27:09Z</time>
      </trkpt>
      <trkpt lat="45.36489" lon="4.95354">
        <ele>276.60800170898</ele>
        <time>2009-06-27T13:27:22Z</time>
      </trkpt>
      <trkpt lat="45.36601" lon="4.95342">
        <ele>275.46600341797</ele>
        <time>2009-06-27T13:27:39Z</time>
      </trkpt>
      <trkpt lat="45.36701" lon="4.95331">
        <ele>276.58898925781</ele>
        <time>2009-06-27T13:27:55Z</time>
      </trkpt>
      <trkpt lat="45.36724" lon="4.95329">
        <ele>277.94799804688</ele>
        <time>2009-06-27T13:27:59Z</time>
      </trkpt>
      <trkpt lat="45.36835" lon="4.95303">
        <ele>278.8869934082</ele>
        <time>2009-06-27T13:28:19Z</time>
      </trkpt>
      <trkpt lat="45.36924" lon="4.9529">
        <ele>281.93301391602</ele>
        <time>2009-06-27T13:28:36Z</time>
      </trkpt>
      <trkpt lat="45.37019" lon="4.95248">
        <ele>283.17599487305</ele>
        <time>2009-06-27T13:28:55Z</time>
      </trkpt>
      <trkpt lat="45.37062" lon="4.95209">
        <ele>285.70999145508</ele>
        <time>2009-06-27T13:29:08Z</time>
      </trkpt>
      <trkpt lat="45.37099" lon="4.95154">
        <ele>286.95401000977</ele>
        <time>2009-06-27T13:29:22Z</time>
      </trkpt>
      <trkpt lat="45.37105" lon="4.95145">
        <ele>287.16598510742</ele>
        <time>2009-06-27T13:29:24Z</time>
      </trkpt>
      <trkpt lat="45.37134" lon="4.95109">
        <ele>289.19299316406</ele>
        <time>2009-06-27T13:29:33Z</time>
      </trkpt>
      <trkpt lat="45.37157" lon="4.95085">
        <ele>289.42199707031</ele>
        <time>2009-06-27T13:29:40Z</time>
      </trkpt>
      <trkpt lat="45.37219" lon="4.95067">
        <ele>292.8330078125</ele>
        <time>2009-06-27T13:29:57Z</time>
      </trkpt>
      <trkpt lat="45.3726" lon="4.9506">
        <ele>296.23699951172</ele>
        <time>2009-06-27T13:30:09Z</time>
      </trkpt>
      <trkpt lat="45.37309" lon="4.95051">
        <ele>299.70901489258</ele>
        <time>2009-06-27T13:30:23Z</time>
      </trkpt>
      <trkpt lat="45.37355" lon="4.95046">
        <ele>303.69000244141</ele>
        <time>2009-06-27T13:30:37Z</time>
      </trkpt>
      <trkpt lat="45.3738" lon="4.95046">
        <ele>305.72698974609</ele>
        <time>2009-06-27T13:30:44Z</time>
      </trkpt>
      <trkpt lat="45.37411" lon="4.95066">
        <ele>308.32699584961</ele>
        <time>2009-06-27T13:30:53Z</time>
      </trkpt>
      <trkpt lat="45.37421" lon="4.95078">
        <ele>308.89898681641</ele>
        <time>2009-06-27T13:30:57Z</time>
      </trkpt>
      <trkpt lat="45.37469" lon="4.95114">
        <ele>312.96099853516</ele>
        <time>2009-06-27T13:31:13Z</time>
      </trkpt>
      <trkpt lat="45.37513" lon="4.95115">
        <ele>316.23999023438</ele>
        <time>2009-06-27T13:31:27Z</time>
      </trkpt>
      <trkpt lat="45.3755" lon="4.95089">
        <ele>319.64001464844</ele>
        <time>2009-06-27T13:31:41Z</time>
      </trkpt>
      <trkpt lat="45.37574" lon="4.95039">
        <ele>323.44299316406</ele>
        <time>2009-06-27T13:31:54Z</time>
      </trkpt>
      <trkpt lat="45.37579" lon="4.94973">
        <ele>325.68600463867</ele>
        <time>2009-06-27T13:32:07Z</time>
      </trkpt>
      <trkpt lat="45.37554" lon="4.94898">
        <ele>328.52200317383</ele>
        <time>2009-06-27T13:32:22Z</time>
      </trkpt>
      <trkpt lat="45.37508" lon="4.94836">
        <ele>332.3330078125</ele>
        <time>2009-06-27T13:32:39Z</time>
      </trkpt>
      <trkpt lat="45.37503" lon="4.94826">
        <ele>333.12100219727</ele>
        <time>2009-06-27T13:32:41Z</time>
      </trkpt>
      <trkpt lat="45.37497" lon="4.94754">
        <ele>336.98300170898</ele>
        <time>2009-06-27T13:32:54Z</time>
      </trkpt>
      <trkpt lat="45.375" lon="4.94685">
        <ele>340.30801391602</ele>
        <time>2009-06-27T13:33:08Z</time>
      </trkpt>
      <trkpt lat="45.37501" lon="4.94682">
        <ele>340.47601318359</ele>
        <time>2009-06-27T13:33:09Z</time>
      </trkpt>
      <trkpt lat="45.37517" lon="4.9468">
        <ele>343.04501342773</ele>
        <time>2009-06-27T13:33:18Z</time>
      </trkpt>
      <trkpt lat="45.37524" lon="4.9469">
        <ele>343.63198852539</ele>
        <time>2009-06-27T13:33:21Z</time>
      </trkpt>
      <trkpt lat="45.37553" lon="4.94729">
        <ele>346.23400878906</ele>
        <time>2009-06-27T13:33:33Z</time>
      </trkpt>
      <trkpt lat="45.37577" lon="4.94752">
        <ele>349.37100219727</ele>
        <time>2009-06-27T13:33:41Z</time>
      </trkpt>
      <trkpt lat="45.37616" lon="4.94781">
        <ele>351.1960144043</ele>
        <time>2009-06-27T13:33:53Z</time>
      </trkpt>
      <trkpt lat="45.37635" lon="4.94793">
        <ele>352.24499511719</ele>
        <time>2009-06-27T13:33:58Z</time>
      </trkpt>
      <trkpt lat="45.37655" lon="4.94797">
        <ele>353.67001342773</ele>
        <time>2009-06-27T13:34:03Z</time>
      </trkpt>
      <trkpt lat="45.37704" lon="4.94797">
        <ele>356.09899902344</ele>
        <time>2009-06-27T13:34:13Z</time>
      </trkpt>
      <trkpt lat="45.37715" lon="4.94801">
        <ele>356.92001342773</ele>
        <time>2009-06-27T13:34:15Z</time>
      </trkpt>
      <trkpt lat="45.37735" lon="4.94815">
        <ele>358.19799804688</ele>
        <time>2009-06-27T13:34:20Z</time>
      </trkpt>
      <trkpt lat="45.37743" lon="4.94822">
        <ele>358.98098754883</ele>
        <time>2009-06-27T13:34:22Z</time>
      </trkpt>
      <trkpt lat="45.37769" lon="4.94865">
        <ele>361.28698730469</ele>
        <time>2009-06-27T13:34:30Z</time>
      </trkpt>
      <trkpt lat="45.37822" lon="4.94968">
        <ele>366.4169921875</ele>
        <time>2009-06-27T13:34:48Z</time>
      </trkpt>
      <trkpt lat="45.37824" lon="4.94974">
        <ele>366.78799438477</ele>
        <time>2009-06-27T13:34:49Z</time>
      </trkpt>
      <trkpt lat="45.3785" lon="4.95065">
        <ele>366.99899291992</ele>
        <time>2009-06-27T13:35:02Z</time>
      </trkpt>
      <trkpt lat="45.37913" lon="4.95179">
        <ele>368.56600952148</ele>
        <time>2009-06-27T13:35:21Z</time>
      </trkpt>
      <trkpt lat="45.37984" lon="4.95273">
        <ele>372.41101074219</ele>
        <time>2009-06-27T13:35:40Z</time>
      </trkpt>
      <trkpt lat="45.38017" lon="4.95309">
        <ele>375.47900390625</ele>
        <time>2009-06-27T13:35:48Z</time>
      </trkpt>
      <trkpt lat="45.38076" lon="4.95429">
        <ele>381.71099853516</ele>
        <time>2009-06-27T13:36:07Z</time>
      </trkpt>
      <trkpt lat="45.38105" lon="4.95443">
        <ele>382.76000976562</ele>
        <time>2009-06-27T13:36:17Z</time>
      </trkpt>
      <trkpt lat="45.38143" lon="4.9544">
        <ele>386.1669921875</ele>
        <time>2009-06-27T13:36:29Z</time>
      </trkpt>
      <trkpt lat="45.38187" lon="4.95443">
        <ele>389.46798706055</ele>
        <time>2009-06-27T13:36:41Z</time>
      </trkpt>
      <trkpt lat="45.38241" lon="4.9544">
        <ele>389.63299560547</ele>
        <time>2009-06-27T13:36:54Z</time>
      </trkpt>
      <trkpt lat="45.3828" lon="4.9544">
        <ele>387.18701171875</ele>
        <time>2009-06-27T13:37:01Z</time>
      </trkpt>
      <trkpt lat="45.38285" lon="4.95441">
        <ele>387.39599609375</ele>
        <time>2009-06-27T13:37:03Z</time>
      </trkpt>
      <trkpt lat="45.38289" lon="4.95442">
        <ele>386.64999389648</ele>
        <time>2009-06-27T13:37:09Z</time>
      </trkpt>
      <trkpt lat="45.38287" lon="4.95441">
        <ele>386.92700195312</ele>
        <time>2009-06-27T13:37:13Z</time>
      </trkpt>
      <trkpt lat="45.38278" lon="4.9544">
        <ele>387.34799194336</ele>
        <time>2009-06-27T13:37:41Z</time>
      </trkpt>
      <trkpt lat="45.38285" lon="4.9544">
        <ele>387.05599975586</ele>
        <time>2009-06-27T13:37:44Z</time>
      </trkpt>
      <trkpt lat="45.38354" lon="4.95466">
        <ele>389.55801391602</ele>
        <time>2009-06-27T13:38:00Z</time>
      </trkpt>
      <trkpt lat="45.38398" lon="4.95461">
        <ele>392.29299926758</ele>
        <time>2009-06-27T13:38:11Z</time>
      </trkpt>
      <trkpt lat="45.38441" lon="4.9546">
        <ele>394.61599731445</ele>
        <time>2009-06-27T13:38:23Z</time>
      </trkpt>
      <trkpt lat="45.38479" lon="4.95476">
        <ele>397.31399536133</ele>
        <time>2009-06-27T13:38:34Z</time>
      </trkpt>
      <trkpt lat="45.38513" lon="4.95507">
        <ele>400.0299987793</ele>
        <time>2009-06-27T13:38:46Z</time>
      </trkpt>
      <trkpt lat="45.38552" lon="4.95542">
        <ele>403.41400146484</ele>
        <time>2009-06-27T13:38:59Z</time>
      </trkpt>
      <trkpt lat="45.38604" lon="4.95576">
        <ele>407.31500244141</ele>
        <time>2009-06-27T13:39:12Z</time>
      </trkpt>
      <trkpt lat="45.38636" lon="4.95595">
        <ele>409.44198608398</ele>
        <time>2009-06-27T13:39:20Z</time>
      </trkpt>
      <trkpt lat="45.38712" lon="4.95629">
        <ele>414.77600097656</ele>
        <time>2009-06-27T13:39:38Z</time>
      </trkpt>
      <trkpt lat="45.38717" lon="4.95631">
        <ele>415.43899536133</ele>
        <time>2009-06-27T13:39:39Z</time>
      </trkpt>
      <trkpt lat="45.38779" lon="4.95699">
        <ele>417.31399536133</ele>
        <time>2009-06-27T13:39:55Z</time>
      </trkpt>
      <trkpt lat="45.38832" lon="4.95713">
        <ele>420.39498901367</ele>
        <time>2009-06-27T13:40:06Z</time>
      </trkpt>
      <trkpt lat="45.38847" lon="4.95703">
        <ele>421.95999145508</ele>
        <time>2009-06-27T13:40:09Z</time>
      </trkpt>
      <trkpt lat="45.38876" lon="4.95664">
        <ele>421.74099731445</ele>
        <time>2009-06-27T13:40:17Z</time>
      </trkpt>
      <trkpt lat="45.38908" lon="4.95623">
        <ele>423.36199951172</ele>
        <time>2009-06-27T13:40:27Z</time>
      </trkpt>
      <trkpt lat="45.38915" lon="4.95615">
        <ele>423.20098876953</ele>
        <time>2009-06-27T13:40:29Z</time>
      </trkpt>
      <trkpt lat="45.38968" lon="4.95555">
        <ele>425.77600097656</ele>
        <time>2009-06-27T13:40:43Z</time>
      </trkpt>
      <trkpt lat="45.38982" lon="4.95539">
        <ele>426.95901489258</ele>
        <time>2009-06-27T13:40:47Z</time>
      </trkpt>
      <trkpt lat="45.39019" lon="4.95508">
        <ele>425.74798583984</ele>
        <time>2009-06-27T13:40:56Z</time>
      </trkpt>
      <trkpt lat="45.39038" lon="4.95496">
        <ele>425.00900268555</ele>
        <time>2009-06-27T13:41:00Z</time>
      </trkpt>
      <trkpt lat="45.39101" lon="4.9549">
        <ele>423.00201416016</ele>
        <time>2009-06-27T13:41:11Z</time>
      </trkpt>
      <trkpt lat="45.3916" lon="4.95485">
        <ele>419.72900390625</ele>
        <time>2009-06-27T13:41:20Z</time>
      </trkpt>
      <trkpt lat="45.39167" lon="4.95485">
        <ele>419.45199584961</ele>
        <time>2009-06-27T13:41:21Z</time>
      </trkpt>
      <trkpt lat="45.39221" lon="4.95481">
        <ele>414.73300170898</ele>
        <time>2009-06-27T13:41:28Z</time>
      </trkpt>
      <trkpt lat="45.39301" lon="4.95475">
        <ele>410.16900634766</ele>
        <time>2009-06-27T13:41:37Z</time>
      </trkpt>
      <trkpt lat="45.39356" lon="4.95455">
        <ele>407.10501098633</ele>
        <time>2009-06-27T13:41:43Z</time>
      </trkpt>
      <trkpt lat="45.39384" lon="4.95442">
        <ele>405.4880065918</ele>
        <time>2009-06-27T13:41:46Z</time>
      </trkpt>
      <trkpt lat="45.39405" lon="4.95436">
        <ele>403.1789855957</ele>
        <time>2009-06-27T13:41:48Z</time>
      </trkpt>
      <trkpt lat="45.39415" lon="4.95433">
        <ele>403.22500610352</ele>
        <time>2009-06-27T13:41:49Z</time>
      </trkpt>
      <trkpt lat="45.39494" lon="4.95436">
        <ele>398.14001464844</ele>
        <time>2009-06-27T13:41:56Z</time>
      </trkpt>
      <trkpt lat="45.39563" lon="4.95451">
        <ele>392.91299438477</ele>
        <time>2009-06-27T13:42:02Z</time>
      </trkpt>
      <trkpt lat="45.39642" lon="4.95466">
        <ele>387.74301147461</ele>
        <time>2009-06-27T13:42:09Z</time>
      </trkpt>
      <trkpt lat="45.39677" lon="4.95469">
        <ele>386.29501342773</ele>
        <time>2009-06-27T13:42:12Z</time>
      </trkpt>
      <trkpt lat="45.39711" lon="4.95464">
        <ele>382.89401245117</ele>
        <time>2009-06-27T13:42:15Z</time>
      </trkpt>
      <trkpt lat="45.39734" lon="4.95462">
        <ele>381.70498657227</ele>
        <time>2009-06-27T13:42:17Z</time>
      </trkpt>
      <trkpt lat="45.39804" lon="4.95459">
        <ele>377.26098632812</ele>
        <time>2009-06-27T13:42:23Z</time>
      </trkpt>
      <trkpt lat="45.39871" lon="4.95425">
        <ele>371.31600952148</ele>
        <time>2009-06-27T13:42:29Z</time>
      </trkpt>
      <trkpt lat="45.39957" lon="4.95331">
        <ele>364.52600097656</ele>
        <time>2009-06-27T13:42:38Z</time>
      </trkpt>
      <trkpt lat="45.39985" lon="4.95297">
        <ele>362.14001464844</ele>
        <time>2009-06-27T13:42:41Z</time>
      </trkpt>
      <trkpt lat="45.40031" lon="4.95239">
        <ele>357.96499633789</ele>
        <time>2009-06-27T13:42:46Z</time>
      </trkpt>
      <trkpt lat="45.40066" lon="4.95169">
        <ele>354.33999633789</ele>
        <time>2009-06-27T13:42:51Z</time>
      </trkpt>
      <trkpt lat="45.40099" lon="4.95095">
        <ele>348.94799804688</ele>
        <time>2009-06-27T13:42:56Z</time>
      </trkpt>
      <trkpt lat="45.40178" lon="4.95039">
        <ele>341.26098632812</ele>
        <time>2009-06-27T13:43:03Z</time>
      </trkpt>
      <trkpt lat="45.40214" lon="4.95012">
        <ele>338.60699462891</ele>
        <time>2009-06-27T13:43:06Z</time>
      </trkpt>
      <trkpt lat="45.40229" lon="4.94994">
        <ele>336.70401000977</ele>
        <time>2009-06-27T13:43:08Z</time>
      </trkpt>
      <trkpt lat="45.40256" lon="4.94991">
        <ele>333.74200439453</ele>
        <time>2009-06-27T13:43:11Z</time>
      </trkpt>
      <trkpt lat="45.40266" lon="4.94997">
        <ele>332.50601196289</ele>
        <time>2009-06-27T13:43:12Z</time>
      </trkpt>
      <trkpt lat="45.40311" lon="4.94988">
        <ele>328.84799194336</ele>
        <time>2009-06-27T13:43:17Z</time>
      </trkpt>
      <trkpt lat="45.40369" lon="4.94816">
        <ele>325.62298583984</ele>
        <time>2009-06-27T13:43:31Z</time>
      </trkpt>
      <trkpt lat="45.40376" lon="4.94793">
        <ele>324.83999633789</ele>
        <time>2009-06-27T13:43:33Z</time>
      </trkpt>
      <trkpt lat="45.40422" lon="4.94733">
        <ele>323.24798583984</ele>
        <time>2009-06-27T13:43:40Z</time>
      </trkpt>
      <trkpt lat="45.40451" lon="4.94702">
        <ele>321.62899780273</ele>
        <time>2009-06-27T13:43:44Z</time>
      </trkpt>
      <trkpt lat="45.40472" lon="4.94678">
        <ele>320.73999023438</ele>
        <time>2009-06-27T13:43:47Z</time>
      </trkpt>
      <trkpt lat="45.40514" lon="4.94581">
        <ele>319.92001342773</ele>
        <time>2009-06-27T13:43:56Z</time>
      </trkpt>
      <trkpt lat="45.40515" lon="4.94569">
        <ele>319.91500854492</ele>
        <time>2009-06-27T13:43:57Z</time>
      </trkpt>
      <trkpt lat="45.40524" lon="4.94478">
        <ele>317.11499023438</ele>
        <time>2009-06-27T13:44:04Z</time>
      </trkpt>
      <trkpt lat="45.4053" lon="4.94426">
        <ele>316.31201171875</ele>
        <time>2009-06-27T13:44:08Z</time>
      </trkpt>
      <trkpt lat="45.4054" lon="4.94365">
        <ele>314.95300292969</ele>
        <time>2009-06-27T13:44:13Z</time>
      </trkpt>
      <trkpt lat="45.40568" lon="4.9431">
        <ele>315.67300415039</ele>
        <time>2009-06-27T13:44:19Z</time>
      </trkpt>
      <trkpt lat="45.40597" lon="4.94314">
        <ele>316.60299682617</ele>
        <time>2009-06-27T13:44:23Z</time>
      </trkpt>
      <trkpt lat="45.40624" lon="4.94338">
        <ele>318.1549987793</ele>
        <time>2009-06-27T13:44:28Z</time>
      </trkpt>
      <trkpt lat="45.40634" lon="4.94347">
        <ele>318.88101196289</ele>
        <time>2009-06-27T13:44:30Z</time>
      </trkpt>
      <trkpt lat="45.40654" lon="4.94357">
        <ele>319.91400146484</ele>
        <time>2009-06-27T13:44:34Z</time>
      </trkpt>
      <trkpt lat="45.40699" lon="4.94378">
        <ele>321.76699829102</ele>
        <time>2009-06-27T13:44:43Z</time>
      </trkpt>
      <trkpt lat="45.40708" lon="4.94382">
        <ele>321.64599609375</ele>
        <time>2009-06-27T13:44:45Z</time>
      </trkpt>
      <trkpt lat="45.40717" lon="4.94385">
        <ele>323.14498901367</ele>
        <time>2009-06-27T13:44:47Z</time>
      </trkpt>
      <trkpt lat="45.40744" lon="4.94388">
        <ele>325.43301391602</ele>
        <time>2009-06-27T13:44:53Z</time>
      </trkpt>
      <trkpt lat="45.40748" lon="4.94387">
        <ele>325.90600585938</ele>
        <time>2009-06-27T13:44:54Z</time>
      </trkpt>
      <trkpt lat="45.40773" lon="4.94387">
        <ele>326.65701293945</ele>
        <time>2009-06-27T13:44:59Z</time>
      </trkpt>
      <trkpt lat="45.40794" lon="4.94399">
        <ele>328.00698852539</ele>
        <time>2009-06-27T13:45:04Z</time>
      </trkpt>
      <trkpt lat="45.40812" lon="4.94416">
        <ele>329.18899536133</ele>
        <time>2009-06-27T13:45:09Z</time>
      </trkpt>
      <trkpt lat="45.40832" lon="4.94436">
        <ele>329.73199462891</ele>
        <time>2009-06-27T13:45:15Z</time>
      </trkpt>
      <trkpt lat="45.40854" lon="4.94476">
        <ele>332.38400268555</ele>
        <time>2009-06-27T13:45:25Z</time>
      </trkpt>
      <trkpt lat="45.40893" lon="4.94507">
        <ele>335.33898925781</ele>
        <time>2009-06-27T13:45:36Z</time>
      </trkpt>
      <trkpt lat="45.40897" lon="4.94509">
        <ele>335.41900634766</ele>
        <time>2009-06-27T13:45:37Z</time>
      </trkpt>
      <trkpt lat="45.40959" lon="4.94551">
        <ele>339.23300170898</ele>
        <time>2009-06-27T13:45:51Z</time>
      </trkpt>
      <trkpt lat="45.4102" lon="4.94583">
        <ele>342.37899780273</ele>
        <time>2009-06-27T13:46:05Z</time>
      </trkpt>
      <trkpt lat="45.41035" lon="4.94589">
        <ele>342.68399047852</ele>
        <time>2009-06-27T13:46:08Z</time>
      </trkpt>
      <trkpt lat="45.41054" lon="4.94599">
        <ele>343.93301391602</ele>
        <time>2009-06-27T13:46:12Z</time>
      </trkpt>
      <trkpt lat="45.41076" lon="4.94638">
        <ele>345.21398925781</ele>
        <time>2009-06-27T13:46:19Z</time>
      </trkpt>
      <trkpt lat="45.41098" lon="4.9469">
        <ele>347.49899291992</ele>
        <time>2009-06-27T13:46:28Z</time>
      </trkpt>
      <trkpt lat="45.41119" lon="4.94724">
        <ele>349.29699707031</ele>
        <time>2009-06-27T13:46:35Z</time>
      </trkpt>
      <trkpt lat="45.41166" lon="4.94758">
        <ele>351.19000244141</ele>
        <time>2009-06-27T13:46:47Z</time>
      </trkpt>
      <trkpt lat="45.41202" lon="4.94753">
        <ele>352.03500366211</ele>
        <time>2009-06-27T13:46:55Z</time>
      </trkpt>
      <trkpt lat="45.41259" lon="4.94709">
        <ele>355.91198730469</ele>
        <time>2009-06-27T13:47:10Z</time>
      </trkpt>
      <trkpt lat="45.413" lon="4.94674">
        <ele>359.45599365234</ele>
        <time>2009-06-27T13:47:22Z</time>
      </trkpt>
      <trkpt lat="45.41313" lon="4.94658">
        <ele>360.24798583984</ele>
        <time>2009-06-27T13:47:26Z</time>
      </trkpt>
      <trkpt lat="45.41332" lon="4.94635">
        <ele>361.75100708008</ele>
        <time>2009-06-27T13:47:32Z</time>
      </trkpt>
      <trkpt lat="45.41349" lon="4.94615">
        <ele>362.90600585938</ele>
        <time>2009-06-27T13:47:37Z</time>
      </trkpt>
      <trkpt lat="45.41356" lon="4.94608">
        <ele>363.45700073242</ele>
        <time>2009-06-27T13:47:39Z</time>
      </trkpt>
      <trkpt lat="45.41413" lon="4.94553">
        <ele>367.59600830078</ele>
        <time>2009-06-27T13:47:56Z</time>
      </trkpt>
      <trkpt lat="45.41453" lon="4.94532">
        <ele>370.59799194336</ele>
        <time>2009-06-27T13:48:07Z</time>
      </trkpt>
      <trkpt lat="45.41459" lon="4.9456">
        <ele>371.64999389648</ele>
        <time>2009-06-27T13:48:13Z</time>
      </trkpt>
      <trkpt lat="45.41452" lon="4.94625">
        <ele>374.12200927734</ele>
        <time>2009-06-27T13:48:25Z</time>
      </trkpt>
      <trkpt lat="45.41459" lon="4.94724">
        <ele>377.8210144043</ele>
        <time>2009-06-27T13:48:42Z</time>
      </trkpt>
      <trkpt lat="45.41477" lon="4.94816">
        <ele>383.09298706055</ele>
        <time>2009-06-27T13:48:57Z</time>
      </trkpt>
      <trkpt lat="45.41483" lon="4.9485">
        <ele>383.50100708008</ele>
        <time>2009-06-27T13:49:02Z</time>
      </trkpt>
      <trkpt lat="45.41486" lon="4.94864">
        <ele>384.17199707031</ele>
        <time>2009-06-27T13:49:04Z</time>
      </trkpt>
      <trkpt lat="45.41499" lon="4.9488">
        <ele>384.7799987793</ele>
        <time>2009-06-27T13:49:08Z</time>
      </trkpt>
      <trkpt lat="45.41543" lon="4.94916">
        <ele>387.25</ele>
        <time>2009-06-27T13:49:19Z</time>
      </trkpt>
      <trkpt lat="45.416" lon="4.94928">
        <ele>390.60900878906</ele>
        <time>2009-06-27T13:49:35Z</time>
      </trkpt>
      <trkpt lat="45.4164" lon="4.94929">
        <ele>392.82501220703</ele>
        <time>2009-06-27T13:49:51Z</time>
      </trkpt>
      <trkpt lat="45.41683" lon="4.94927">
        <ele>394.96301269531</ele>
        <time>2009-06-27T13:50:08Z</time>
      </trkpt>
      <trkpt lat="45.41722" lon="4.94943">
        <ele>397.98699951172</ele>
        <time>2009-06-27T13:50:23Z</time>
      </trkpt>
      <trkpt lat="45.41753" lon="4.94972">
        <ele>399.7619934082</ele>
        <time>2009-06-27T13:50:37Z</time>
      </trkpt>
      <trkpt lat="45.41808" lon="4.95002">
        <ele>402.75</ele>
        <time>2009-06-27T13:50:57Z</time>
      </trkpt>
      <trkpt lat="45.41869" lon="4.9503">
        <ele>404.66500854492</ele>
        <time>2009-06-27T13:51:16Z</time>
      </trkpt>
      <trkpt lat="45.41911" lon="4.95041">
        <ele>405.64599609375</ele>
        <time>2009-06-27T13:51:31Z</time>
      </trkpt>
      <trkpt lat="45.41932" lon="4.951">
        <ele>406.02301025391</ele>
        <time>2009-06-27T13:51:44Z</time>
      </trkpt>
      <trkpt lat="45.41938" lon="4.95124">
        <ele>405.68200683594</ele>
        <time>2009-06-27T13:51:50Z</time>
      </trkpt>
      <trkpt lat="45.41945" lon="4.9517">
        <ele>405.04000854492</ele>
        <time>2009-06-27T13:51:58Z</time>
      </trkpt>
      <trkpt lat="45.41956" lon="4.95214">
        <ele>405.04000854492</ele>
        <time>2009-06-27T13:52:07Z</time>
      </trkpt>
      <trkpt lat="45.4197" lon="4.95261">
        <ele>405.36499023438</ele>
        <time>2009-06-27T13:52:16Z</time>
      </trkpt>
      <trkpt lat="45.41982" lon="4.95327">
        <ele>405.47799682617</ele>
        <time>2009-06-27T13:52:29Z</time>
      </trkpt>
      <trkpt lat="45.41981" lon="4.95338">
        <ele>406.18200683594</ele>
        <time>2009-06-27T13:52:31Z</time>
      </trkpt>
      <trkpt lat="45.41967" lon="4.95424">
        <ele>406.40200805664</ele>
        <time>2009-06-27T13:52:47Z</time>
      </trkpt>
      <trkpt lat="45.41961" lon="4.95461">
        <ele>409.79699707031</ele>
        <time>2009-06-27T13:52:54Z</time>
      </trkpt>
      <trkpt lat="45.41951" lon="4.95522">
        <ele>409.65200805664</ele>
        <time>2009-06-27T13:53:05Z</time>
      </trkpt>
      <trkpt lat="45.41935" lon="4.9564">
        <ele>412.03698730469</ele>
        <time>2009-06-27T13:53:24Z</time>
      </trkpt>
      <trkpt lat="45.41922" lon="4.95741">
        <ele>412.15200805664</ele>
        <time>2009-06-27T13:53:39Z</time>
      </trkpt>
      <trkpt lat="45.41915" lon="4.95792">
        <ele>411.88900756836</ele>
        <time>2009-06-27T13:53:47Z</time>
      </trkpt>
      <trkpt lat="45.41912" lon="4.95806">
        <ele>411.89700317383</ele>
        <time>2009-06-27T13:53:49Z</time>
      </trkpt>
      <trkpt lat="45.41904" lon="4.95878">
        <ele>412.07000732422</ele>
        <time>2009-06-27T13:53:58Z</time>
      </trkpt>
      <trkpt lat="45.41902" lon="4.95894">
        <ele>412.22500610352</ele>
        <time>2009-06-27T13:54:00Z</time>
      </trkpt>
      <trkpt lat="45.419" lon="4.95908">
        <ele>411.99798583984</ele>
        <time>2009-06-27T13:54:02Z</time>
      </trkpt>
      <trkpt lat="45.41896" lon="4.95945">
        <ele>412.28298950195</ele>
        <time>2009-06-27T13:54:07Z</time>
      </trkpt>
      <trkpt lat="45.41899" lon="4.96064">
        <ele>413.39599609375</ele>
        <time>2009-06-27T13:54:23Z</time>
      </trkpt>
      <trkpt lat="45.41918" lon="4.96191">
        <ele>414.4280090332</ele>
        <time>2009-06-27T13:54:41Z</time>
      </trkpt>
      <trkpt lat="45.41935" lon="4.96292">
        <ele>415.71200561523</ele>
        <time>2009-06-27T13:54:56Z</time>
      </trkpt>
      <trkpt lat="45.41943" lon="4.96359">
        <ele>415.1669921875</ele>
        <time>2009-06-27T13:55:05Z</time>
      </trkpt>
      <trkpt lat="45.41947" lon="4.96507">
        <ele>414.51998901367</ele>
        <time>2009-06-27T13:55:24Z</time>
      </trkpt>
      <trkpt lat="45.41936" lon="4.96678">
        <ele>414.20999145508</ele>
        <time>2009-06-27T13:55:46Z</time>
      </trkpt>
      <trkpt lat="45.41935" lon="4.96809">
        <ele>414.4460144043</ele>
        <time>2009-06-27T13:56:03Z</time>
      </trkpt>
      <trkpt lat="45.41944" lon="4.96951">
        <ele>417.16299438477</ele>
        <time>2009-06-27T13:56:22Z</time>
      </trkpt>
      <trkpt lat="45.41952" lon="4.97064">
        <ele>418.36801147461</ele>
        <time>2009-06-27T13:56:38Z</time>
      </trkpt>
      <trkpt lat="45.41969" lon="4.9716">
        <ele>419.29901123047</ele>
        <time>2009-06-27T13:56:51Z</time>
      </trkpt>
      <trkpt lat="45.42006" lon="4.97231">
        <ele>420.99398803711</ele>
        <time>2009-06-27T13:57:05Z</time>
      </trkpt>
      <trkpt lat="45.42014" lon="4.97247">
        <ele>421.80899047852</ele>
        <time>2009-06-27T13:57:16Z</time>
      </trkpt>
      <trkpt lat="45.42016" lon="4.9725">
        <ele>421.72500610352</ele>
        <time>2009-06-27T13:57:23Z</time>
      </trkpt>
      <trkpt lat="45.42024" lon="4.97266">
        <ele>422.53399658203</ele>
        <time>2009-06-27T13:57:32Z</time>
      </trkpt>
      <trkpt lat="45.42032" lon="4.97286">
        <ele>423.41598510742</ele>
        <time>2009-06-27T13:57:38Z</time>
      </trkpt>
      <trkpt lat="45.42053" lon="4.97332">
        <ele>424.72100830078</ele>
        <time>2009-06-27T13:57:49Z</time>
      </trkpt>
      <trkpt lat="45.42076" lon="4.97383">
        <ele>426.81900024414</ele>
        <time>2009-06-27T13:58:00Z</time>
      </trkpt>
      <trkpt lat="45.42094" lon="4.97445">
        <ele>428.48400878906</ele>
        <time>2009-06-27T13:58:12Z</time>
      </trkpt>
      <trkpt lat="45.42102" lon="4.97472">
        <ele>428.66900634766</ele>
        <time>2009-06-27T13:58:17Z</time>
      </trkpt>
      <trkpt lat="45.42127" lon="4.97568">
        <ele>429.13800048828</ele>
        <time>2009-06-27T13:58:33Z</time>
      </trkpt>
      <trkpt lat="45.42161" lon="4.9769">
        <ele>430.30899047852</ele>
        <time>2009-06-27T13:58:52Z</time>
      </trkpt>
      <trkpt lat="45.42173" lon="4.97773">
        <ele>430.79299926758</ele>
        <time>2009-06-27T13:59:05Z</time>
      </trkpt>
      <trkpt lat="45.42155" lon="4.97885">
        <ele>429.6780090332</ele>
        <time>2009-06-27T13:59:19Z</time>
      </trkpt>
      <trkpt lat="45.42145" lon="4.97936">
        <ele>429.18798828125</ele>
        <time>2009-06-27T13:59:25Z</time>
      </trkpt>
      <trkpt lat="45.4211" lon="4.98114">
        <ele>429.13198852539</ele>
        <time>2009-06-27T13:59:46Z</time>
      </trkpt>
      <trkpt lat="45.42089" lon="4.98232">
        <ele>430.54598999023</ele>
        <time>2009-06-27T14:00:00Z</time>
      </trkpt>
      <trkpt lat="45.42079" lon="4.9827">
        <ele>430.93399047852</ele>
        <time>2009-06-27T14:00:05Z</time>
      </trkpt>
      <trkpt lat="45.42051" lon="4.98307">
        <ele>432.26901245117</ele>
        <time>2009-06-27T14:00:12Z</time>
      </trkpt>
      <trkpt lat="45.41973" lon="4.98345">
        <ele>434.47698974609</ele>
        <time>2009-06-27T14:00:27Z</time>
      </trkpt>
      <trkpt lat="45.41911" lon="4.98374">
        <ele>437.64498901367</ele>
        <time>2009-06-27T14:00:40Z</time>
      </trkpt>
      <trkpt lat="45.41906" lon="4.98376">
        <ele>437.94799804688</ele>
        <time>2009-06-27T14:00:41Z</time>
      </trkpt>
      <trkpt lat="45.4186" lon="4.98384">
        <ele>438.88598632812</ele>
        <time>2009-06-27T14:00:50Z</time>
      </trkpt>
      <trkpt lat="45.41843" lon="4.98388">
        <ele>439.18499755859</ele>
        <time>2009-06-27T14:00:53Z</time>
      </trkpt>
      <trkpt lat="45.41817" lon="4.98409">
        <ele>439.71398925781</ele>
        <time>2009-06-27T14:00:58Z</time>
      </trkpt>
      <trkpt lat="45.41791" lon="4.98458">
        <ele>439.75</ele>
        <time>2009-06-27T14:01:05Z</time>
      </trkpt>
      <trkpt lat="45.41774" lon="4.98603">
        <ele>439.02099609375</ele>
        <time>2009-06-27T14:01:21Z</time>
      </trkpt>
      <trkpt lat="45.41769" lon="4.9866">
        <ele>438.06298828125</ele>
        <time>2009-06-27T14:01:27Z</time>
      </trkpt>
      <trkpt lat="45.41766" lon="4.98715">
        <ele>438.00601196289</ele>
        <time>2009-06-27T14:01:33Z</time>
      </trkpt>
      <trkpt lat="45.41756" lon="4.98921">
        <ele>440.1780090332</ele>
        <time>2009-06-27T14:01:55Z</time>
      </trkpt>
      <trkpt lat="45.41753" lon="4.98982">
        <ele>441.98400878906</ele>
        <time>2009-06-27T14:02:02Z</time>
      </trkpt>
      <trkpt lat="45.41753" lon="4.99024">
        <ele>442.95599365234</ele>
        <time>2009-06-27T14:02:07Z</time>
      </trkpt>
      <trkpt lat="45.41756" lon="4.99066">
        <ele>444.09600830078</ele>
        <time>2009-06-27T14:02:12Z</time>
      </trkpt>
      <trkpt lat="45.41782" lon="4.99172">
        <ele>442.55899047852</ele>
        <time>2009-06-27T14:02:24Z</time>
      </trkpt>
      <trkpt lat="45.4178" lon="4.99222">
        <ele>442.01501464844</ele>
        <time>2009-06-27T14:02:29Z</time>
      </trkpt>
      <trkpt lat="45.41742" lon="4.9938">
        <ele>445.31698608398</ele>
        <time>2009-06-27T14:02:47Z</time>
      </trkpt>
      <trkpt lat="45.41732" lon="4.99518">
        <ele>446.39401245117</ele>
        <time>2009-06-27T14:03:03Z</time>
      </trkpt>
      <trkpt lat="45.41695" lon="4.99638">
        <ele>446.71701049805</ele>
        <time>2009-06-27T14:03:18Z</time>
      </trkpt>
      <trkpt lat="45.41638" lon="4.99794">
        <ele>445.49099731445</ele>
        <time>2009-06-27T14:03:35Z</time>
      </trkpt>
      <trkpt lat="45.41595" lon="4.99887">
        <ele>444.56900024414</ele>
        <time>2009-06-27T14:03:45Z</time>
      </trkpt>
      <trkpt lat="45.41585" lon="4.99948">
        <ele>445.16500854492</ele>
        <time>2009-06-27T14:03:51Z</time>
      </trkpt>
      <trkpt lat="45.41573" lon="5.0012">
        <ele>448.07501220703</ele>
        <time>2009-06-27T14:04:09Z</time>
      </trkpt>
      <trkpt lat="45.41537" lon="5.00259">
        <ele>449.05700683594</ele>
        <time>2009-06-27T14:04:23Z</time>
      </trkpt>
      <trkpt lat="45.41529" lon="5.00287">
        <ele>449.80899047852</ele>
        <time>2009-06-27T14:04:26Z</time>
      </trkpt>
      <trkpt lat="45.41499" lon="5.00393">
        <ele>451.76400756836</ele>
        <time>2009-06-27T14:04:38Z</time>
      </trkpt>
      <trkpt lat="45.41495" lon="5.00412">
        <ele>451.48300170898</ele>
        <time>2009-06-27T14:04:40Z</time>
      </trkpt>
      <trkpt lat="45.41474" lon="5.00469">
        <ele>450.17999267578</ele>
        <time>2009-06-27T14:04:46Z</time>
      </trkpt>
      <trkpt lat="45.41467" lon="5.00595">
        <ele>449.52801513672</ele>
        <time>2009-06-27T14:04:56Z</time>
      </trkpt>
      <trkpt lat="45.41468" lon="5.00815">
        <ele>450.17599487305</ele>
        <time>2009-06-27T14:05:14Z</time>
      </trkpt>
      <trkpt lat="45.41478" lon="5.00983">
        <ele>450.29098510742</ele>
        <time>2009-06-27T14:05:28Z</time>
      </trkpt>
      <trkpt lat="45.41503" lon="5.01237">
        <ele>450.05801391602</ele>
        <time>2009-06-27T14:05:49Z</time>
      </trkpt>
      <trkpt lat="45.41528" lon="5.01407">
        <ele>451.74200439453</ele>
        <time>2009-06-27T14:06:05Z</time>
      </trkpt>
      <trkpt lat="45.41583" lon="5.01474">
        <ele>451.83401489258</ele>
        <time>2009-06-27T14:06:15Z</time>
      </trkpt>
      <trkpt lat="45.41653" lon="5.01509">
        <ele>452.53799438477</ele>
        <time>2009-06-27T14:06:25Z</time>
      </trkpt>
      <trkpt lat="45.4171" lon="5.01496">
        <ele>452.77700805664</ele>
        <time>2009-06-27T14:06:33Z</time>
      </trkpt>
      <trkpt lat="45.41768" lon="5.01451">
        <ele>454.89498901367</ele>
        <time>2009-06-27T14:06:43Z</time>
      </trkpt>
      <trkpt lat="45.41818" lon="5.01457">
        <ele>456.57299804688</ele>
        <time>2009-06-27T14:06:53Z</time>
      </trkpt>
      <trkpt lat="45.41826" lon="5.01478">
        <ele>456.85000610352</ele>
        <time>2009-06-27T14:06:56Z</time>
      </trkpt>
      <trkpt lat="45.41831" lon="5.0155">
        <ele>459.28601074219</ele>
        <time>2009-06-27T14:07:07Z</time>
      </trkpt>
      <trkpt lat="45.41817" lon="5.0156">
        <ele>459.75299072266</ele>
        <time>2009-06-27T14:07:11Z</time>
      </trkpt>
      <trkpt lat="45.41737" lon="5.01577">
        <ele>460.47198486328</ele>
        <time>2009-06-27T14:07:25Z</time>
      </trkpt>
      <trkpt lat="45.41636" lon="5.016">
        <ele>460.47399902344</ele>
        <time>2009-06-27T14:07:40Z</time>
      </trkpt>
      <trkpt lat="45.41498" lon="5.01632">
        <ele>459.84201049805</ele>
        <time>2009-06-27T14:07:57Z</time>
      </trkpt>
      <trkpt lat="45.41409" lon="5.01652">
        <ele>459.46099853516</ele>
        <time>2009-06-27T14:08:05Z</time>
      </trkpt>
      <trkpt lat="45.4131" lon="5.01676">
        <ele>459.36898803711</ele>
        <time>2009-06-27T14:08:13Z</time>
      </trkpt>
      <trkpt lat="45.41216" lon="5.01688">
        <ele>458.92199707031</ele>
        <time>2009-06-27T14:08:20Z</time>
      </trkpt>
      <trkpt lat="45.41148" lon="5.01687">
        <ele>458.68600463867</ele>
        <time>2009-06-27T14:08:25Z</time>
      </trkpt>
      <trkpt lat="45.41001" lon="5.01665">
        <ele>455.14401245117</ele>
        <time>2009-06-27T14:08:36Z</time>
      </trkpt>
      <trkpt lat="45.40855" lon="5.01662">
        <ele>448.52801513672</ele>
        <time>2009-06-27T14:08:46Z</time>
      </trkpt>
      <trkpt lat="45.40729" lon="5.01731">
        <ele>440.54501342773</ele>
        <time>2009-06-27T14:08:55Z</time>
      </trkpt>
      <trkpt lat="45.40714" lon="5.01739">
        <ele>439.76901245117</ele>
        <time>2009-06-27T14:08:56Z</time>
      </trkpt>
      <trkpt lat="45.4067" lon="5.0175">
        <ele>437.26998901367</ele>
        <time>2009-06-27T14:08:59Z</time>
      </trkpt>
      <trkpt lat="45.40583" lon="5.01771">
        <ele>432.9289855957</ele>
        <time>2009-06-27T14:09:05Z</time>
      </trkpt>
      <trkpt lat="45.40557" lon="5.01788">
        <ele>432.16799926758</ele>
        <time>2009-06-27T14:09:07Z</time>
      </trkpt>
      <trkpt lat="45.40485" lon="5.01894">
        <ele>426.25698852539</ele>
        <time>2009-06-27T14:09:14Z</time>
      </trkpt>
      <trkpt lat="45.40466" lon="5.01923">
        <ele>424.89700317383</ele>
        <time>2009-06-27T14:09:16Z</time>
      </trkpt>
      <trkpt lat="45.40404" lon="5.01968">
        <ele>420.60900878906</ele>
        <time>2009-06-27T14:09:21Z</time>
      </trkpt>
      <trkpt lat="45.4034" lon="5.02006">
        <ele>416.5</ele>
        <time>2009-06-27T14:09:26Z</time>
      </trkpt>
      <trkpt lat="45.40302" lon="5.0203">
        <ele>413.06100463867</ele>
        <time>2009-06-27T14:09:29Z</time>
      </trkpt>
      <trkpt lat="45.40252" lon="5.02065">
        <ele>410.48199462891</ele>
        <time>2009-06-27T14:09:33Z</time>
      </trkpt>
      <trkpt lat="45.40215" lon="5.02126">
        <ele>407.96099853516</ele>
        <time>2009-06-27T14:09:37Z</time>
      </trkpt>
      <trkpt lat="45.40188" lon="5.02204">
        <ele>401.65100097656</ele>
        <time>2009-06-27T14:09:41Z</time>
      </trkpt>
      <trkpt lat="45.40167" lon="5.02239">
        <ele>399.33700561523</ele>
        <time>2009-06-27T14:09:43Z</time>
      </trkpt>
      <trkpt lat="45.40124" lon="5.02275">
        <ele>396.65399169922</ele>
        <time>2009-06-27T14:09:46Z</time>
      </trkpt>
      <trkpt lat="45.40074" lon="5.02282">
        <ele>394.70901489258</ele>
        <time>2009-06-27T14:09:49Z</time>
      </trkpt>
      <trkpt lat="45.39992" lon="5.02278">
        <ele>389.00698852539</ele>
        <time>2009-06-27T14:09:54Z</time>
      </trkpt>
      <trkpt lat="45.39927" lon="5.02299">
        <ele>385.70498657227</ele>
        <time>2009-06-27T14:09:58Z</time>
      </trkpt>
      <trkpt lat="45.39849" lon="5.02337">
        <ele>380.33499145508</ele>
        <time>2009-06-27T14:10:03Z</time>
      </trkpt>
      <trkpt lat="45.39818" lon="5.02348">
        <ele>378.7919921875</ele>
        <time>2009-06-27T14:10:05Z</time>
      </trkpt>
      <trkpt lat="45.39674" lon="5.02372">
        <ele>370.28799438477</ele>
        <time>2009-06-27T14:10:14Z</time>
      </trkpt>
      <trkpt lat="45.39556" lon="5.02359">
        <ele>365.92599487305</ele>
        <time>2009-06-27T14:10:21Z</time>
      </trkpt>
      <trkpt lat="45.3949" lon="5.02347">
        <ele>363.10000610352</ele>
        <time>2009-06-27T14:10:25Z</time>
      </trkpt>
      <trkpt lat="45.39406" lon="5.02334">
        <ele>358.59899902344</ele>
        <time>2009-06-27T14:10:30Z</time>
      </trkpt>
      <trkpt lat="45.39225" lon="5.02307">
        <ele>350.04400634766</ele>
        <time>2009-06-27T14:10:41Z</time>
      </trkpt>
      <trkpt lat="45.39161" lon="5.02298">
        <ele>346.72900390625</ele>
        <time>2009-06-27T14:10:45Z</time>
      </trkpt>
      <trkpt lat="45.39037" lon="5.02294">
        <ele>340.1130065918</ele>
        <time>2009-06-27T14:10:53Z</time>
      </trkpt>
      <trkpt lat="45.38962" lon="5.02308">
        <ele>337.96301269531</ele>
        <time>2009-06-27T14:10:58Z</time>
      </trkpt>
      <trkpt lat="45.38779" lon="5.02345">
        <ele>333.25900268555</ele>
        <time>2009-06-27T14:11:12Z</time>
      </trkpt>
      <trkpt lat="45.38626" lon="5.02362">
        <ele>331.21398925781</ele>
        <time>2009-06-27T14:11:26Z</time>
      </trkpt>
      <trkpt lat="45.386" lon="5.02367">
        <ele>329.56201171875</ele>
        <time>2009-06-27T14:11:29Z</time>
      </trkpt>
      <trkpt lat="45.38585" lon="5.02372">
        <ele>329.09201049805</ele>
        <time>2009-06-27T14:11:31Z</time>
      </trkpt>
      <trkpt lat="45.38549" lon="5.02389">
        <ele>327.54699707031</ele>
        <time>2009-06-27T14:11:38Z</time>
      </trkpt>
      <trkpt lat="45.38567" lon="5.02419">
        <ele>328.05099487305</ele>
        <time>2009-06-27T14:11:43Z</time>
      </trkpt>
      <trkpt lat="45.38589" lon="5.0244">
        <ele>328.07901000977</ele>
        <time>2009-06-27T14:11:52Z</time>
      </trkpt>
      <trkpt lat="45.38587" lon="5.02438">
        <ele>328.11599731445</ele>
        <time>2009-06-27T14:11:53Z</time>
      </trkpt>
      <trkpt lat="45.38577" lon="5.0241">
        <ele>328.20401000977</ele>
        <time>2009-06-27T14:12:00Z</time>
      </trkpt>
      <trkpt lat="45.38565" lon="5.02372">
        <ele>327.81500244141</ele>
        <time>2009-06-27T14:12:07Z</time>
      </trkpt>
      <trkpt lat="45.38526" lon="5.02389">
        <ele>327.7619934082</ele>
        <time>2009-06-27T14:12:13Z</time>
      </trkpt>
      <trkpt lat="45.38485" lon="5.02399">
        <ele>326.44799804688</ele>
        <time>2009-06-27T14:12:18Z</time>
      </trkpt>
      <trkpt lat="45.3838" lon="5.02422">
        <ele>324.30999755859</ele>
        <time>2009-06-27T14:12:31Z</time>
      </trkpt>
      <trkpt lat="45.38321" lon="5.02434">
        <ele>324.12600708008</ele>
        <time>2009-06-27T14:12:40Z</time>
      </trkpt>
      <trkpt lat="45.38224" lon="5.02452">
        <ele>324.07901000977</ele>
        <time>2009-06-27T14:12:55Z</time>
      </trkpt>
      <trkpt lat="45.38114" lon="5.02474">
        <ele>324.36499023438</ele>
        <time>2009-06-27T14:13:10Z</time>
      </trkpt>
      <trkpt lat="45.38055" lon="5.02485">
        <ele>326.52301025391</ele>
        <time>2009-06-27T14:13:19Z</time>
      </trkpt>
      <trkpt lat="45.38027" lon="5.0249">
        <ele>327.77899169922</ele>
        <time>2009-06-27T14:13:24Z</time>
      </trkpt>
      <trkpt lat="45.38013" lon="5.02493">
        <ele>328.51599121094</ele>
        <time>2009-06-27T14:13:28Z</time>
      </trkpt>
      <trkpt lat="45.37978" lon="5.02499">
        <ele>329.23599243164</ele>
        <time>2009-06-27T14:13:38Z</time>
      </trkpt>
      <trkpt lat="45.37948" lon="5.02507">
        <ele>328.54699707031</ele>
        <time>2009-06-27T14:13:50Z</time>
      </trkpt>
      <trkpt lat="45.3792" lon="5.02515">
        <ele>327.57800292969</ele>
        <time>2009-06-27T14:13:56Z</time>
      </trkpt>
      <trkpt lat="45.37838" lon="5.02535">
        <ele>324.7380065918</ele>
        <time>2009-06-27T14:14:09Z</time>
      </trkpt>
      <trkpt lat="45.37799" lon="5.02544">
        <ele>323.04598999023</ele>
        <time>2009-06-27T14:14:14Z</time>
      </trkpt>
      <trkpt lat="45.37725" lon="5.0256">
        <ele>320.72799682617</ele>
        <time>2009-06-27T14:14:23Z</time>
      </trkpt>
      <trkpt lat="45.37678" lon="5.02572">
        <ele>319.36401367188</ele>
        <time>2009-06-27T14:14:28Z</time>
      </trkpt>
      <trkpt lat="45.37472" lon="5.02622">
        <ele>315.44400024414</ele>
        <time>2009-06-27T14:14:48Z</time>
      </trkpt>
      <trkpt lat="45.37452" lon="5.02628">
        <ele>315.21600341797</ele>
        <time>2009-06-27T14:14:50Z</time>
      </trkpt>
      <trkpt lat="45.37309" lon="5.02659">
        <ele>316.07501220703</ele>
        <time>2009-06-27T14:15:04Z</time>
      </trkpt>
      <trkpt lat="45.37274" lon="5.02666">
        <ele>314.50900268555</ele>
        <time>2009-06-27T14:15:07Z</time>
      </trkpt>
      <trkpt lat="45.37239" lon="5.02675">
        <ele>315.10400390625</ele>
        <time>2009-06-27T14:15:10Z</time>
      </trkpt>
      <trkpt lat="45.37217" lon="5.02681">
        <ele>315.22900390625</ele>
        <time>2009-06-27T14:15:12Z</time>
      </trkpt>
      <trkpt lat="45.37159" lon="5.02694">
        <ele>315.38900756836</ele>
        <time>2009-06-27T14:15:17Z</time>
      </trkpt>
      <trkpt lat="45.37122" lon="5.02703">
        <ele>315.75201416016</ele>
        <time>2009-06-27T14:15:20Z</time>
      </trkpt>
      <trkpt lat="45.37033" lon="5.02725">
        <ele>315.81500244141</ele>
        <time>2009-06-27T14:15:27Z</time>
      </trkpt>
      <trkpt lat="45.36945" lon="5.02746">
        <ele>315.89498901367</ele>
        <time>2009-06-27T14:15:34Z</time>
      </trkpt>
      <trkpt lat="45.36794" lon="5.02784">
        <ele>315.41198730469</ele>
        <time>2009-06-27T14:15:48Z</time>
      </trkpt>
      <trkpt lat="45.36594" lon="5.02838">
        <ele>313.78698730469</ele>
        <time>2009-06-27T14:16:07Z</time>
      </trkpt>
      <trkpt lat="45.36344" lon="5.02899">
        <ele>313.38500976562</ele>
        <time>2009-06-27T14:16:31Z</time>
      </trkpt>
      <trkpt lat="45.36269" lon="5.02918">
        <ele>312.70999145508</ele>
        <time>2009-06-27T14:16:38Z</time>
      </trkpt>
      <trkpt lat="45.3615" lon="5.02919">
        <ele>307.42098999023</ele>
        <time>2009-06-27T14:16:48Z</time>
      </trkpt>
      <trkpt lat="45.36073" lon="5.02917">
        <ele>304.33999633789</ele>
        <time>2009-06-27T14:16:54Z</time>
      </trkpt>
      <trkpt lat="45.36004" lon="5.02916">
        <ele>301.28698730469</ele>
        <time>2009-06-27T14:16:59Z</time>
      </trkpt>
      <trkpt lat="45.3599" lon="5.02915">
        <ele>301.30999755859</ele>
        <time>2009-06-27T14:17:00Z</time>
      </trkpt>
      <trkpt lat="45.35962" lon="5.02915">
        <ele>299.64999389648</ele>
        <time>2009-06-27T14:17:02Z</time>
      </trkpt>
      <trkpt lat="45.35891" lon="5.02917">
        <ele>294.37899780273</ele>
        <time>2009-06-27T14:17:07Z</time>
      </trkpt>
      <trkpt lat="45.35822" lon="5.02942">
        <ele>293.18499755859</ele>
        <time>2009-06-27T14:17:12Z</time>
      </trkpt>
      <trkpt lat="45.35809" lon="5.0295">
        <ele>293.28399658203</ele>
        <time>2009-06-27T14:17:13Z</time>
      </trkpt>
      <trkpt lat="45.35751" lon="5.02998">
        <ele>291.70498657227</ele>
        <time>2009-06-27T14:17:18Z</time>
      </trkpt>
      <trkpt lat="45.35659" lon="5.03102">
        <ele>288.56201171875</ele>
        <time>2009-06-27T14:17:26Z</time>
      </trkpt>
      <trkpt lat="45.35647" lon="5.03114">
        <ele>288.68399047852</ele>
        <time>2009-06-27T14:17:27Z</time>
      </trkpt>
      <trkpt lat="45.35603" lon="5.03164">
        <ele>287.75299072266</ele>
        <time>2009-06-27T14:17:31Z</time>
      </trkpt>
      <trkpt lat="45.35548" lon="5.03225">
        <ele>286.54598999023</ele>
        <time>2009-06-27T14:17:36Z</time>
      </trkpt>
      <trkpt lat="45.35468" lon="5.03312">
        <ele>287.11099243164</ele>
        <time>2009-06-27T14:17:44Z</time>
      </trkpt>
      <trkpt lat="45.35418" lon="5.03367">
        <ele>286.93499755859</ele>
        <time>2009-06-27T14:17:49Z</time>
      </trkpt>
      <trkpt lat="45.35291" lon="5.03501">
        <ele>288.12200927734</ele>
        <time>2009-06-27T14:18:03Z</time>
      </trkpt>
      <trkpt lat="45.35204" lon="5.03601">
        <ele>288.80899047852</ele>
        <time>2009-06-27T14:18:15Z</time>
      </trkpt>
      <trkpt lat="45.35144" lon="5.03667">
        <ele>288.93600463867</ele>
        <time>2009-06-27T14:18:25Z</time>
      </trkpt>
      <trkpt lat="45.35093" lon="5.03722">
        <ele>290.24700927734</ele>
        <time>2009-06-27T14:18:34Z</time>
      </trkpt>
      <trkpt lat="45.35036" lon="5.03785">
        <ele>289.91799926758</ele>
        <time>2009-06-27T14:18:44Z</time>
      </trkpt>
      <trkpt lat="45.3497" lon="5.03857">
        <ele>290.125</ele>
        <time>2009-06-27T14:18:56Z</time>
      </trkpt>
      <trkpt lat="45.34883" lon="5.03954">
        <ele>291.27801513672</ele>
        <time>2009-06-27T14:19:12Z</time>
      </trkpt>
      <trkpt lat="45.34802" lon="5.04042">
        <ele>290.64700317383</ele>
        <time>2009-06-27T14:19:27Z</time>
      </trkpt>
      <trkpt lat="45.3473" lon="5.04121">
        <ele>290.5950012207</ele>
        <time>2009-06-27T14:19:41Z</time>
      </trkpt>
      <trkpt lat="45.34715" lon="5.04137">
        <ele>290.58401489258</ele>
        <time>2009-06-27T14:19:44Z</time>
      </trkpt>
      <trkpt lat="45.34699" lon="5.04145">
        <ele>291.64801025391</ele>
        <time>2009-06-27T14:19:47Z</time>
      </trkpt>
      <trkpt lat="45.34689" lon="5.04149">
        <ele>292.02301025391</ele>
        <time>2009-06-27T14:19:49Z</time>
      </trkpt>
      <trkpt lat="45.34671" lon="5.0416">
        <ele>291.88198852539</ele>
        <time>2009-06-27T14:19:53Z</time>
      </trkpt>
      <trkpt lat="45.34652" lon="5.04141">
        <ele>291.86099243164</ele>
        <time>2009-06-27T14:20:00Z</time>
      </trkpt>
      <trkpt lat="45.34647" lon="5.04119">
        <ele>291.77700805664</ele>
        <time>2009-06-27T14:20:06Z</time>
      </trkpt>
      <trkpt lat="45.34646" lon="5.04132">
        <ele>291.53601074219</ele>
        <time>2009-06-27T14:20:09Z</time>
      </trkpt>
      <trkpt lat="45.34651" lon="5.04148">
        <ele>291.2799987793</ele>
        <time>2009-06-27T14:20:13Z</time>
      </trkpt>
      <trkpt lat="45.34648" lon="5.04168">
        <ele>291.4880065918</ele>
        <time>2009-06-27T14:20:17Z</time>
      </trkpt>
      <trkpt lat="45.34638" lon="5.04195">
        <ele>291.35299682617</ele>
        <time>2009-06-27T14:20:21Z</time>
      </trkpt>
      <trkpt lat="45.34628" lon="5.04218">
        <ele>291.59698486328</ele>
        <time>2009-06-27T14:20:24Z</time>
      </trkpt>
      <trkpt lat="45.3462" lon="5.04235">
        <ele>291.78698730469</ele>
        <time>2009-06-27T14:20:26Z</time>
      </trkpt>
      <trkpt lat="45.34595" lon="5.04269">
        <ele>292.09298706055</ele>
        <time>2009-06-27T14:20:31Z</time>
      </trkpt>
      <trkpt lat="45.34541" lon="5.0433">
        <ele>292.36801147461</ele>
        <time>2009-06-27T14:20:42Z</time>
      </trkpt>
      <trkpt lat="45.34471" lon="5.04405">
        <ele>292.47399902344</ele>
        <time>2009-06-27T14:20:57Z</time>
      </trkpt>
      <trkpt lat="45.34386" lon="5.04498">
        <ele>293.09100341797</ele>
        <time>2009-06-27T14:21:14Z</time>
      </trkpt>
      <trkpt lat="45.34285" lon="5.04608">
        <ele>293.14498901367</ele>
        <time>2009-06-27T14:21:34Z</time>
      </trkpt>
      <trkpt lat="45.34184" lon="5.0472">
        <ele>293.8210144043</ele>
        <time>2009-06-27T14:21:54Z</time>
      </trkpt>
      <trkpt lat="45.34085" lon="5.04828">
        <ele>293.35598754883</ele>
        <time>2009-06-27T14:22:13Z</time>
      </trkpt>
      <trkpt lat="45.34019" lon="5.049">
        <ele>294.67098999023</ele>
        <time>2009-06-27T14:22:27Z</time>
      </trkpt>
      <trkpt lat="45.34006" lon="5.04911">
        <ele>293.37399291992</ele>
        <time>2009-06-27T14:22:32Z</time>
      </trkpt>
      <trkpt lat="45.33998" lon="5.04924">
        <ele>293.28298950195</ele>
        <time>2009-06-27T14:22:37Z</time>
      </trkpt>
      <trkpt lat="45.33971" lon="5.04968">
        <ele>292.12701416016</ele>
        <time>2009-06-27T14:22:48Z</time>
      </trkpt>
      <trkpt lat="45.33953" lon="5.05001">
        <ele>290.32501220703</ele>
        <time>2009-06-27T14:22:53Z</time>
      </trkpt>
      <trkpt lat="45.33947" lon="5.05057">
        <ele>287.20999145508</ele>
        <time>2009-06-27T14:22:58Z</time>
      </trkpt>
      <trkpt lat="45.33953" lon="5.0511">
        <ele>284.40600585938</ele>
        <time>2009-06-27T14:23:02Z</time>
      </trkpt>
      <trkpt lat="45.33974" lon="5.05157">
        <ele>281.75201416016</ele>
        <time>2009-06-27T14:23:06Z</time>
      </trkpt>
      <trkpt lat="45.34002" lon="5.05181">
        <ele>281.01901245117</ele>
        <time>2009-06-27T14:23:09Z</time>
      </trkpt>
      <trkpt lat="45.3401" lon="5.05234">
        <ele>277.41400146484</ele>
        <time>2009-06-27T14:23:14Z</time>
      </trkpt>
      <trkpt lat="45.34003" lon="5.05243">
        <ele>276.18499755859</ele>
        <time>2009-06-27T14:23:15Z</time>
      </trkpt>
      <trkpt lat="45.33959" lon="5.05277">
        <ele>272.77499389648</ele>
        <time>2009-06-27T14:23:20Z</time>
      </trkpt>
      <trkpt lat="45.33937" lon="5.05287">
        <ele>271.73599243164</ele>
        <time>2009-06-27T14:23:22Z</time>
      </trkpt>
      <trkpt lat="45.33892" lon="5.05307">
        <ele>267.94000244141</ele>
        <time>2009-06-27T14:23:27Z</time>
      </trkpt>
      <trkpt lat="45.33867" lon="5.05319">
        <ele>265.99200439453</ele>
        <time>2009-06-27T14:23:30Z</time>
      </trkpt>
      <trkpt lat="45.33861" lon="5.05324">
        <ele>264.87200927734</ele>
        <time>2009-06-27T14:23:31Z</time>
      </trkpt>
      <trkpt lat="45.33828" lon="5.05333">
        <ele>262.98001098633</ele>
        <time>2009-06-27T14:23:36Z</time>
      </trkpt>
      <trkpt lat="45.33806" lon="5.05339">
        <ele>261.46099853516</ele>
        <time>2009-06-27T14:23:42Z</time>
      </trkpt>
      <trkpt lat="45.33806" lon="5.05365">
        <ele>261.08401489258</ele>
        <time>2009-06-27T14:23:50Z</time>
      </trkpt>
      <trkpt lat="45.33815" lon="5.05398">
        <ele>260.62799072266</ele>
        <time>2009-06-27T14:24:04Z</time>
      </trkpt>
      <trkpt lat="45.33817" lon="5.0541">
        <ele>260.38598632812</ele>
        <time>2009-06-27T14:24:08Z</time>
      </trkpt>
      <trkpt lat="45.33818" lon="5.0544">
        <ele>260.30899047852</ele>
        <time>2009-06-27T14:24:17Z</time>
      </trkpt>
      <trkpt lat="45.33826" lon="5.05464">
        <ele>259.64801025391</ele>
        <time>2009-06-27T14:24:28Z</time>
      </trkpt>
      <trkpt lat="45.33828" lon="5.05465">
        <ele>259.89001464844</ele>
        <time>2009-06-27T14:24:31Z</time>
      </trkpt>
      <trkpt lat="45.33841" lon="5.0546">
        <ele>259.61599731445</ele>
        <time>2009-06-27T14:26:35Z</time>
      </trkpt>
      <trkpt lat="45.33841" lon="5.0546">
        <ele>259.9049987793</ele>
        <time>2009-06-27T14:26:36Z</time>
      </trkpt>
      <trkpt lat="45.33843" lon="5.05469">
        <ele>259.59600830078</ele>
        <time>2009-06-27T14:27:51Z</time>
      </trkpt>
      <trkpt lat="45.33845" lon="5.05481">
        <ele>259.59399414062</ele>
        <time>2009-06-27T14:28:01Z</time>
      </trkpt>
      <trkpt lat="45.33848" lon="5.05494">
        <ele>259.86499023438</ele>
        <time>2009-06-27T14:28:16Z</time>
      </trkpt>
      <trkpt lat="45.33871" lon="5.05483">
        <ele>259.57699584961</ele>
        <time>2009-06-27T14:28:27Z</time>
      </trkpt>
      <trkpt lat="45.33875" lon="5.05463">
        <ele>259.93399047852</ele>
        <time>2009-06-27T14:28:33Z</time>
      </trkpt>
      <trkpt lat="45.33871" lon="5.05441">
        <ele>260.67300415039</ele>
        <time>2009-06-27T14:28:39Z</time>
      </trkpt>
      <trkpt lat="45.33865" lon="5.05389">
        <ele>261.80599975586</ele>
        <time>2009-06-27T14:28:51Z</time>
      </trkpt>
      <trkpt lat="45.33858" lon="5.05343">
        <ele>263.16000366211</ele>
        <time>2009-06-27T14:29:04Z</time>
      </trkpt>
      <trkpt lat="45.33857" lon="5.05342">
        <ele>263.29699707031</ele>
        <time>2009-06-27T14:29:06Z</time>
      </trkpt>
      <trkpt lat="45.33857" lon="5.05338">
        <ele>263.44198608398</ele>
        <time>2009-06-27T14:29:11Z</time>
      </trkpt>
      <trkpt lat="45.33855" lon="5.05333">
        <ele>263.42999267578</ele>
        <time>2009-06-27T14:29:18Z</time>
      </trkpt>
      <trkpt lat="45.33843" lon="5.05323">
        <ele>263.01998901367</ele>
        <time>2009-06-27T14:29:31Z</time>
      </trkpt>
      <trkpt lat="45.33836" lon="5.05324">
        <ele>262.59298706055</ele>
        <time>2009-06-27T14:29:33Z</time>
      </trkpt>
      <trkpt lat="45.33802" lon="5.05328">
        <ele>261.08801269531</ele>
        <time>2009-06-27T14:29:39Z</time>
      </trkpt>
      <trkpt lat="45.33796" lon="5.0533">
        <ele>260.84799194336</ele>
        <time>2009-06-27T14:29:40Z</time>
      </trkpt>
      <trkpt lat="45.33732" lon="5.05357">
        <ele>259.17999267578</ele>
        <time>2009-06-27T14:29:49Z</time>
      </trkpt>
      <trkpt lat="45.33718" lon="5.05363">
        <ele>258.95199584961</ele>
        <time>2009-06-27T14:29:51Z</time>
      </trkpt>
      <trkpt lat="45.3369" lon="5.05417">
        <ele>258.65701293945</ele>
        <time>2009-06-27T14:29:59Z</time>
      </trkpt>
      <trkpt lat="45.33692" lon="5.05439">
        <ele>259.02099609375</ele>
        <time>2009-06-27T14:30:02Z</time>
      </trkpt>
      <trkpt lat="45.33677" lon="5.05449">
        <ele>258.38800048828</ele>
        <time>2009-06-27T14:30:06Z</time>
      </trkpt>
      <trkpt lat="45.33651" lon="5.05452">
        <ele>258.08898925781</ele>
        <time>2009-06-27T14:30:13Z</time>
      </trkpt>
      <trkpt lat="45.33639" lon="5.05456">
        <ele>258.06698608398</ele>
        <time>2009-06-27T14:30:16Z</time>
      </trkpt>
      <trkpt lat="45.33618" lon="5.05463">
        <ele>258.04000854492</ele>
        <time>2009-06-27T14:30:21Z</time>
      </trkpt>
      <trkpt lat="45.33544" lon="5.05483">
        <ele>257.43600463867</ele>
        <time>2009-06-27T14:30:37Z</time>
      </trkpt>
      <trkpt lat="45.33482" lon="5.05502">
        <ele>257.52301025391</ele>
        <time>2009-06-27T14:30:50Z</time>
      </trkpt>
      <trkpt lat="45.33462" lon="5.05507">
        <ele>257.48001098633</ele>
        <time>2009-06-27T14:30:55Z</time>
      </trkpt>
      <trkpt lat="45.33458" lon="5.05529">
        <ele>257.70199584961</ele>
        <time>2009-06-27T14:31:01Z</time>
      </trkpt>
      <trkpt lat="45.33476" lon="5.05587">
        <ele>258.01501464844</ele>
        <time>2009-06-27T14:31:13Z</time>
      </trkpt>
      <trkpt lat="45.33478" lon="5.05596">
        <ele>257.96899414062</ele>
        <time>2009-06-27T14:31:15Z</time>
      </trkpt>
      <trkpt lat="45.33464" lon="5.0561">
        <ele>258.24700927734</ele>
        <time>2009-06-27T14:31:20Z</time>
      </trkpt>
      <trkpt lat="45.33433" lon="5.05619">
        <ele>258.30599975586</ele>
        <time>2009-06-27T14:31:27Z</time>
      </trkpt>
      <trkpt lat="45.33363" lon="5.0564">
        <ele>258.58401489258</ele>
        <time>2009-06-27T14:31:42Z</time>
      </trkpt>
      <trkpt lat="45.33262" lon="5.05669">
        <ele>257.41799926758</ele>
        <time>2009-06-27T14:32:00Z</time>
      </trkpt>
      <trkpt lat="45.33152" lon="5.05701">
        <ele>257.68301391602</ele>
        <time>2009-06-27T14:32:20Z</time>
      </trkpt>
      <trkpt lat="45.33123" lon="5.05698">
        <ele>257.76300048828</ele>
        <time>2009-06-27T14:32:25Z</time>
      </trkpt>
      <trkpt lat="45.33043" lon="5.05672">
        <ele>257.64999389648</ele>
        <time>2009-06-27T14:32:38Z</time>
      </trkpt>
      <trkpt lat="45.3298" lon="5.0565">
        <ele>256.99301147461</ele>
        <time>2009-06-27T14:32:48Z</time>
      </trkpt>
      <trkpt lat="45.32907" lon="5.0563">
        <ele>256.62200927734</ele>
        <time>2009-06-27T14:32:58Z</time>
      </trkpt>
      <trkpt lat="45.32742" lon="5.05608">
        <ele>256.87899780273</ele>
        <time>2009-06-27T14:33:21Z</time>
      </trkpt>
      <trkpt lat="45.32654" lon="5.05577">
        <ele>259.42199707031</ele>
        <time>2009-06-27T14:33:36Z</time>
      </trkpt>
      <trkpt lat="45.32596" lon="5.05535">
        <ele>263.07400512695</ele>
        <time>2009-06-27T14:33:51Z</time>
      </trkpt>
      <trkpt lat="45.32593" lon="5.05532">
        <ele>262.93399047852</ele>
        <time>2009-06-27T14:33:52Z</time>
      </trkpt>
      <trkpt lat="45.32574" lon="5.0551">
        <ele>263.98999023438</ele>
        <time>2009-06-27T14:33:58Z</time>
      </trkpt>
      <trkpt lat="45.32533" lon="5.05469">
        <ele>267.05899047852</ele>
        <time>2009-06-27T14:34:10Z</time>
      </trkpt>
      <trkpt lat="45.32486" lon="5.05422">
        <ele>269.55801391602</ele>
        <time>2009-06-27T14:34:23Z</time>
      </trkpt>
      <trkpt lat="45.32423" lon="5.05404">
        <ele>269.33599853516</ele>
        <time>2009-06-27T14:34:35Z</time>
      </trkpt>
      <trkpt lat="45.32399" lon="5.0537">
        <ele>270.81799316406</ele>
        <time>2009-06-27T14:34:42Z</time>
      </trkpt>
      <trkpt lat="45.32378" lon="5.05319">
        <ele>270.04400634766</ele>
        <time>2009-06-27T14:34:50Z</time>
      </trkpt>
      <trkpt lat="45.32366" lon="5.05317">
        <ele>270.04598999023</ele>
        <time>2009-06-27T14:34:52Z</time>
      </trkpt>
      <trkpt lat="45.32354" lon="5.05318">
        <ele>270.39599609375</ele>
        <time>2009-06-27T14:34:54Z</time>
      </trkpt>
      <trkpt lat="45.32307" lon="5.05303">
        <ele>271.30899047852</ele>
        <time>2009-06-27T14:35:02Z</time>
      </trkpt>
      <trkpt lat="45.32224" lon="5.0529">
        <ele>274.48999023438</ele>
        <time>2009-06-27T14:35:18Z</time>
      </trkpt>
      <trkpt lat="45.32187" lon="5.05274">
        <ele>274.45401000977</ele>
        <time>2009-06-27T14:35:25Z</time>
      </trkpt>
      <trkpt lat="45.32095" lon="5.05236">
        <ele>275.13101196289</ele>
        <time>2009-06-27T14:35:40Z</time>
      </trkpt>
      <trkpt lat="45.31963" lon="5.0518">
        <ele>276.00900268555</ele>
        <time>2009-06-27T14:35:59Z</time>
      </trkpt>
      <trkpt lat="45.31784" lon="5.05104">
        <ele>276.59100341797</ele>
        <time>2009-06-27T14:36:24Z</time>
      </trkpt>
      <trkpt lat="45.3168" lon="5.05061">
        <ele>276.96200561523</ele>
        <time>2009-06-27T14:36:39Z</time>
      </trkpt>
      <trkpt lat="45.31485" lon="5.0498">
        <ele>276.90798950195</ele>
        <time>2009-06-27T14:37:04Z</time>
      </trkpt>
      <trkpt lat="45.31304" lon="5.04904">
        <ele>276.06900024414</ele>
        <time>2009-06-27T14:37:26Z</time>
      </trkpt>
      <trkpt lat="45.31113" lon="5.04824">
        <ele>275.37701416016</ele>
        <time>2009-06-27T14:37:48Z</time>
      </trkpt>
      <trkpt lat="45.30927" lon="5.04745">
        <ele>275.20498657227</ele>
        <time>2009-06-27T14:38:08Z</time>
      </trkpt>
      <trkpt lat="45.30686" lon="5.04635">
        <ele>275.34600830078</ele>
        <time>2009-06-27T14:38:34Z</time>
      </trkpt>
      <trkpt lat="45.30511" lon="5.04543">
        <ele>274.50399780273</ele>
        <time>2009-06-27T14:38:54Z</time>
      </trkpt>
      <trkpt lat="45.30466" lon="5.04519">
        <ele>274.36199951172</ele>
        <time>2009-06-27T14:38:59Z</time>
      </trkpt>
      <trkpt lat="45.30359" lon="5.04451">
        <ele>273.27099609375</ele>
        <time>2009-06-27T14:39:11Z</time>
      </trkpt>
      <trkpt lat="45.30283" lon="5.04367">
        <ele>269.96600341797</ele>
        <time>2009-06-27T14:39:20Z</time>
      </trkpt>
      <trkpt lat="45.30227" lon="5.04266">
        <ele>269.37799072266</ele>
        <time>2009-06-27T14:39:28Z</time>
      </trkpt>
      <trkpt lat="45.30176" lon="5.04149">
        <ele>273.57299804688</ele>
        <time>2009-06-27T14:39:40Z</time>
      </trkpt>
      <trkpt lat="45.30159" lon="5.04108">
        <ele>274.33700561523</ele>
        <time>2009-06-27T14:39:45Z</time>
      </trkpt>
      <trkpt lat="45.30144" lon="5.04075">
        <ele>274.85900878906</ele>
        <time>2009-06-27T14:39:49Z</time>
      </trkpt>
      <trkpt lat="45.3012" lon="5.04043">
        <ele>275.51599121094</ele>
        <time>2009-06-27T14:39:54Z</time>
      </trkpt>
      <trkpt lat="45.30092" lon="5.04023">
        <ele>276.25100708008</ele>
        <time>2009-06-27T14:39:59Z</time>
      </trkpt>
      <trkpt lat="45.30064" lon="5.04001">
        <ele>277.92098999023</ele>
        <time>2009-06-27T14:40:05Z</time>
      </trkpt>
      <trkpt lat="45.3004" lon="5.04">
        <ele>278.62799072266</ele>
        <time>2009-06-27T14:40:10Z</time>
      </trkpt>
      <trkpt lat="45.30031" lon="5.04005">
        <ele>278.76000976562</ele>
        <time>2009-06-27T14:40:12Z</time>
      </trkpt>
      <trkpt lat="45.30012" lon="5.0401">
        <ele>279.49099731445</ele>
        <time>2009-06-27T14:40:16Z</time>
      </trkpt>
      <trkpt lat="45.30002" lon="5.0401">
        <ele>280.09100341797</ele>
        <time>2009-06-27T14:40:18Z</time>
      </trkpt>
      <trkpt lat="45.29916" lon="5.03981">
        <ele>283.08599853516</ele>
        <time>2009-06-27T14:40:36Z</time>
      </trkpt>
      <trkpt lat="45.29893" lon="5.03972">
        <ele>283.83999633789</ele>
        <time>2009-06-27T14:40:41Z</time>
      </trkpt>
      <trkpt lat="45.29884" lon="5.03968">
        <ele>284.07901000977</ele>
        <time>2009-06-27T14:40:43Z</time>
      </trkpt>
      <trkpt lat="45.29782" lon="5.03944">
        <ele>285.66500854492</ele>
        <time>2009-06-27T14:41:02Z</time>
      </trkpt>
      <trkpt lat="45.29685" lon="5.03985">
        <ele>287.29800415039</ele>
        <time>2009-06-27T14:41:20Z</time>
      </trkpt>
      <trkpt lat="45.29585" lon="5.04085">
        <ele>288.47399902344</ele>
        <time>2009-06-27T14:41:41Z</time>
      </trkpt>
      <trkpt lat="45.29486" lon="5.04185">
        <ele>290.17199707031</ele>
        <time>2009-06-27T14:42:01Z</time>
      </trkpt>
      <trkpt lat="45.29446" lon="5.04212">
        <ele>291.36499023438</ele>
        <time>2009-06-27T14:42:09Z</time>
      </trkpt>
      <trkpt lat="45.29374" lon="5.04228">
        <ele>294.41598510742</ele>
        <time>2009-06-27T14:42:25Z</time>
      </trkpt>
      <trkpt lat="45.2933" lon="5.04227">
        <ele>296.55899047852</ele>
        <time>2009-06-27T14:42:35Z</time>
      </trkpt>
      <trkpt lat="45.29248" lon="5.04237">
        <ele>300.48901367188</ele>
        <time>2009-06-27T14:42:53Z</time>
      </trkpt>
      <trkpt lat="45.29192" lon="5.04264">
        <ele>302.7380065918</ele>
        <time>2009-06-27T14:43:07Z</time>
      </trkpt>
      <trkpt lat="45.29172" lon="5.04272">
        <ele>304.10699462891</ele>
        <time>2009-06-27T14:43:12Z</time>
      </trkpt>
      <trkpt lat="45.29156" lon="5.0427">
        <ele>304.98699951172</ele>
        <time>2009-06-27T14:43:16Z</time>
      </trkpt>
      <trkpt lat="45.29122" lon="5.04273">
        <ele>307.28900146484</ele>
        <time>2009-06-27T14:43:25Z</time>
      </trkpt>
      <trkpt lat="45.29059" lon="5.04275">
        <ele>311.05801391602</ele>
        <time>2009-06-27T14:43:41Z</time>
      </trkpt>
      <trkpt lat="45.28978" lon="5.04299">
        <ele>316.27499389648</ele>
        <time>2009-06-27T14:44:01Z</time>
      </trkpt>
      <trkpt lat="45.28902" lon="5.04329">
        <ele>320.70001220703</ele>
        <time>2009-06-27T14:44:19Z</time>
      </trkpt>
      <trkpt lat="45.28814" lon="5.04363">
        <ele>326.38000488281</ele>
        <time>2009-06-27T14:44:40Z</time>
      </trkpt>
      <trkpt lat="45.28766" lon="5.04365">
        <ele>328.90701293945</ele>
        <time>2009-06-27T14:44:52Z</time>
      </trkpt>
      <trkpt lat="45.28747" lon="5.04315">
        <ele>330.52801513672</ele>
        <time>2009-06-27T14:45:02Z</time>
      </trkpt>
      <trkpt lat="45.28766" lon="5.04291">
        <ele>331.91900634766</ele>
        <time>2009-06-27T14:45:08Z</time>
      </trkpt>
      <trkpt lat="45.28843" lon="5.04257">
        <ele>336.47198486328</ele>
        <time>2009-06-27T14:45:28Z</time>
      </trkpt>
      <trkpt lat="45.28899" lon="5.04191">
        <ele>339.88198852539</ele>
        <time>2009-06-27T14:45:47Z</time>
      </trkpt>
      <trkpt lat="45.28967" lon="5.04095">
        <ele>345.43701171875</ele>
        <time>2009-06-27T14:46:11Z</time>
      </trkpt>
      <trkpt lat="45.28979" lon="5.04048">
        <ele>347.35198974609</ele>
        <time>2009-06-27T14:46:20Z</time>
      </trkpt>
      <trkpt lat="45.28973" lon="5.03971">
        <ele>350.22198486328</ele>
        <time>2009-06-27T14:46:33Z</time>
      </trkpt>
      <trkpt lat="45.28965" lon="5.03946">
        <ele>351.17700195312</ele>
        <time>2009-06-27T14:46:37Z</time>
      </trkpt>
      <trkpt lat="45.28911" lon="5.03847">
        <ele>356.27801513672</ele>
        <time>2009-06-27T14:46:55Z</time>
      </trkpt>
      <trkpt lat="45.28899" lon="5.03817">
        <ele>357.73599243164</ele>
        <time>2009-06-27T14:47:00Z</time>
      </trkpt>
      <trkpt lat="45.28871" lon="5.03787">
        <ele>360.40798950195</ele>
        <time>2009-06-27T14:47:07Z</time>
      </trkpt>
      <trkpt lat="45.28851" lon="5.03781">
        <ele>360.80099487305</ele>
        <time>2009-06-27T14:47:11Z</time>
      </trkpt>
      <trkpt lat="45.28772" lon="5.03805">
        <ele>365.57501220703</ele>
        <time>2009-06-27T14:47:28Z</time>
      </trkpt>
      <trkpt lat="45.28691" lon="5.03847">
        <ele>370.46200561523</ele>
        <time>2009-06-27T14:47:47Z</time>
      </trkpt>
      <trkpt lat="45.28609" lon="5.03872">
        <ele>374.87701416016</ele>
        <time>2009-06-27T14:48:05Z</time>
      </trkpt>
      <trkpt lat="45.28526" lon="5.03911">
        <ele>379.63400268555</ele>
        <time>2009-06-27T14:48:19Z</time>
      </trkpt>
      <trkpt lat="45.28521" lon="5.03914">
        <ele>380.05700683594</ele>
        <time>2009-06-27T14:48:20Z</time>
      </trkpt>
      <trkpt lat="45.28499" lon="5.03888">
        <ele>382.73001098633</ele>
        <time>2009-06-27T14:48:27Z</time>
      </trkpt>
      <trkpt lat="45.28506" lon="5.03869">
        <ele>383.19100952148</ele>
        <time>2009-06-27T14:48:30Z</time>
      </trkpt>
      <trkpt lat="45.28513" lon="5.0386">
        <ele>383.86099243164</ele>
        <time>2009-06-27T14:48:32Z</time>
      </trkpt>
      <trkpt lat="45.28521" lon="5.03852">
        <ele>384.13198852539</ele>
        <time>2009-06-27T14:48:34Z</time>
      </trkpt>
      <trkpt lat="45.28532" lon="5.03834">
        <ele>385.00399780273</ele>
        <time>2009-06-27T14:48:38Z</time>
      </trkpt>
      <trkpt lat="45.28566" lon="5.03762">
        <ele>387.51098632812</ele>
        <time>2009-06-27T14:48:54Z</time>
      </trkpt>
      <trkpt lat="45.28587" lon="5.0372">
        <ele>388.92098999023</ele>
        <time>2009-06-27T14:49:08Z</time>
      </trkpt>
      <trkpt lat="45.28616" lon="5.03672">
        <ele>392.05999755859</ele>
        <time>2009-06-27T14:49:24Z</time>
      </trkpt>
      <trkpt lat="45.28626" lon="5.03628">
        <ele>393.93301391602</ele>
        <time>2009-06-27T14:49:36Z</time>
      </trkpt>
      <trkpt lat="45.28604" lon="5.0357">
        <ele>396.66299438477</ele>
        <time>2009-06-27T14:49:52Z</time>
      </trkpt>
      <trkpt lat="45.28568" lon="5.03552">
        <ele>398.43798828125</ele>
        <time>2009-06-27T14:50:05Z</time>
      </trkpt>
      <trkpt lat="45.28513" lon="5.03542">
        <ele>401.58700561523</ele>
        <time>2009-06-27T14:50:24Z</time>
      </trkpt>
      <trkpt lat="45.2847" lon="5.03535">
        <ele>403.71899414062</ele>
        <time>2009-06-27T14:50:38Z</time>
      </trkpt>
      <trkpt lat="45.28421" lon="5.03521">
        <ele>406.3039855957</ele>
        <time>2009-06-27T14:50:53Z</time>
      </trkpt>
      <trkpt lat="45.28362" lon="5.0351">
        <ele>409.86700439453</ele>
        <time>2009-06-27T14:51:12Z</time>
      </trkpt>
      <trkpt lat="45.28309" lon="5.03495">
        <ele>412.80899047852</ele>
        <time>2009-06-27T14:51:26Z</time>
      </trkpt>
      <trkpt lat="45.28273" lon="5.03469">
        <ele>415.22601318359</ele>
        <time>2009-06-27T14:51:36Z</time>
      </trkpt>
      <trkpt lat="45.28216" lon="5.03422">
        <ele>417.74099731445</ele>
        <time>2009-06-27T14:51:53Z</time>
      </trkpt>
      <trkpt lat="45.28204" lon="5.03416">
        <ele>417.95199584961</ele>
        <time>2009-06-27T14:51:56Z</time>
      </trkpt>
      <trkpt lat="45.28129" lon="5.03413">
        <ele>419.41799926758</ele>
        <time>2009-06-27T14:52:11Z</time>
      </trkpt>
      <trkpt lat="45.28112" lon="5.03416">
        <ele>419.77899169922</ele>
        <time>2009-06-27T14:52:14Z</time>
      </trkpt>
      <trkpt lat="45.28019" lon="5.03426">
        <ele>419.90200805664</ele>
        <time>2009-06-27T14:52:28Z</time>
      </trkpt>
      <trkpt lat="45.27941" lon="5.03436">
        <ele>418.10501098633</ele>
        <time>2009-06-27T14:52:37Z</time>
      </trkpt>
      <trkpt lat="45.27871" lon="5.03443">
        <ele>416.54800415039</ele>
        <time>2009-06-27T14:52:44Z</time>
      </trkpt>
      <trkpt lat="45.2783" lon="5.03448">
        <ele>417.02899169922</ele>
        <time>2009-06-27T14:52:48Z</time>
      </trkpt>
      <trkpt lat="45.27741" lon="5.03457">
        <ele>418.88800048828</ele>
        <time>2009-06-27T14:52:58Z</time>
      </trkpt>
      <trkpt lat="45.27687" lon="5.03464">
        <ele>420.12399291992</ele>
        <time>2009-06-27T14:53:05Z</time>
      </trkpt>
      <trkpt lat="45.27618" lon="5.03472">
        <ele>422.07800292969</ele>
        <time>2009-06-27T14:53:17Z</time>
      </trkpt>
      <trkpt lat="45.27543" lon="5.03481">
        <ele>424.00100708008</ele>
        <time>2009-06-27T14:53:33Z</time>
      </trkpt>
      <trkpt lat="45.27462" lon="5.03491">
        <ele>425.57000732422</ele>
        <time>2009-06-27T14:53:48Z</time>
      </trkpt>
      <trkpt lat="45.27394" lon="5.03497">
        <ele>423.36401367188</ele>
        <time>2009-06-27T14:53:59Z</time>
      </trkpt>
      <trkpt lat="45.27354" lon="5.03484">
        <ele>421.02700805664</ele>
        <time>2009-06-27T14:54:04Z</time>
      </trkpt>
      <trkpt lat="45.2732" lon="5.03464">
        <ele>419.16500854492</ele>
        <time>2009-06-27T14:54:08Z</time>
      </trkpt>
      <trkpt lat="45.27253" lon="5.0341">
        <ele>415.29501342773</ele>
        <time>2009-06-27T14:54:15Z</time>
      </trkpt>
      <trkpt lat="45.27225" lon="5.03359">
        <ele>411.97100830078</ele>
        <time>2009-06-27T14:54:19Z</time>
      </trkpt>
      <trkpt lat="45.27221" lon="5.03343">
        <ele>411.20901489258</ele>
        <time>2009-06-27T14:54:20Z</time>
      </trkpt>
      <trkpt lat="45.27213" lon="5.03311">
        <ele>409.66598510742</ele>
        <time>2009-06-27T14:54:22Z</time>
      </trkpt>
      <trkpt lat="45.27177" lon="5.03238">
        <ele>406.81698608398</ele>
        <time>2009-06-27T14:54:27Z</time>
      </trkpt>
      <trkpt lat="45.27146" lon="5.03203">
        <ele>404.03799438477</ele>
        <time>2009-06-27T14:54:30Z</time>
      </trkpt>
      <trkpt lat="45.27085" lon="5.03163">
        <ele>400.79299926758</ele>
        <time>2009-06-27T14:54:35Z</time>
      </trkpt>
      <trkpt lat="45.27072" lon="5.03157">
        <ele>400.60101318359</ele>
        <time>2009-06-27T14:54:36Z</time>
      </trkpt>
      <trkpt lat="45.27034" lon="5.03137">
        <ele>395.84100341797</ele>
        <time>2009-06-27T14:54:39Z</time>
      </trkpt>
      <trkpt lat="45.26995" lon="5.03119">
        <ele>394.23098754883</ele>
        <time>2009-06-27T14:54:42Z</time>
      </trkpt>
      <trkpt lat="45.26955" lon="5.031">
        <ele>391.86499023438</ele>
        <time>2009-06-27T14:54:45Z</time>
      </trkpt>
      <trkpt lat="45.26901" lon="5.03076">
        <ele>388.57000732422</ele>
        <time>2009-06-27T14:54:49Z</time>
      </trkpt>
      <trkpt lat="45.26788" lon="5.03031">
        <ele>381.8030090332</ele>
        <time>2009-06-27T14:54:57Z</time>
      </trkpt>
      <trkpt lat="45.26653" lon="5.0297">
        <ele>371.50601196289</ele>
        <time>2009-06-27T14:55:06Z</time>
      </trkpt>
      <trkpt lat="45.26545" lon="5.02914">
        <ele>365.65301513672</ele>
        <time>2009-06-27T14:55:13Z</time>
      </trkpt>
      <trkpt lat="45.26413" lon="5.02915">
        <ele>355.55899047852</ele>
        <time>2009-06-27T14:55:21Z</time>
      </trkpt>
      <trkpt lat="45.26348" lon="5.02931">
        <ele>351.15600585938</ele>
        <time>2009-06-27T14:55:25Z</time>
      </trkpt>
      <trkpt lat="45.26301" lon="5.02943">
        <ele>349.20199584961</ele>
        <time>2009-06-27T14:55:28Z</time>
      </trkpt>
      <trkpt lat="45.26238" lon="5.02936">
        <ele>346.59399414062</ele>
        <time>2009-06-27T14:55:32Z</time>
      </trkpt>
      <trkpt lat="45.2613" lon="5.0289">
        <ele>337.875</ele>
        <time>2009-06-27T14:55:39Z</time>
      </trkpt>
      <trkpt lat="45.26099" lon="5.02877">
        <ele>336.37298583984</ele>
        <time>2009-06-27T14:55:41Z</time>
      </trkpt>
      <trkpt lat="45.26038" lon="5.02881">
        <ele>331.66900634766</ele>
        <time>2009-06-27T14:55:45Z</time>
      </trkpt>
      <trkpt lat="45.25965" lon="5.02906">
        <ele>327.75900268555</ele>
        <time>2009-06-27T14:55:50Z</time>
      </trkpt>
      <trkpt lat="45.25919" lon="5.02904">
        <ele>325.5419921875</ele>
        <time>2009-06-27T14:55:53Z</time>
      </trkpt>
      <trkpt lat="45.25787" lon="5.02852">
        <ele>316.64498901367</ele>
        <time>2009-06-27T14:56:02Z</time>
      </trkpt>
      <trkpt lat="45.25745" lon="5.02821">
        <ele>314.66299438477</ele>
        <time>2009-06-27T14:56:05Z</time>
      </trkpt>
      <trkpt lat="45.25721" lon="5.028">
        <ele>311.63299560547</ele>
        <time>2009-06-27T14:56:07Z</time>
      </trkpt>
      <trkpt lat="45.25673" lon="5.02767">
        <ele>309.93600463867</ele>
        <time>2009-06-27T14:56:11Z</time>
      </trkpt>
      <trkpt lat="45.256" lon="5.02701">
        <ele>304.85000610352</ele>
        <time>2009-06-27T14:56:18Z</time>
      </trkpt>
      <trkpt lat="45.2557" lon="5.02653">
        <ele>302.74899291992</ele>
        <time>2009-06-27T14:56:22Z</time>
      </trkpt>
      <trkpt lat="45.25564" lon="5.02639">
        <ele>302.07299804688</ele>
        <time>2009-06-27T14:56:23Z</time>
      </trkpt>
      <trkpt lat="45.25516" lon="5.02528">
        <ele>298.92498779297</ele>
        <time>2009-06-27T14:56:33Z</time>
      </trkpt>
      <trkpt lat="45.2548" lon="5.0245">
        <ele>299.37799072266</ele>
        <time>2009-06-27T14:56:42Z</time>
      </trkpt>
      <trkpt lat="45.25483" lon="5.02407">
        <ele>300.39801025391</ele>
        <time>2009-06-27T14:56:49Z</time>
      </trkpt>
      <trkpt lat="45.25468" lon="5.02395">
        <ele>299.93798828125</ele>
        <time>2009-06-27T14:56:57Z</time>
      </trkpt>
      <trkpt lat="45.25468" lon="5.02396">
        <ele>300.11099243164</ele>
        <time>2009-06-27T14:56:58Z</time>
      </trkpt>
      <trkpt lat="45.2546" lon="5.02425">
        <ele>299.68399047852</ele>
        <time>2009-06-27T14:57:07Z</time>
      </trkpt>
      <trkpt lat="45.25479" lon="5.02423">
        <ele>299.72900390625</ele>
        <time>2009-06-27T14:57:13Z</time>
      </trkpt>
      <trkpt lat="45.25485" lon="5.02418">
        <ele>299.82800292969</ele>
        <time>2009-06-27T14:57:18Z</time>
      </trkpt>
      <trkpt lat="45.25462" lon="5.0241">
        <ele>300.05999755859</ele>
        <time>2009-06-27T14:58:17Z</time>
      </trkpt>
      <trkpt lat="45.25456" lon="5.02423">
        <ele>300.45901489258</ele>
        <time>2009-06-27T14:58:20Z</time>
      </trkpt>
      <trkpt lat="45.25433" lon="5.02455">
        <ele>299.56799316406</ele>
        <time>2009-06-27T14:58:27Z</time>
      </trkpt>
      <trkpt lat="45.25374" lon="5.0252">
        <ele>299.94400024414</ele>
        <time>2009-06-27T14:58:42Z</time>
      </trkpt>
      <trkpt lat="45.25336" lon="5.02563">
        <ele>300.72198486328</ele>
        <time>2009-06-27T14:58:52Z</time>
      </trkpt>
      <trkpt lat="45.25262" lon="5.02646">
        <ele>300.23901367188</ele>
        <time>2009-06-27T14:59:10Z</time>
      </trkpt>
      <trkpt lat="45.25183" lon="5.02736">
        <ele>300.88000488281</ele>
        <time>2009-06-27T14:59:28Z</time>
      </trkpt>
      <trkpt lat="45.2511" lon="5.02808">
        <ele>300.99200439453</ele>
        <time>2009-06-27T14:59:44Z</time>
      </trkpt>
      <trkpt lat="45.25059" lon="5.028">
        <ele>302.10598754883</ele>
        <time>2009-06-27T14:59:53Z</time>
      </trkpt>
      <trkpt lat="45.24994" lon="5.02735">
        <ele>304.31600952148</ele>
        <time>2009-06-27T15:00:07Z</time>
      </trkpt>
      <trkpt lat="45.24966" lon="5.02701">
        <ele>305.45001220703</ele>
        <time>2009-06-27T15:00:14Z</time>
      </trkpt>
      <trkpt lat="45.24953" lon="5.02677">
        <ele>306.37298583984</ele>
        <time>2009-06-27T15:00:18Z</time>
      </trkpt>
      <trkpt lat="45.24933" lon="5.02617">
        <ele>308.63299560547</ele>
        <time>2009-06-27T15:00:27Z</time>
      </trkpt>
      <trkpt lat="45.24921" lon="5.02564">
        <ele>310.09201049805</ele>
        <time>2009-06-27T15:00:35Z</time>
      </trkpt>
      <trkpt lat="45.24883" lon="5.02527">
        <ele>311.59399414062</ele>
        <time>2009-06-27T15:00:45Z</time>
      </trkpt>
      <trkpt lat="45.24862" lon="5.02538">
        <ele>312.96499633789</ele>
        <time>2009-06-27T15:00:50Z</time>
      </trkpt>
      <trkpt lat="45.24839" lon="5.02544">
        <ele>314.14999389648</ele>
        <time>2009-06-27T15:00:57Z</time>
      </trkpt>
      <trkpt lat="45.24804" lon="5.02471">
        <ele>310.44799804688</ele>
        <time>2009-06-27T15:01:08Z</time>
      </trkpt>
      <trkpt lat="45.24769" lon="5.02407">
        <ele>307.91598510742</ele>
        <time>2009-06-27T15:01:15Z</time>
      </trkpt>
      <trkpt lat="45.24758" lon="5.02387">
        <ele>307.22799682617</ele>
        <time>2009-06-27T15:01:17Z</time>
      </trkpt>
      <trkpt lat="45.24741" lon="5.02353">
        <ele>305.82598876953</ele>
        <time>2009-06-27T15:01:20Z</time>
      </trkpt>
      <trkpt lat="45.24719" lon="5.02296">
        <ele>306.01998901367</ele>
        <time>2009-06-27T15:01:25Z</time>
      </trkpt>
      <trkpt lat="45.24709" lon="5.02269">
        <ele>306.48999023438</ele>
        <time>2009-06-27T15:01:28Z</time>
      </trkpt>
      <trkpt lat="45.24706" lon="5.02261">
        <ele>306.55801391602</ele>
        <time>2009-06-27T15:01:29Z</time>
      </trkpt>
      <trkpt lat="45.24692" lon="5.02225">
        <ele>307.75</ele>
        <time>2009-06-27T15:01:34Z</time>
      </trkpt>
      <trkpt lat="45.24673" lon="5.02171">
        <ele>309.3330078125</ele>
        <time>2009-06-27T15:01:42Z</time>
      </trkpt>
      <trkpt lat="45.24644" lon="5.02094">
        <ele>310.59298706055</ele>
        <time>2009-06-27T15:01:53Z</time>
      </trkpt>
      <trkpt lat="45.24596" lon="5.01953">
        <ele>308.24798583984</ele>
        <time>2009-06-27T15:02:09Z</time>
      </trkpt>
      <trkpt lat="45.2454" lon="5.01775">
        <ele>307.61599731445</ele>
        <time>2009-06-27T15:02:28Z</time>
      </trkpt>
      <trkpt lat="45.24526" lon="5.01601">
        <ele>305.22100830078</ele>
        <time>2009-06-27T15:02:44Z</time>
      </trkpt>
      <trkpt lat="45.24509" lon="5.01481">
        <ele>302.65600585938</ele>
        <time>2009-06-27T15:02:54Z</time>
      </trkpt>
      <trkpt lat="45.245" lon="5.01435">
        <ele>302.34698486328</ele>
        <time>2009-06-27T15:02:58Z</time>
      </trkpt>
      <trkpt lat="45.24494" lon="5.01412">
        <ele>302.80599975586</ele>
        <time>2009-06-27T15:03:00Z</time>
      </trkpt>
      <trkpt lat="45.24484" lon="5.01395">
        <ele>302.72198486328</ele>
        <time>2009-06-27T15:03:02Z</time>
      </trkpt>
      <trkpt lat="45.24437" lon="5.01391">
        <ele>303.98098754883</ele>
        <time>2009-06-27T15:03:08Z</time>
      </trkpt>
      <trkpt lat="45.24405" lon="5.01401">
        <ele>305.77301025391</ele>
        <time>2009-06-27T15:03:13Z</time>
      </trkpt>
      <trkpt lat="45.24389" lon="5.01405">
        <ele>307.1969909668</ele>
        <time>2009-06-27T15:03:16Z</time>
      </trkpt>
      <trkpt lat="45.24385" lon="5.01406">
        <ele>307.46600341797</ele>
        <time>2009-06-27T15:03:17Z</time>
      </trkpt>
      <trkpt lat="45.24376" lon="5.01407">
        <ele>307.81600952148</ele>
        <time>2009-06-27T15:03:19Z</time>
      </trkpt>
      <trkpt lat="45.24354" lon="5.01401">
        <ele>308.84600830078</ele>
        <time>2009-06-27T15:03:24Z</time>
      </trkpt>
      <trkpt lat="45.24342" lon="5.01395">
        <ele>309.44400024414</ele>
        <time>2009-06-27T15:03:27Z</time>
      </trkpt>
      <trkpt lat="45.24317" lon="5.01376">
        <ele>311.49301147461</ele>
        <time>2009-06-27T15:03:34Z</time>
      </trkpt>
      <trkpt lat="45.24307" lon="5.01366">
        <ele>311.93899536133</ele>
        <time>2009-06-27T15:03:37Z</time>
      </trkpt>
      <trkpt lat="45.24299" lon="5.01352">
        <ele>312.62399291992</ele>
        <time>2009-06-27T15:03:40Z</time>
      </trkpt>
      <trkpt lat="45.24306" lon="5.01307">
        <ele>314.22399902344</ele>
        <time>2009-06-27T15:03:48Z</time>
      </trkpt>
      <trkpt lat="45.24342" lon="5.01265">
        <ele>317.0539855957</ele>
        <time>2009-06-27T15:04:01Z</time>
      </trkpt>
      <trkpt lat="45.24363" lon="5.0122">
        <ele>319.79299926758</ele>
        <time>2009-06-27T15:04:12Z</time>
      </trkpt>
      <trkpt lat="45.24401" lon="5.01178">
        <ele>322.60501098633</ele>
        <time>2009-06-27T15:04:25Z</time>
      </trkpt>
      <trkpt lat="45.24427" lon="5.0114">
        <ele>325.68899536133</ele>
        <time>2009-06-27T15:04:36Z</time>
      </trkpt>
      <trkpt lat="45.24414" lon="5.0109">
        <ele>328.08499145508</ele>
        <time>2009-06-27T15:04:46Z</time>
      </trkpt>
      <trkpt lat="45.24378" lon="5.01056">
        <ele>330.70199584961</ele>
        <time>2009-06-27T15:04:56Z</time>
      </trkpt>
      <trkpt lat="45.24363" lon="5.01048">
        <ele>331.69000244141</ele>
        <time>2009-06-27T15:05:00Z</time>
      </trkpt>
      <trkpt lat="45.243" lon="5.01047">
        <ele>335.46600341797</ele>
        <time>2009-06-27T15:05:15Z</time>
      </trkpt>
      <trkpt lat="45.24296" lon="5.01047">
        <ele>335.87298583984</ele>
        <time>2009-06-27T15:05:16Z</time>
      </trkpt>
      <trkpt lat="45.2428" lon="5.01042">
        <ele>336.82400512695</ele>
        <time>2009-06-27T15:05:20Z</time>
      </trkpt>
      <trkpt lat="45.2424" lon="5.00988">
        <ele>340.31698608398</ele>
        <time>2009-06-27T15:05:34Z</time>
      </trkpt>
      <trkpt lat="45.24238" lon="5.00981">
        <ele>341.05499267578</ele>
        <time>2009-06-27T15:05:35Z</time>
      </trkpt>
      <trkpt lat="45.24235" lon="5.00966">
        <ele>341.72799682617</ele>
        <time>2009-06-27T15:05:37Z</time>
      </trkpt>
      <trkpt lat="45.24231" lon="5.00921">
        <ele>343.23999023438</ele>
        <time>2009-06-27T15:05:44Z</time>
      </trkpt>
      <trkpt lat="45.24203" lon="5.00896">
        <ele>344.21899414062</ele>
        <time>2009-06-27T15:05:53Z</time>
      </trkpt>
      <trkpt lat="45.24199" lon="5.00934">
        <ele>345.40399169922</ele>
        <time>2009-06-27T15:05:59Z</time>
      </trkpt>
      <trkpt lat="45.24203" lon="5.00954">
        <ele>345.50100708008</ele>
        <time>2009-06-27T15:06:02Z</time>
      </trkpt>
      <trkpt lat="45.24207" lon="5.00976">
        <ele>345.47100830078</ele>
        <time>2009-06-27T15:06:05Z</time>
      </trkpt>
      <trkpt lat="45.24184" lon="5.01036">
        <ele>348.42599487305</ele>
        <time>2009-06-27T15:06:15Z</time>
      </trkpt>
      <trkpt lat="45.24174" lon="5.01041">
        <ele>348.98001098633</ele>
        <time>2009-06-27T15:06:17Z</time>
      </trkpt>
      <trkpt lat="45.24094" lon="5.01056">
        <ele>354.08499145508</ele>
        <time>2009-06-27T15:06:34Z</time>
      </trkpt>
      <trkpt lat="45.24002" lon="5.01073">
        <ele>360.03601074219</ele>
        <time>2009-06-27T15:06:53Z</time>
      </trkpt>
      <trkpt lat="45.23993" lon="5.01074">
        <ele>360.66900634766</ele>
        <time>2009-06-27T15:06:55Z</time>
      </trkpt>
      <trkpt lat="45.23901" lon="5.01091">
        <ele>364.23300170898</ele>
        <time>2009-06-27T15:07:14Z</time>
      </trkpt>
      <trkpt lat="45.23823" lon="5.01088">
        <ele>362.26098632812</ele>
        <time>2009-06-27T15:07:27Z</time>
      </trkpt>
      <trkpt lat="45.23779" lon="5.01076">
        <ele>361.73901367188</ele>
        <time>2009-06-27T15:07:34Z</time>
      </trkpt>
      <trkpt lat="45.23755" lon="5.0107">
        <ele>361.80899047852</ele>
        <time>2009-06-27T15:07:38Z</time>
      </trkpt>
      <trkpt lat="45.2369" lon="5.01052">
        <ele>361.85400390625</ele>
        <time>2009-06-27T15:07:49Z</time>
      </trkpt>
      <trkpt lat="45.23658" lon="5.01045">
        <ele>361.55099487305</ele>
        <time>2009-06-27T15:07:55Z</time>
      </trkpt>
      <trkpt lat="45.23621" lon="5.01036">
        <ele>361.37899780273</ele>
        <time>2009-06-27T15:08:02Z</time>
      </trkpt>
      <trkpt lat="45.23604" lon="5.01032">
        <ele>360.78100585938</ele>
        <time>2009-06-27T15:08:05Z</time>
      </trkpt>
      <trkpt lat="45.23593" lon="5.01028">
        <ele>360.64001464844</ele>
        <time>2009-06-27T15:08:07Z</time>
      </trkpt>
      <trkpt lat="45.23587" lon="5.01025">
        <ele>360.61801147461</ele>
        <time>2009-06-27T15:08:08Z</time>
      </trkpt>
      <trkpt lat="45.23492" lon="5.00981">
        <ele>358.07998657227</ele>
        <time>2009-06-27T15:08:23Z</time>
      </trkpt>
      <trkpt lat="45.2346" lon="5.00975">
        <ele>357.3210144043</ele>
        <time>2009-06-27T15:08:27Z</time>
      </trkpt>
      <trkpt lat="45.23397" lon="5.00965">
        <ele>354.27398681641</ele>
        <time>2009-06-27T15:08:34Z</time>
      </trkpt>
      <trkpt lat="45.23267" lon="5.00942">
        <ele>351.72500610352</ele>
        <time>2009-06-27T15:08:47Z</time>
      </trkpt>
      <trkpt lat="45.23233" lon="5.00925">
        <ele>350.13101196289</ele>
        <time>2009-06-27T15:08:51Z</time>
      </trkpt>
      <trkpt lat="45.23169" lon="5.00914">
        <ele>350.85900878906</ele>
        <time>2009-06-27T15:08:59Z</time>
      </trkpt>
      <trkpt lat="45.23143" lon="5.0091">
        <ele>352.21899414062</ele>
        <time>2009-06-27T15:09:03Z</time>
      </trkpt>
      <trkpt lat="45.23132" lon="5.00907">
        <ele>352.85198974609</ele>
        <time>2009-06-27T15:09:05Z</time>
      </trkpt>
      <trkpt lat="45.2309" lon="5.00896">
        <ele>355.125</ele>
        <time>2009-06-27T15:09:14Z</time>
      </trkpt>
      <trkpt lat="45.23074" lon="5.00891">
        <ele>355.99700927734</ele>
        <time>2009-06-27T15:09:18Z</time>
      </trkpt>
      <trkpt lat="45.23066" lon="5.00888">
        <ele>356.53900146484</ele>
        <time>2009-06-27T15:09:20Z</time>
      </trkpt>
      <trkpt lat="45.23061" lon="5.00887">
        <ele>356.9700012207</ele>
        <time>2009-06-27T15:09:21Z</time>
      </trkpt>
      <trkpt lat="45.23045" lon="5.00882">
        <ele>357.6369934082</ele>
        <time>2009-06-27T15:09:25Z</time>
      </trkpt>
      <trkpt lat="45.23013" lon="5.00874">
        <ele>359.88198852539</ele>
        <time>2009-06-27T15:09:33Z</time>
      </trkpt>
      <trkpt lat="45.22975" lon="5.00862">
        <ele>362.1669921875</ele>
        <time>2009-06-27T15:09:43Z</time>
      </trkpt>
      <trkpt lat="45.22926" lon="5.00858">
        <ele>366.50698852539</ele>
        <time>2009-06-27T15:09:56Z</time>
      </trkpt>
      <trkpt lat="45.22922" lon="5.0086">
        <ele>366.60998535156</ele>
        <time>2009-06-27T15:09:57Z</time>
      </trkpt>
      <trkpt lat="45.22892" lon="5.00869">
        <ele>366.99301147461</ele>
        <time>2009-06-27T15:10:04Z</time>
      </trkpt>
      <trkpt lat="45.22883" lon="5.00871">
        <ele>367.25399780273</ele>
        <time>2009-06-27T15:10:06Z</time>
      </trkpt>
      <trkpt lat="45.22852" lon="5.00884">
        <ele>366.94799804688</ele>
        <time>2009-06-27T15:10:13Z</time>
      </trkpt>
      <trkpt lat="45.22834" lon="5.00918">
        <ele>366.36700439453</ele>
        <time>2009-06-27T15:10:19Z</time>
      </trkpt>
      <trkpt lat="45.22829" lon="5.00975">
        <ele>365.09100341797</ele>
        <time>2009-06-27T15:10:25Z</time>
      </trkpt>
      <trkpt lat="45.22827" lon="5.01004">
        <ele>364.75201416016</ele>
        <time>2009-06-27T15:10:28Z</time>
      </trkpt>
      <trkpt lat="45.22827" lon="5.01014">
        <ele>364.51300048828</ele>
        <time>2009-06-27T15:10:29Z</time>
      </trkpt>
      <trkpt lat="45.22824" lon="5.01054">
        <ele>364.81698608398</ele>
        <time>2009-06-27T15:10:33Z</time>
      </trkpt>
      <trkpt lat="45.22822" lon="5.01072">
        <ele>365.20098876953</ele>
        <time>2009-06-27T15:10:35Z</time>
      </trkpt>
      <trkpt lat="45.22814" lon="5.0119">
        <ele>367.93899536133</ele>
        <time>2009-06-27T15:10:49Z</time>
      </trkpt>
      <trkpt lat="45.22811" lon="5.01251">
        <ele>369.91900634766</ele>
        <time>2009-06-27T15:10:58Z</time>
      </trkpt>
      <trkpt lat="45.22801" lon="5.01299">
        <ele>372.13900756836</ele>
        <time>2009-06-27T15:11:06Z</time>
      </trkpt>
      <trkpt lat="45.22791" lon="5.01329">
        <ele>374.25799560547</ele>
        <time>2009-06-27T15:11:12Z</time>
      </trkpt>
      <trkpt lat="45.22762" lon="5.01411">
        <ele>379.19400024414</ele>
        <time>2009-06-27T15:11:29Z</time>
      </trkpt>
      <trkpt lat="45.22739" lon="5.01468">
        <ele>381.88299560547</ele>
        <time>2009-06-27T15:11:41Z</time>
      </trkpt>
      <trkpt lat="45.22717" lon="5.01518">
        <ele>384.61499023438</ele>
        <time>2009-06-27T15:11:48Z</time>
      </trkpt>
      <trkpt lat="45.2269" lon="5.01572">
        <ele>387.0710144043</ele>
        <time>2009-06-27T15:11:56Z</time>
      </trkpt>
      <trkpt lat="45.22686" lon="5.01578">
        <ele>387.21798706055</ele>
        <time>2009-06-27T15:11:57Z</time>
      </trkpt>
      <trkpt lat="45.22665" lon="5.01618">
        <ele>389.21099853516</ele>
        <time>2009-06-27T15:12:03Z</time>
      </trkpt>
      <trkpt lat="45.22628" lon="5.01677">
        <ele>391.1969909668</ele>
        <time>2009-06-27T15:12:13Z</time>
      </trkpt>
      <trkpt lat="45.22615" lon="5.01691">
        <ele>391.7380065918</ele>
        <time>2009-06-27T15:12:16Z</time>
      </trkpt>
      <trkpt lat="45.22592" lon="5.017">
        <ele>393.42300415039</ele>
        <time>2009-06-27T15:12:22Z</time>
      </trkpt>
      <trkpt lat="45.22554" lon="5.01695">
        <ele>393.58200073242</ele>
        <time>2009-06-27T15:12:35Z</time>
      </trkpt>
      <trkpt lat="45.22527" lon="5.01707">
        <ele>392.73400878906</ele>
        <time>2009-06-27T15:12:44Z</time>
      </trkpt>
      <trkpt lat="45.22508" lon="5.01722">
        <ele>391.93399047852</ele>
        <time>2009-06-27T15:12:50Z</time>
      </trkpt>
      <trkpt lat="45.22498" lon="5.01732">
        <ele>391.24499511719</ele>
        <time>2009-06-27T15:12:54Z</time>
      </trkpt>
      <trkpt lat="45.22496" lon="5.01735">
        <ele>391.11801147461</ele>
        <time>2009-06-27T15:12:55Z</time>
      </trkpt>
      <trkpt lat="45.22478" lon="5.01763">
        <ele>389.7080078125</ele>
        <time>2009-06-27T15:13:04Z</time>
      </trkpt>
      <trkpt lat="45.22465" lon="5.01785">
        <ele>388.58099365234</ele>
        <time>2009-06-27T15:13:08Z</time>
      </trkpt>
      <trkpt lat="45.22451" lon="5.01799">
        <ele>387.39401245117</ele>
        <time>2009-06-27T15:13:11Z</time>
      </trkpt>
      <trkpt lat="45.22393" lon="5.01821">
        <ele>385.75601196289</ele>
        <time>2009-06-27T15:13:20Z</time>
      </trkpt>
      <trkpt lat="45.22348" lon="5.01809">
        <ele>383.81799316406</ele>
        <time>2009-06-27T15:13:26Z</time>
      </trkpt>
      <trkpt lat="45.2234" lon="5.01808">
        <ele>383.18899536133</ele>
        <time>2009-06-27T15:13:27Z</time>
      </trkpt>
      <trkpt lat="45.22282" lon="5.01832">
        <ele>381.36999511719</ele>
        <time>2009-06-27T15:13:34Z</time>
      </trkpt>
      <trkpt lat="45.22265" lon="5.01843">
        <ele>380.38000488281</ele>
        <time>2009-06-27T15:13:36Z</time>
      </trkpt>
      <trkpt lat="45.22226" lon="5.01831">
        <ele>377.66000366211</ele>
        <time>2009-06-27T15:13:40Z</time>
      </trkpt>
      <trkpt lat="45.22198" lon="5.01812">
        <ele>376.39498901367</ele>
        <time>2009-06-27T15:13:43Z</time>
      </trkpt>
      <trkpt lat="45.2218" lon="5.0182">
        <ele>375.85598754883</ele>
        <time>2009-06-27T15:13:45Z</time>
      </trkpt>
      <trkpt lat="45.22126" lon="5.01857">
        <ele>373.92498779297</ele>
        <time>2009-06-27T15:13:51Z</time>
      </trkpt>
      <trkpt lat="45.22095" lon="5.01937">
        <ele>372.12899780273</ele>
        <time>2009-06-27T15:13:58Z</time>
      </trkpt>
      <trkpt lat="45.22071" lon="5.02006">
        <ele>369.76998901367</ele>
        <time>2009-06-27T15:14:04Z</time>
      </trkpt>
      <trkpt lat="45.22046" lon="5.02075">
        <ele>366.38198852539</ele>
        <time>2009-06-27T15:14:10Z</time>
      </trkpt>
      <trkpt lat="45.22021" lon="5.0211">
        <ele>364.25100708008</ele>
        <time>2009-06-27T15:14:14Z</time>
      </trkpt>
      <trkpt lat="45.21983" lon="5.02125">
        <ele>363.05099487305</ele>
        <time>2009-06-27T15:14:18Z</time>
      </trkpt>
      <trkpt lat="45.21929" lon="5.02104">
        <ele>360.83599853516</ele>
        <time>2009-06-27T15:14:24Z</time>
      </trkpt>
      <trkpt lat="45.21921" lon="5.02081">
        <ele>361.15301513672</ele>
        <time>2009-06-27T15:14:26Z</time>
      </trkpt>
      <trkpt lat="45.21913" lon="5.02049">
        <ele>360.86499023438</ele>
        <time>2009-06-27T15:14:29Z</time>
      </trkpt>
      <trkpt lat="45.21899" lon="5.0199">
        <ele>361.37799072266</ele>
        <time>2009-06-27T15:14:36Z</time>
      </trkpt>
      <trkpt lat="45.21886" lon="5.01937">
        <ele>361.85501098633</ele>
        <time>2009-06-27T15:14:43Z</time>
      </trkpt>
      <trkpt lat="45.21847" lon="5.01906">
        <ele>361.23901367188</ele>
        <time>2009-06-27T15:14:51Z</time>
      </trkpt>
      <trkpt lat="45.21761" lon="5.01958">
        <ele>357.55801391602</ele>
        <time>2009-06-27T15:15:04Z</time>
      </trkpt>
      <trkpt lat="45.21698" lon="5.02009">
        <ele>353.91500854492</ele>
        <time>2009-06-27T15:15:12Z</time>
      </trkpt>
      <trkpt lat="45.21624" lon="5.02064">
        <ele>353.11599731445</ele>
        <time>2009-06-27T15:15:21Z</time>
      </trkpt>
      <trkpt lat="45.21596" lon="5.02123">
        <ele>353.00698852539</ele>
        <time>2009-06-27T15:15:27Z</time>
      </trkpt>
      <trkpt lat="45.21554" lon="5.02151">
        <ele>354.70300292969</ele>
        <time>2009-06-27T15:15:34Z</time>
      </trkpt>
      <trkpt lat="45.215" lon="5.02161">
        <ele>355.98699951172</ele>
        <time>2009-06-27T15:15:45Z</time>
      </trkpt>
      <trkpt lat="45.21453" lon="5.02178">
        <ele>357.16000366211</ele>
        <time>2009-06-27T15:15:56Z</time>
      </trkpt>
      <trkpt lat="45.21416" lon="5.02192">
        <ele>358.56298828125</ele>
        <time>2009-06-27T15:16:05Z</time>
      </trkpt>
      <trkpt lat="45.214" lon="5.02199">
        <ele>358.98098754883</ele>
        <time>2009-06-27T15:16:09Z</time>
      </trkpt>
      <trkpt lat="45.21364" lon="5.02223">
        <ele>360.00500488281</ele>
        <time>2009-06-27T15:16:18Z</time>
      </trkpt>
      <trkpt lat="45.21351" lon="5.02229">
        <ele>359.99099731445</ele>
        <time>2009-06-27T15:16:21Z</time>
      </trkpt>
      <trkpt lat="45.21341" lon="5.0223">
        <ele>360.5539855957</ele>
        <time>2009-06-27T15:16:23Z</time>
      </trkpt>
      <trkpt lat="45.21327" lon="5.02229">
        <ele>361.00500488281</ele>
        <time>2009-06-27T15:16:26Z</time>
      </trkpt>
      <trkpt lat="45.21297" lon="5.02214">
        <ele>362.59899902344</ele>
        <time>2009-06-27T15:16:33Z</time>
      </trkpt>
      <trkpt lat="45.21277" lon="5.02201">
        <ele>363.20700073242</ele>
        <time>2009-06-27T15:16:38Z</time>
      </trkpt>
      <trkpt lat="45.21265" lon="5.02191">
        <ele>364.18301391602</ele>
        <time>2009-06-27T15:16:41Z</time>
      </trkpt>
      <trkpt lat="45.2124" lon="5.02166">
        <ele>364.73199462891</ele>
        <time>2009-06-27T15:16:48Z</time>
      </trkpt>
      <trkpt lat="45.21227" lon="5.02158">
        <ele>365.44198608398</ele>
        <time>2009-06-27T15:16:51Z</time>
      </trkpt>
      <trkpt lat="45.21186" lon="5.02151">
        <ele>366.26901245117</ele>
        <time>2009-06-27T15:17:00Z</time>
      </trkpt>
      <trkpt lat="45.21158" lon="5.02119">
        <ele>367.39599609375</ele>
        <time>2009-06-27T15:17:08Z</time>
      </trkpt>
      <trkpt lat="45.21158" lon="5.02105">
        <ele>367.46701049805</ele>
        <time>2009-06-27T15:17:10Z</time>
      </trkpt>
      <trkpt lat="45.21167" lon="5.01993">
        <ele>371.19000244141</ele>
        <time>2009-06-27T15:17:28Z</time>
      </trkpt>
      <trkpt lat="45.21169" lon="5.01905">
        <ele>373.25100708008</ele>
        <time>2009-06-27T15:17:44Z</time>
      </trkpt>
      <trkpt lat="45.21169" lon="5.0185">
        <ele>375.4880065918</ele>
        <time>2009-06-27T15:17:54Z</time>
      </trkpt>
      <trkpt lat="45.21164" lon="5.01831">
        <ele>374.82299804688</ele>
        <time>2009-06-27T15:17:57Z</time>
      </trkpt>
      <trkpt lat="45.21147" lon="5.018">
        <ele>373.69799804688</ele>
        <time>2009-06-27T15:18:02Z</time>
      </trkpt>
      <trkpt lat="45.21085" lon="5.01783">
        <ele>372.70001220703</ele>
        <time>2009-06-27T15:18:12Z</time>
      </trkpt>
      <trkpt lat="45.21063" lon="5.0178">
        <ele>373.07699584961</ele>
        <time>2009-06-27T15:18:15Z</time>
      </trkpt>
      <trkpt lat="45.21034" lon="5.0177">
        <ele>372.00500488281</ele>
        <time>2009-06-27T15:18:19Z</time>
      </trkpt>
      <trkpt lat="45.20996" lon="5.01709">
        <ele>372.43499755859</ele>
        <time>2009-06-27T15:18:27Z</time>
      </trkpt>
      <trkpt lat="45.20996" lon="5.01699">
        <ele>371.70498657227</ele>
        <time>2009-06-27T15:18:28Z</time>
      </trkpt>
      <trkpt lat="45.20993" lon="5.0166">
        <ele>370.79598999023</ele>
        <time>2009-06-27T15:18:32Z</time>
      </trkpt>
      <trkpt lat="45.20969" lon="5.01573">
        <ele>370.30599975586</ele>
        <time>2009-06-27T15:18:41Z</time>
      </trkpt>
      <trkpt lat="45.20957" lon="5.01547">
        <ele>370.1669921875</ele>
        <time>2009-06-27T15:18:44Z</time>
      </trkpt>
      <trkpt lat="45.20917" lon="5.01517">
        <ele>370.54699707031</ele>
        <time>2009-06-27T15:18:50Z</time>
      </trkpt>
      <trkpt lat="45.20831" lon="5.01472">
        <ele>372.11898803711</ele>
        <time>2009-06-27T15:19:03Z</time>
      </trkpt>
      <trkpt lat="45.20774" lon="5.01429">
        <ele>372.40200805664</ele>
        <time>2009-06-27T15:19:12Z</time>
      </trkpt>
      <trkpt lat="45.2075" lon="5.01403">
        <ele>373.77499389648</ele>
        <time>2009-06-27T15:19:16Z</time>
      </trkpt>
      <trkpt lat="45.20694" lon="5.01366">
        <ele>375.60198974609</ele>
        <time>2009-06-27T15:19:25Z</time>
      </trkpt>
      <trkpt lat="45.20647" lon="5.0129">
        <ele>378.51000976562</ele>
        <time>2009-06-27T15:19:37Z</time>
      </trkpt>
      <trkpt lat="45.20605" lon="5.0123">
        <ele>378.63400268555</ele>
        <time>2009-06-27T15:19:47Z</time>
      </trkpt>
      <trkpt lat="45.20575" lon="5.01211">
        <ele>378.25201416016</ele>
        <time>2009-06-27T15:19:52Z</time>
      </trkpt>
      <trkpt lat="45.20517" lon="5.01185">
        <ele>377.32998657227</ele>
        <time>2009-06-27T15:20:01Z</time>
      </trkpt>
      <trkpt lat="45.20476" lon="5.01179">
        <ele>376.80499267578</ele>
        <time>2009-06-27T15:20:07Z</time>
      </trkpt>
      <trkpt lat="45.20459" lon="5.01181">
        <ele>377.1780090332</ele>
        <time>2009-06-27T15:20:10Z</time>
      </trkpt>
      <trkpt lat="45.20448" lon="5.01179">
        <ele>376.80801391602</ele>
        <time>2009-06-27T15:20:12Z</time>
      </trkpt>
      <trkpt lat="45.20432" lon="5.01148">
        <ele>377.85101318359</ele>
        <time>2009-06-27T15:20:18Z</time>
      </trkpt>
      <trkpt lat="45.20442" lon="5.01105">
        <ele>378.95098876953</ele>
        <time>2009-06-27T15:20:25Z</time>
      </trkpt>
      <trkpt lat="45.20429" lon="5.01076">
        <ele>380.31399536133</ele>
        <time>2009-06-27T15:20:31Z</time>
      </trkpt>
      <trkpt lat="45.20396" lon="5.01091">
        <ele>380.88500976562</ele>
        <time>2009-06-27T15:20:38Z</time>
      </trkpt>
      <trkpt lat="45.20379" lon="5.0111">
        <ele>380.1369934082</ele>
        <time>2009-06-27T15:20:42Z</time>
      </trkpt>
      <trkpt lat="45.20365" lon="5.01124">
        <ele>379.81298828125</ele>
        <time>2009-06-27T15:20:45Z</time>
      </trkpt>
      <trkpt lat="45.20308" lon="5.0115">
        <ele>378.98599243164</ele>
        <time>2009-06-27T15:20:55Z</time>
      </trkpt>
      <trkpt lat="45.20282" lon="5.01124">
        <ele>378.91101074219</ele>
        <time>2009-06-27T15:21:02Z</time>
      </trkpt>
      <trkpt lat="45.20288" lon="5.01113">
        <ele>379.98098754883</ele>
        <time>2009-06-27T15:21:04Z</time>
      </trkpt>
      <trkpt lat="45.20308" lon="5.01094">
        <ele>380.79098510742</ele>
        <time>2009-06-27T15:21:09Z</time>
      </trkpt>
      <trkpt lat="45.20316" lon="5.01086">
        <ele>381.28601074219</ele>
        <time>2009-06-27T15:21:11Z</time>
      </trkpt>
      <trkpt lat="45.20326" lon="5.01072">
        <ele>382.65701293945</ele>
        <time>2009-06-27T15:21:14Z</time>
      </trkpt>
      <trkpt lat="45.2033" lon="5.01017">
        <ele>385.19900512695</ele>
        <time>2009-06-27T15:21:23Z</time>
      </trkpt>
      <trkpt lat="45.20326" lon="5.01007">
        <ele>385.4580078125</ele>
        <time>2009-06-27T15:21:25Z</time>
      </trkpt>
      <trkpt lat="45.20295" lon="5.00968">
        <ele>388.15399169922</ele>
        <time>2009-06-27T15:21:35Z</time>
      </trkpt>
      <trkpt lat="45.20285" lon="5.00956">
        <ele>388.43099975586</ele>
        <time>2009-06-27T15:21:38Z</time>
      </trkpt>
      <trkpt lat="45.20277" lon="5.00947">
        <ele>388.23098754883</ele>
        <time>2009-06-27T15:21:40Z</time>
      </trkpt>
      <trkpt lat="45.20258" lon="5.00936">
        <ele>387.61499023438</ele>
        <time>2009-06-27T15:21:44Z</time>
      </trkpt>
      <trkpt lat="45.20181" lon="5.00912">
        <ele>382.84799194336</ele>
        <time>2009-06-27T15:21:55Z</time>
      </trkpt>
      <trkpt lat="45.20165" lon="5.00904">
        <ele>381.83700561523</ele>
        <time>2009-06-27T15:21:57Z</time>
      </trkpt>
      <trkpt lat="45.20128" lon="5.00885">
        <ele>379.17498779297</ele>
        <time>2009-06-27T15:22:02Z</time>
      </trkpt>
      <trkpt lat="45.201" lon="5.00871">
        <ele>377.11700439453</ele>
        <time>2009-06-27T15:22:06Z</time>
      </trkpt>
      <trkpt lat="45.20037" lon="5.00833">
        <ele>374</ele>
        <time>2009-06-27T15:22:14Z</time>
      </trkpt>
      <trkpt lat="45.19978" lon="5.00779">
        <ele>375.59600830078</ele>
        <time>2009-06-27T15:22:23Z</time>
      </trkpt>
      <trkpt lat="45.19881" lon="5.00729">
        <ele>377.07901000977</ele>
        <time>2009-06-27T15:22:37Z</time>
      </trkpt>
      <trkpt lat="45.19841" lon="5.007">
        <ele>378.99398803711</ele>
        <time>2009-06-27T15:22:44Z</time>
      </trkpt>
      <trkpt lat="45.19824" lon="5.00691">
        <ele>379.17300415039</ele>
        <time>2009-06-27T15:22:47Z</time>
      </trkpt>
      <trkpt lat="45.19795" lon="5.00689">
        <ele>379.42098999023</ele>
        <time>2009-06-27T15:22:52Z</time>
      </trkpt>
      <trkpt lat="45.19706" lon="5.00744">
        <ele>378.17199707031</ele>
        <time>2009-06-27T15:23:07Z</time>
      </trkpt>
      <trkpt lat="45.19644" lon="5.00828">
        <ele>378.3030090332</ele>
        <time>2009-06-27T15:23:20Z</time>
      </trkpt>
      <trkpt lat="45.19556" lon="5.00889">
        <ele>375.82901000977</ele>
        <time>2009-06-27T15:23:33Z</time>
      </trkpt>
      <trkpt lat="45.19504" lon="5.00928">
        <ele>375.52700805664</ele>
        <time>2009-06-27T15:23:41Z</time>
      </trkpt>
      <trkpt lat="45.19471" lon="5.0096">
        <ele>375.78900146484</ele>
        <time>2009-06-27T15:23:47Z</time>
      </trkpt>
      <trkpt lat="45.19437" lon="5.01009">
        <ele>376.62298583984</ele>
        <time>2009-06-27T15:23:55Z</time>
      </trkpt>
      <trkpt lat="45.1938" lon="5.01047">
        <ele>377.31500244141</ele>
        <time>2009-06-27T15:24:05Z</time>
      </trkpt>
      <trkpt lat="45.19342" lon="5.01079">
        <ele>377.84399414062</ele>
        <time>2009-06-27T15:24:12Z</time>
      </trkpt>
      <trkpt lat="45.19304" lon="5.01124">
        <ele>379.24700927734</ele>
        <time>2009-06-27T15:24:20Z</time>
      </trkpt>
      <trkpt lat="45.19266" lon="5.0117">
        <ele>381.24099731445</ele>
        <time>2009-06-27T15:24:28Z</time>
      </trkpt>
      <trkpt lat="45.19251" lon="5.01195">
        <ele>382.46301269531</ele>
        <time>2009-06-27T15:24:32Z</time>
      </trkpt>
      <trkpt lat="45.19244" lon="5.01216">
        <ele>383.09799194336</ele>
        <time>2009-06-27T15:24:35Z</time>
      </trkpt>
      <trkpt lat="45.19232" lon="5.01263">
        <ele>382.48300170898</ele>
        <time>2009-06-27T15:24:41Z</time>
      </trkpt>
      <trkpt lat="45.19213" lon="5.01295">
        <ele>379.79800415039</ele>
        <time>2009-06-27T15:24:46Z</time>
      </trkpt>
      <trkpt lat="45.19204" lon="5.01334">
        <ele>376.72399902344</ele>
        <time>2009-06-27T15:24:52Z</time>
      </trkpt>
      <trkpt lat="45.1922" lon="5.01368">
        <ele>374.71600341797</ele>
        <time>2009-06-27T15:24:57Z</time>
      </trkpt>
      <trkpt lat="45.19226" lon="5.0137">
        <ele>374.79998779297</ele>
        <time>2009-06-27T15:24:58Z</time>
      </trkpt>
      <trkpt lat="45.19262" lon="5.01397">
        <ele>372.46200561523</ele>
        <time>2009-06-27T15:25:04Z</time>
      </trkpt>
      <trkpt lat="45.19279" lon="5.01438">
        <ele>371.86499023438</ele>
        <time>2009-06-27T15:25:09Z</time>
      </trkpt>
      <trkpt lat="45.19285" lon="5.01454">
        <ele>372.10699462891</ele>
        <time>2009-06-27T15:25:11Z</time>
      </trkpt>
      <trkpt lat="45.19278" lon="5.01518">
        <ele>373.47900390625</ele>
        <time>2009-06-27T15:25:18Z</time>
      </trkpt>
      <trkpt lat="45.19263" lon="5.01529">
        <ele>374.51501464844</ele>
        <time>2009-06-27T15:25:21Z</time>
      </trkpt>
      <trkpt lat="45.19189" lon="5.01562">
        <ele>374.31900024414</ele>
        <time>2009-06-27T15:25:34Z</time>
      </trkpt>
      <trkpt lat="45.19183" lon="5.01566">
        <ele>374.52801513672</ele>
        <time>2009-06-27T15:25:35Z</time>
      </trkpt>
      <trkpt lat="45.19155" lon="5.01619">
        <ele>373.7919921875</ele>
        <time>2009-06-27T15:25:42Z</time>
      </trkpt>
      <trkpt lat="45.19142" lon="5.01697">
        <ele>372.03201293945</ele>
        <time>2009-06-27T15:25:50Z</time>
      </trkpt>
      <trkpt lat="45.19124" lon="5.01767">
        <ele>370.01300048828</ele>
        <time>2009-06-27T15:25:57Z</time>
      </trkpt>
      <trkpt lat="45.19101" lon="5.01802">
        <ele>367.82400512695</ele>
        <time>2009-06-27T15:26:01Z</time>
      </trkpt>
      <trkpt lat="45.19069" lon="5.01843">
        <ele>366.52600097656</ele>
        <time>2009-06-27T15:26:06Z</time>
      </trkpt>
      <trkpt lat="45.19028" lon="5.01897">
        <ele>366.48498535156</ele>
        <time>2009-06-27T15:26:13Z</time>
      </trkpt>
      <trkpt lat="45.19003" lon="5.01915">
        <ele>368.20999145508</ele>
        <time>2009-06-27T15:26:17Z</time>
      </trkpt>
      <trkpt lat="45.18996" lon="5.01916">
        <ele>368.4289855957</ele>
        <time>2009-06-27T15:26:18Z</time>
      </trkpt>
      <trkpt lat="45.18984" lon="5.01916">
        <ele>368.76000976562</ele>
        <time>2009-06-27T15:26:20Z</time>
      </trkpt>
      <trkpt lat="45.18949" lon="5.01913">
        <ele>370.91900634766</ele>
        <time>2009-06-27T15:26:26Z</time>
      </trkpt>
      <trkpt lat="45.18937" lon="5.01911">
        <ele>371.43798828125</ele>
        <time>2009-06-27T15:26:28Z</time>
      </trkpt>
      <trkpt lat="45.18895" lon="5.01907">
        <ele>371.10699462891</ele>
        <time>2009-06-27T15:26:35Z</time>
      </trkpt>
      <trkpt lat="45.18806" lon="5.0187">
        <ele>368.28500366211</ele>
        <time>2009-06-27T15:26:48Z</time>
      </trkpt>
      <trkpt lat="45.18702" lon="5.01781">
        <ele>363.61599731445</ele>
        <time>2009-06-27T15:27:01Z</time>
      </trkpt>
      <trkpt lat="45.18673" lon="5.01763">
        <ele>361.31600952148</ele>
        <time>2009-06-27T15:27:04Z</time>
      </trkpt>
      <trkpt lat="45.18652" lon="5.01754">
        <ele>360.36801147461</ele>
        <time>2009-06-27T15:27:06Z</time>
      </trkpt>
      <trkpt lat="45.18597" lon="5.0173">
        <ele>358.27200317383</ele>
        <time>2009-06-27T15:27:11Z</time>
      </trkpt>
      <trkpt lat="45.18575" lon="5.0172">
        <ele>356.39099121094</ele>
        <time>2009-06-27T15:27:13Z</time>
      </trkpt>
      <trkpt lat="45.18553" lon="5.01717">
        <ele>355.57901000977</ele>
        <time>2009-06-27T15:27:15Z</time>
      </trkpt>
      <trkpt lat="45.18523" lon="5.01734">
        <ele>352.92001342773</ele>
        <time>2009-06-27T15:27:18Z</time>
      </trkpt>
      <trkpt lat="45.18416" lon="5.01808">
        <ele>350.72299194336</ele>
        <time>2009-06-27T15:27:29Z</time>
      </trkpt>
      <trkpt lat="45.18328" lon="5.01806">
        <ele>351.10000610352</ele>
        <time>2009-06-27T15:27:38Z</time>
      </trkpt>
      <trkpt lat="45.18293" lon="5.01808">
        <ele>350.97500610352</ele>
        <time>2009-06-27T15:27:42Z</time>
      </trkpt>
      <trkpt lat="45.18171" lon="5.01814">
        <ele>350.85998535156</ele>
        <time>2009-06-27T15:27:58Z</time>
      </trkpt>
      <trkpt lat="45.18081" lon="5.01804">
        <ele>351.60598754883</ele>
        <time>2009-06-27T15:28:12Z</time>
      </trkpt>
      <trkpt lat="45.18035" lon="5.018">
        <ele>351.01901245117</ele>
        <time>2009-06-27T15:28:19Z</time>
      </trkpt>
      <trkpt lat="45.18007" lon="5.01814">
        <ele>350.4460144043</ele>
        <time>2009-06-27T15:28:23Z</time>
      </trkpt>
      <trkpt lat="45.17936" lon="5.01887">
        <ele>349.82998657227</ele>
        <time>2009-06-27T15:28:34Z</time>
      </trkpt>
      <trkpt lat="45.1792" lon="5.0195">
        <ele>350.23999023438</ele>
        <time>2009-06-27T15:28:41Z</time>
      </trkpt>
      <trkpt lat="45.17922" lon="5.01998">
        <ele>351.82299804688</ele>
        <time>2009-06-27T15:28:47Z</time>
      </trkpt>
      <trkpt lat="45.1791" lon="5.02036">
        <ele>355.02301025391</ele>
        <time>2009-06-27T15:28:53Z</time>
      </trkpt>
      <trkpt lat="45.17878" lon="5.02052">
        <ele>357.31100463867</ele>
        <time>2009-06-27T15:29:00Z</time>
      </trkpt>
      <trkpt lat="45.17833" lon="5.02042">
        <ele>358.97500610352</ele>
        <time>2009-06-27T15:29:09Z</time>
      </trkpt>
      <trkpt lat="45.17778" lon="5.02031">
        <ele>361.68399047852</ele>
        <time>2009-06-27T15:29:20Z</time>
      </trkpt>
      <trkpt lat="45.17729" lon="5.02017">
        <ele>362.91900634766</ele>
        <time>2009-06-27T15:29:30Z</time>
      </trkpt>
      <trkpt lat="45.1767" lon="5.01995">
        <ele>363.77398681641</ele>
        <time>2009-06-27T15:29:44Z</time>
      </trkpt>
      <trkpt lat="45.17629" lon="5.01978">
        <ele>367.24200439453</ele>
        <time>2009-06-27T15:29:56Z</time>
      </trkpt>
      <trkpt lat="45.17593" lon="5.01981">
        <ele>370.69000244141</ele>
        <time>2009-06-27T15:30:06Z</time>
      </trkpt>
      <trkpt lat="45.1758" lon="5.01984">
        <ele>372.69299316406</ele>
        <time>2009-06-27T15:30:11Z</time>
      </trkpt>
      <trkpt lat="45.17556" lon="5.01995">
        <ele>373.95199584961</ele>
        <time>2009-06-27T15:30:19Z</time>
      </trkpt>
      <trkpt lat="45.17534" lon="5.02006">
        <ele>373.66000366211</ele>
        <time>2009-06-27T15:30:25Z</time>
      </trkpt>
      <trkpt lat="45.17519" lon="5.02029">
        <ele>373.9280090332</ele>
        <time>2009-06-27T15:30:30Z</time>
      </trkpt>
      <trkpt lat="45.17513" lon="5.02047">
        <ele>374.24600219727</ele>
        <time>2009-06-27T15:30:33Z</time>
      </trkpt>
      <trkpt lat="45.17492" lon="5.02074">
        <ele>376.14001464844</ele>
        <time>2009-06-27T15:30:40Z</time>
      </trkpt>
      <trkpt lat="45.17469" lon="5.02075">
        <ele>377.66900634766</ele>
        <time>2009-06-27T15:30:45Z</time>
      </trkpt>
      <trkpt lat="45.17446" lon="5.0207">
        <ele>379.74899291992</ele>
        <time>2009-06-27T15:30:50Z</time>
      </trkpt>
      <trkpt lat="45.17422" lon="5.02069">
        <ele>382.35800170898</ele>
        <time>2009-06-27T15:30:56Z</time>
      </trkpt>
      <trkpt lat="45.17355" lon="5.02074">
        <ele>382.70300292969</ele>
        <time>2009-06-27T15:31:10Z</time>
      </trkpt>
      <trkpt lat="45.1734" lon="5.02074">
        <ele>382.79901123047</ele>
        <time>2009-06-27T15:31:13Z</time>
      </trkpt>
      <trkpt lat="45.17302" lon="5.02064">
        <ele>382.30200195312</ele>
        <time>2009-06-27T15:31:20Z</time>
      </trkpt>
      <trkpt lat="45.17263" lon="5.02066">
        <ele>382.66000366211</ele>
        <time>2009-06-27T15:31:27Z</time>
      </trkpt>
      <trkpt lat="45.17248" lon="5.02065">
        <ele>383.42300415039</ele>
        <time>2009-06-27T15:31:30Z</time>
      </trkpt>
      <trkpt lat="45.17232" lon="5.02055">
        <ele>383.94500732422</ele>
        <time>2009-06-27T15:31:34Z</time>
      </trkpt>
      <trkpt lat="45.1722" lon="5.02042">
        <ele>383.4880065918</ele>
        <time>2009-06-27T15:31:37Z</time>
      </trkpt>
      <trkpt lat="45.17207" lon="5.02031">
        <ele>382.78298950195</ele>
        <time>2009-06-27T15:31:40Z</time>
      </trkpt>
      <trkpt lat="45.17188" lon="5.02026">
        <ele>381.09698486328</ele>
        <time>2009-06-27T15:31:43Z</time>
      </trkpt>
      <trkpt lat="45.17179" lon="5.02027">
        <ele>380.47198486328</ele>
        <time>2009-06-27T15:31:44Z</time>
      </trkpt>
      <trkpt lat="45.17154" lon="5.02031">
        <ele>379.19100952148</ele>
        <time>2009-06-27T15:31:47Z</time>
      </trkpt>
      <trkpt lat="45.17139" lon="5.02036">
        <ele>378.1549987793</ele>
        <time>2009-06-27T15:31:49Z</time>
      </trkpt>
      <trkpt lat="45.17088" lon="5.02035">
        <ele>375.30999755859</ele>
        <time>2009-06-27T15:31:55Z</time>
      </trkpt>
      <trkpt lat="45.17056" lon="5.02037">
        <ele>374.90899658203</ele>
        <time>2009-06-27T15:31:59Z</time>
      </trkpt>
      <trkpt lat="45.1696" lon="5.0205">
        <ele>375.26098632812</ele>
        <time>2009-06-27T15:32:14Z</time>
      </trkpt>
      <trkpt lat="45.1688" lon="5.02065">
        <ele>375.13598632812</ele>
        <time>2009-06-27T15:32:30Z</time>
      </trkpt>
      <trkpt lat="45.16859" lon="5.0207">
        <ele>375.59298706055</ele>
        <time>2009-06-27T15:32:34Z</time>
      </trkpt>
      <trkpt lat="45.16843" lon="5.02074">
        <ele>375.73400878906</ele>
        <time>2009-06-27T15:32:37Z</time>
      </trkpt>
      <trkpt lat="45.16818" lon="5.02086">
        <ele>376.08898925781</ele>
        <time>2009-06-27T15:32:42Z</time>
      </trkpt>
      <trkpt lat="45.16784" lon="5.02101">
        <ele>377.01599121094</ele>
        <time>2009-06-27T15:32:50Z</time>
      </trkpt>
      <trkpt lat="45.16756" lon="5.02121">
        <ele>375.8219909668</ele>
        <time>2009-06-27T15:32:57Z</time>
      </trkpt>
      <trkpt lat="45.16734" lon="5.0214">
        <ele>373.98699951172</ele>
        <time>2009-06-27T15:33:02Z</time>
      </trkpt>
      <trkpt lat="45.1673" lon="5.02145">
        <ele>373.68600463867</ele>
        <time>2009-06-27T15:33:03Z</time>
      </trkpt>
      <trkpt lat="45.16716" lon="5.02156">
        <ele>371.97698974609</ele>
        <time>2009-06-27T15:33:06Z</time>
      </trkpt>
      <trkpt lat="45.167" lon="5.02166">
        <ele>370.35501098633</ele>
        <time>2009-06-27T15:33:09Z</time>
      </trkpt>
      <trkpt lat="45.16688" lon="5.02171">
        <ele>369.52301025391</ele>
        <time>2009-06-27T15:33:11Z</time>
      </trkpt>
      <trkpt lat="45.16672" lon="5.02182">
        <ele>368.12799072266</ele>
        <time>2009-06-27T15:33:14Z</time>
      </trkpt>
      <trkpt lat="45.16667" lon="5.02187">
        <ele>367.78201293945</ele>
        <time>2009-06-27T15:33:15Z</time>
      </trkpt>
      <trkpt lat="45.16661" lon="5.02192">
        <ele>366.9880065918</ele>
        <time>2009-06-27T15:33:16Z</time>
      </trkpt>
      <trkpt lat="45.16596" lon="5.02234">
        <ele>359.7619934082</ele>
        <time>2009-06-27T15:33:26Z</time>
      </trkpt>
      <trkpt lat="45.16565" lon="5.02257">
        <ele>356.80999755859</ele>
        <time>2009-06-27T15:33:31Z</time>
      </trkpt>
      <trkpt lat="45.16552" lon="5.023">
        <ele>354.80700683594</ele>
        <time>2009-06-27T15:33:37Z</time>
      </trkpt>
      <trkpt lat="45.16557" lon="5.02358">
        <ele>353.14498901367</ele>
        <time>2009-06-27T15:33:43Z</time>
      </trkpt>
      <trkpt lat="45.16558" lon="5.02435">
        <ele>348.37799072266</ele>
        <time>2009-06-27T15:33:51Z</time>
      </trkpt>
      <trkpt lat="45.16558" lon="5.02443">
        <ele>347.91500854492</ele>
        <time>2009-06-27T15:33:52Z</time>
      </trkpt>
      <trkpt lat="45.1655" lon="5.02468">
        <ele>345.64801025391</ele>
        <time>2009-06-27T15:33:56Z</time>
      </trkpt>
      <trkpt lat="45.1652" lon="5.02494">
        <ele>339.89700317383</ele>
        <time>2009-06-27T15:34:03Z</time>
      </trkpt>
      <trkpt lat="45.16492" lon="5.02498">
        <ele>336.35998535156</ele>
        <time>2009-06-27T15:34:07Z</time>
      </trkpt>
      <trkpt lat="45.16449" lon="5.02489">
        <ele>332.62701416016</ele>
        <time>2009-06-27T15:34:12Z</time>
      </trkpt>
      <trkpt lat="45.16405" lon="5.02484">
        <ele>329.40600585938</ele>
        <time>2009-06-27T15:34:17Z</time>
      </trkpt>
      <trkpt lat="45.16356" lon="5.02483">
        <ele>325.94900512695</ele>
        <time>2009-06-27T15:34:22Z</time>
      </trkpt>
      <trkpt lat="45.16324" lon="5.02484">
        <ele>324.22100830078</ele>
        <time>2009-06-27T15:34:25Z</time>
      </trkpt>
      <trkpt lat="45.1627" lon="5.02487">
        <ele>322.04400634766</ele>
        <time>2009-06-27T15:34:30Z</time>
      </trkpt>
      <trkpt lat="45.16238" lon="5.0249">
        <ele>320.9049987793</ele>
        <time>2009-06-27T15:34:33Z</time>
      </trkpt>
      <trkpt lat="45.1619" lon="5.02475">
        <ele>317.98901367188</ele>
        <time>2009-06-27T15:34:38Z</time>
      </trkpt>
      <trkpt lat="45.16166" lon="5.02464">
        <ele>315.59799194336</ele>
        <time>2009-06-27T15:34:41Z</time>
      </trkpt>
      <trkpt lat="45.16154" lon="5.02456">
        <ele>314.8630065918</ele>
        <time>2009-06-27T15:34:43Z</time>
      </trkpt>
      <trkpt lat="45.16143" lon="5.02437">
        <ele>312.14801025391</ele>
        <time>2009-06-27T15:34:46Z</time>
      </trkpt>
      <trkpt lat="45.16124" lon="5.02415">
        <ele>309.13800048828</ele>
        <time>2009-06-27T15:34:51Z</time>
      </trkpt>
      <trkpt lat="45.16114" lon="5.0241">
        <ele>307.95098876953</ele>
        <time>2009-06-27T15:34:53Z</time>
      </trkpt>
      <trkpt lat="45.16079" lon="5.02421">
        <ele>305.01998901367</ele>
        <time>2009-06-27T15:34:59Z</time>
      </trkpt>
      <trkpt lat="45.16067" lon="5.02431">
        <ele>303.81201171875</ele>
        <time>2009-06-27T15:35:01Z</time>
      </trkpt>
      <trkpt lat="45.16026" lon="5.0247">
        <ele>296.95999145508</ele>
        <time>2009-06-27T15:35:07Z</time>
      </trkpt>
      <trkpt lat="45.15995" lon="5.02486">
        <ele>293.38900756836</ele>
        <time>2009-06-27T15:35:11Z</time>
      </trkpt>
      <trkpt lat="45.15922" lon="5.02511">
        <ele>282.24301147461</ele>
        <time>2009-06-27T15:35:20Z</time>
      </trkpt>
      <trkpt lat="45.15911" lon="5.02516">
        <ele>280.12701416016</ele>
        <time>2009-06-27T15:35:22Z</time>
      </trkpt>
      <trkpt lat="45.15883" lon="5.02506">
        <ele>275.04400634766</ele>
        <time>2009-06-27T15:35:27Z</time>
      </trkpt>
      <trkpt lat="45.15865" lon="5.02481">
        <ele>271.66900634766</ele>
        <time>2009-06-27T15:35:31Z</time>
      </trkpt>
      <trkpt lat="45.15835" lon="5.02479">
        <ele>268.69000244141</ele>
        <time>2009-06-27T15:35:36Z</time>
      </trkpt>
      <trkpt lat="45.15797" lon="5.02513">
        <ele>266.74099731445</ele>
        <time>2009-06-27T15:35:42Z</time>
      </trkpt>
      <trkpt lat="45.15762" lon="5.02559">
        <ele>265.91198730469</ele>
        <time>2009-06-27T15:35:48Z</time>
      </trkpt>
      <trkpt lat="45.15696" lon="5.02694">
        <ele>262.26098632812</ele>
        <time>2009-06-27T15:36:04Z</time>
      </trkpt>
      <trkpt lat="45.15667" lon="5.02736">
        <ele>261.19198608398</ele>
        <time>2009-06-27T15:36:13Z</time>
      </trkpt>
      <trkpt lat="45.15667" lon="5.02736">
        <ele>261.04098510742</ele>
        <time>2009-06-27T15:36:14Z</time>
      </trkpt>
      <trkpt lat="45.15647" lon="5.02719">
        <ele>259.65301513672</ele>
        <time>2009-06-27T15:36:34Z</time>
      </trkpt>
      <trkpt lat="45.15602" lon="5.0267">
        <ele>259.25201416016</ele>
        <time>2009-06-27T15:36:48Z</time>
      </trkpt>
      <trkpt lat="45.15549" lon="5.02603">
        <ele>258.23999023438</ele>
        <time>2009-06-27T15:37:01Z</time>
      </trkpt>
      <trkpt lat="45.15501" lon="5.02536">
        <ele>257.78799438477</ele>
        <time>2009-06-27T15:37:12Z</time>
      </trkpt>
      <trkpt lat="45.15415" lon="5.02417">
        <ele>256.34600830078</ele>
        <time>2009-06-27T15:37:30Z</time>
      </trkpt>
      <trkpt lat="45.15327" lon="5.02323">
        <ele>255.375</ele>
        <time>2009-06-27T15:37:45Z</time>
      </trkpt>
      <trkpt lat="45.15268" lon="5.02225">
        <ele>255.85899353027</ele>
        <time>2009-06-27T15:37:58Z</time>
      </trkpt>
      <trkpt lat="45.15217" lon="5.02133">
        <ele>255.21200561523</ele>
        <time>2009-06-27T15:38:11Z</time>
      </trkpt>
      <trkpt lat="45.15192" lon="5.02093">
        <ele>255.59800720215</ele>
        <time>2009-06-27T15:38:17Z</time>
      </trkpt>
      <trkpt lat="45.15183" lon="5.02071">
        <ele>255.72200012207</ele>
        <time>2009-06-27T15:38:20Z</time>
      </trkpt>
      <trkpt lat="45.15169" lon="5.02053">
        <ele>255.4109954834</ele>
        <time>2009-06-27T15:38:24Z</time>
      </trkpt>
      <trkpt lat="45.15152" lon="5.0203">
        <ele>255.0299987793</ele>
        <time>2009-06-27T15:38:29Z</time>
      </trkpt>
      <trkpt lat="45.15091" lon="5.01946">
        <ele>254.53199768066</ele>
        <time>2009-06-27T15:38:43Z</time>
      </trkpt>
      <trkpt lat="45.15038" lon="5.01872">
        <ele>254.41600036621</ele>
        <time>2009-06-27T15:38:56Z</time>
      </trkpt>
      <trkpt lat="45.14974" lon="5.0178">
        <ele>253.58399963379</ele>
        <time>2009-06-27T15:39:12Z</time>
      </trkpt>
      <trkpt lat="45.14909" lon="5.01683">
        <ele>252.73199462891</ele>
        <time>2009-06-27T15:39:28Z</time>
      </trkpt>
      <trkpt lat="45.14887" lon="5.01654">
        <ele>253.12800598144</ele>
        <time>2009-06-27T15:39:33Z</time>
      </trkpt>
      <trkpt lat="45.14862" lon="5.01623">
        <ele>253.94900512695</ele>
        <time>2009-06-27T15:39:39Z</time>
      </trkpt>
      <trkpt lat="45.14821" lon="5.01578">
        <ele>255.20500183106</ele>
        <time>2009-06-27T15:39:49Z</time>
      </trkpt>
      <trkpt lat="45.14784" lon="5.01542">
        <ele>253.8450012207</ele>
        <time>2009-06-27T15:39:58Z</time>
      </trkpt>
      <trkpt lat="45.14775" lon="5.01536">
        <ele>253.01100158691</ele>
        <time>2009-06-27T15:40:00Z</time>
      </trkpt>
      <trkpt lat="45.1475" lon="5.0151">
        <ele>251.94700622559</ele>
        <time>2009-06-27T15:40:05Z</time>
      </trkpt>
      <trkpt lat="45.14697" lon="5.01396">
        <ele>248.47099304199</ele>
        <time>2009-06-27T15:40:17Z</time>
      </trkpt>
      <trkpt lat="45.14647" lon="5.01257">
        <ele>247.93899536133</ele>
        <time>2009-06-27T15:40:31Z</time>
      </trkpt>
      <trkpt lat="45.14642" lon="5.01249">
        <ele>247.59199523926</ele>
        <time>2009-06-27T15:40:32Z</time>
      </trkpt>
      <trkpt lat="45.14565" lon="5.01183">
        <ele>248.94000244141</ele>
        <time>2009-06-27T15:40:44Z</time>
      </trkpt>
      <trkpt lat="45.14455" lon="5.01089">
        <ele>248.69700622559</ele>
        <time>2009-06-27T15:41:00Z</time>
      </trkpt>
      <trkpt lat="45.14341" lon="5.00963">
        <ele>248.45500183106</ele>
        <time>2009-06-27T15:41:18Z</time>
      </trkpt>
      <trkpt lat="45.14237" lon="5.00884">
        <ele>247.74099731445</ele>
        <time>2009-06-27T15:41:32Z</time>
      </trkpt>
      <trkpt lat="45.14084" lon="5.00811">
        <ele>246.25799560547</ele>
        <time>2009-06-27T15:41:51Z</time>
      </trkpt>
      <trkpt lat="45.13897" lon="5.00717">
        <ele>244.72200012207</ele>
        <time>2009-06-27T15:42:14Z</time>
      </trkpt>
      <trkpt lat="45.13811" lon="5.00669">
        <ele>244.35800170898</ele>
        <time>2009-06-27T15:42:26Z</time>
      </trkpt>
      <trkpt lat="45.13766" lon="5.00634">
        <ele>243.71000671387</ele>
        <time>2009-06-27T15:42:33Z</time>
      </trkpt>
      <trkpt lat="45.13689" lon="5.00552">
        <ele>243.00300598144</ele>
        <time>2009-06-27T15:42:46Z</time>
      </trkpt>
      <trkpt lat="45.13601" lon="5.00474">
        <ele>242.47999572754</ele>
        <time>2009-06-27T15:42:59Z</time>
      </trkpt>
      <trkpt lat="45.13554" lon="5.00461">
        <ele>241.8809967041</ele>
        <time>2009-06-27T15:43:04Z</time>
      </trkpt>
      <trkpt lat="45.13505" lon="5.00445">
        <ele>241.31399536133</ele>
        <time>2009-06-27T15:43:09Z</time>
      </trkpt>
      <trkpt lat="45.13455" lon="5.00414">
        <ele>241.87199401856</ele>
        <time>2009-06-27T15:43:14Z</time>
      </trkpt>
      <trkpt lat="45.13404" lon="5.0038">
        <ele>241.01499938965</ele>
        <time>2009-06-27T15:43:19Z</time>
      </trkpt>
      <trkpt lat="45.13349" lon="5.00348">
        <ele>240.68899536133</ele>
        <time>2009-06-27T15:43:24Z</time>
      </trkpt>
      <trkpt lat="45.13312" lon="5.0034">
        <ele>239.11700439453</ele>
        <time>2009-06-27T15:43:27Z</time>
      </trkpt>
      <trkpt lat="45.13235" lon="5.00338">
        <ele>237.46299743652</ele>
        <time>2009-06-27T15:43:33Z</time>
      </trkpt>
      <trkpt lat="45.13197" lon="5.00341">
        <ele>236.48100280762</ele>
        <time>2009-06-27T15:43:36Z</time>
      </trkpt>
      <trkpt lat="45.13145" lon="5.00329">
        <ele>236.38999938965</ele>
        <time>2009-06-27T15:43:40Z</time>
      </trkpt>
      <trkpt lat="45.1298" lon="5.00258">
        <ele>234.84100341797</ele>
        <time>2009-06-27T15:43:54Z</time>
      </trkpt>
      <trkpt lat="45.12888" lon="5.00172">
        <ele>232.0950012207</ele>
        <time>2009-06-27T15:44:04Z</time>
      </trkpt>
      <trkpt lat="45.12859" lon="5.00119">
        <ele>230.67300415039</ele>
        <time>2009-06-27T15:44:08Z</time>
      </trkpt>
      <trkpt lat="45.12811" lon="5.00073">
        <ele>229.86399841309</ele>
        <time>2009-06-27T15:44:13Z</time>
      </trkpt>
      <trkpt lat="45.12738" lon="5.00046">
        <ele>226.93299865723</ele>
        <time>2009-06-27T15:44:19Z</time>
      </trkpt>
      <trkpt lat="45.12725" lon="5.00039">
        <ele>226.2380065918</ele>
        <time>2009-06-27T15:44:20Z</time>
      </trkpt>
      <trkpt lat="45.12674" lon="4.99983">
        <ele>225.14900207519</ele>
        <time>2009-06-27T15:44:25Z</time>
      </trkpt>
      <trkpt lat="45.1265" lon="4.9992">
        <ele>225.25700378418</ele>
        <time>2009-06-27T15:44:29Z</time>
      </trkpt>
      <trkpt lat="45.12619" lon="4.99846">
        <ele>224.56500244141</ele>
        <time>2009-06-27T15:44:34Z</time>
      </trkpt>
      <trkpt lat="45.12531" lon="4.99718">
        <ele>225.07299804688</ele>
        <time>2009-06-27T15:44:45Z</time>
      </trkpt>
      <trkpt lat="45.12443" lon="4.99605">
        <ele>226.46499633789</ele>
        <time>2009-06-27T15:44:56Z</time>
      </trkpt>
      <trkpt lat="45.12397" lon="4.99523">
        <ele>226.95399475098</ele>
        <time>2009-06-27T15:45:03Z</time>
      </trkpt>
      <trkpt lat="45.1236" lon="4.99353">
        <ele>227.57400512695</ele>
        <time>2009-06-27T15:45:16Z</time>
      </trkpt>
      <trkpt lat="45.12326" lon="4.99209">
        <ele>227.20300292969</ele>
        <time>2009-06-27T15:45:30Z</time>
      </trkpt>
      <trkpt lat="45.12287" lon="4.99133">
        <ele>225.36500549316</ele>
        <time>2009-06-27T15:45:38Z</time>
      </trkpt>
      <trkpt lat="45.12277" lon="4.99098">
        <ele>223.81700134277</ele>
        <time>2009-06-27T15:45:41Z</time>
      </trkpt>
      <trkpt lat="45.12252" lon="4.99066">
        <ele>221.34300231934</ele>
        <time>2009-06-27T15:45:45Z</time>
      </trkpt>
      <trkpt lat="45.12239" lon="4.99048">
        <ele>218.77000427246</ele>
        <time>2009-06-27T15:45:49Z</time>
      </trkpt>
      <trkpt lat="45.12224" lon="4.99033">
        <ele>217.70799255371</ele>
        <time>2009-06-27T15:45:57Z</time>
      </trkpt>
      <trkpt lat="45.12214" lon="4.99034">
        <ele>216.77099609375</ele>
        <time>2009-06-27T15:46:04Z</time>
      </trkpt>
      <trkpt lat="45.12212" lon="4.99034">
        <ele>216.64399719238</ele>
        <time>2009-06-27T15:46:07Z</time>
      </trkpt>
      <trkpt lat="45.12209" lon="4.99037">
        <ele>216.60800170898</ele>
        <time>2009-06-27T15:46:50Z</time>
      </trkpt>
      <trkpt lat="45.12206" lon="4.99036">
        <ele>216.37800598144</ele>
        <time>2009-06-27T15:46:51Z</time>
      </trkpt>
      <trkpt lat="45.12162" lon="4.98992">
        <ele>213.68099975586</ele>
        <time>2009-06-27T15:47:01Z</time>
      </trkpt>
      <trkpt lat="45.12096" lon="4.98884">
        <ele>211.09399414062</ele>
        <time>2009-06-27T15:47:14Z</time>
      </trkpt>
      <trkpt lat="45.12045" lon="4.9874">
        <ele>210.30099487305</ele>
        <time>2009-06-27T15:47:29Z</time>
      </trkpt>
      <trkpt lat="45.12022" lon="4.98574">
        <ele>211.25799560547</ele>
        <time>2009-06-27T15:47:46Z</time>
      </trkpt>
      <trkpt lat="45.12021" lon="4.9855">
        <ele>209.90800476074</ele>
        <time>2009-06-27T15:47:49Z</time>
      </trkpt>
      <trkpt lat="45.12032" lon="4.98456">
        <ele>210.41400146484</ele>
        <time>2009-06-27T15:48:01Z</time>
      </trkpt>
      <trkpt lat="45.12034" lon="4.9845">
        <ele>210.21200561523</ele>
        <time>2009-06-27T15:48:02Z</time>
      </trkpt>
      <trkpt lat="45.12048" lon="4.98428">
        <ele>210.22099304199</ele>
        <time>2009-06-27T15:48:06Z</time>
      </trkpt>
      <trkpt lat="45.12082" lon="4.98405">
        <ele>210.20199584961</ele>
        <time>2009-06-27T15:48:16Z</time>
      </trkpt>
      <trkpt lat="45.12088" lon="4.98407">
        <ele>209.80999755859</ele>
        <time>2009-06-27T15:48:19Z</time>
      </trkpt>
      <trkpt lat="45.1209" lon="4.98408">
        <ele>209.7380065918</ele>
        <time>2009-06-27T15:48:20Z</time>
      </trkpt>
      <trkpt lat="45.12095" lon="4.98409">
        <ele>210.04699707031</ele>
        <time>2009-06-27T15:48:25Z</time>
      </trkpt>
      <trkpt lat="45.12089" lon="4.98401">
        <ele>209.54699707031</ele>
        <time>2009-06-27T15:53:40Z</time>
      </trkpt>
      <trkpt lat="45.12068" lon="4.98399">
        <ele>209.41700744629</ele>
        <time>2009-06-27T15:53:49Z</time>
      </trkpt>
      <trkpt lat="45.12054" lon="4.98389">
        <ele>209.34700012207</ele>
        <time>2009-06-27T15:53:54Z</time>
      </trkpt>
      <trkpt lat="45.12053" lon="4.98364">
        <ele>209.44200134277</ele>
        <time>2009-06-27T15:53:58Z</time>
      </trkpt>
      <trkpt lat="45.12071" lon="4.98244">
        <ele>207.60600280762</ele>
        <time>2009-06-27T15:54:13Z</time>
      </trkpt>
      <trkpt lat="45.12056" lon="4.98084">
        <ele>206.71899414062</ele>
        <time>2009-06-27T15:54:30Z</time>
      </trkpt>
      <trkpt lat="45.12008" lon="4.9788">
        <ele>205.1609954834</ele>
        <time>2009-06-27T15:54:50Z</time>
      </trkpt>
      <trkpt lat="45.11969" lon="4.97656">
        <ele>203.46299743652</ele>
        <time>2009-06-27T15:55:12Z</time>
      </trkpt>
      <trkpt lat="45.1193" lon="4.97432">
        <ele>201.05200195312</ele>
        <time>2009-06-27T15:55:34Z</time>
      </trkpt>
      <trkpt lat="45.11889" lon="4.97195">
        <ele>200.81300354004</ele>
        <time>2009-06-27T15:55:57Z</time>
      </trkpt>
      <trkpt lat="45.11882" lon="4.97149">
        <ele>200.95500183106</ele>
        <time>2009-06-27T15:56:02Z</time>
      </trkpt>
      <trkpt lat="45.11895" lon="4.97092">
        <ele>202.47999572754</ele>
        <time>2009-06-27T15:56:09Z</time>
      </trkpt>
      <trkpt lat="45.11896" lon="4.97051">
        <ele>203.10000610352</ele>
        <time>2009-06-27T15:56:16Z</time>
      </trkpt>
      <trkpt lat="45.11838" lon="4.96986">
        <ele>202.55400085449</ele>
        <time>2009-06-27T15:56:28Z</time>
      </trkpt>
      <trkpt lat="45.11783" lon="4.96903">
        <ele>202.24099731445</ele>
        <time>2009-06-27T15:56:40Z</time>
      </trkpt>
      <trkpt lat="45.1177" lon="4.96882">
        <ele>202.08799743652</ele>
        <time>2009-06-27T15:56:43Z</time>
      </trkpt>
      <trkpt lat="45.11764" lon="4.96846">
        <ele>202.45799255371</ele>
        <time>2009-06-27T15:56:47Z</time>
      </trkpt>
      <trkpt lat="45.11747" lon="4.96818">
        <ele>201.83599853516</ele>
        <time>2009-06-27T15:56:51Z</time>
      </trkpt>
      <trkpt lat="45.11734" lon="4.96812">
        <ele>202.21600341797</ele>
        <time>2009-06-27T15:56:53Z</time>
      </trkpt>
      <trkpt lat="45.11674" lon="4.96728">
        <ele>200.89999389648</ele>
        <time>2009-06-27T15:57:04Z</time>
      </trkpt>
      <trkpt lat="45.11634" lon="4.9663">
        <ele>200.18899536133</ele>
        <time>2009-06-27T15:57:14Z</time>
      </trkpt>
      <trkpt lat="45.11585" lon="4.96507">
        <ele>200.21600341797</ele>
        <time>2009-06-27T15:57:27Z</time>
      </trkpt>
      <trkpt lat="45.11582" lon="4.96499">
        <ele>199.75199890137</ele>
        <time>2009-06-27T15:57:28Z</time>
      </trkpt>
      <trkpt lat="45.11579" lon="4.96469">
        <ele>200.5</ele>
        <time>2009-06-27T15:57:32Z</time>
      </trkpt>
      <trkpt lat="45.11581" lon="4.96448">
        <ele>201.32000732422</ele>
        <time>2009-06-27T15:57:36Z</time>
      </trkpt>
      <trkpt lat="45.11576" lon="4.96441">
        <ele>200.72300720215</ele>
        <time>2009-06-27T15:57:42Z</time>
      </trkpt>
      <trkpt lat="45.11572" lon="4.96444">
        <ele>201.15100097656</ele>
        <time>2009-06-27T15:58:06Z</time>
      </trkpt>
      <trkpt lat="45.11568" lon="4.96447">
        <ele>201.01800537109</ele>
        <time>2009-06-27T15:58:10Z</time>
      </trkpt>
      <trkpt lat="45.11561" lon="4.9644">
        <ele>201.00700378418</ele>
        <time>2009-06-27T15:58:15Z</time>
      </trkpt>
      <trkpt lat="45.11564" lon="4.9642">
        <ele>201.88200378418</ele>
        <time>2009-06-27T15:58:23Z</time>
      </trkpt>
      <trkpt lat="45.11566" lon="4.96422">
        <ele>201.65400695801</ele>
        <time>2009-06-27T15:58:28Z</time>
      </trkpt>
      <trkpt lat="45.11568" lon="4.96425">
        <ele>201.64999389648</ele>
        <time>2009-06-27T15:58:34Z</time>
      </trkpt>
      <trkpt lat="45.11567" lon="4.96423">
        <ele>202.05099487305</ele>
        <time>2009-06-27T15:58:39Z</time>
      </trkpt>
    </trkseg>
  </trk>
</gpx>